[[{"header":{"parameterUnit":"m.s-1","parameterCategory":1,"la1":30.6,"la2":28.766,"lo1":-90.7593,"lo2":-88.6598,"dy":0.0162,"dx":0.0183,"nx":116,"ny":114,"refTime":"2023-06-02T12:00:00:Z","depth":0,"parameterNumber":2,"parameterNumberName":"U-component_of_WINDS"},"data":[0.0,0.0,0.0,0.0,0.0,0.0,0.0,0.0,0.0,0.0,0.0,0.0,0.0,0.0,0.0,0.0,0.0,0.0,0.0,0.0,0.0,0.0,0.0,0.0,0.0,0.0,0.0,0.0,0.0,0.0,0.0,0.0,0.0,0.0,0.0,0.0,0.0,0.0,0.0,0.0,0.0,0.0,0.0,0.0,0.0,0.0,0.0,0.0,0.0,0.0,0.0,0.0,0.0,0.0,0.0,0.0,0.0,0.0,0.0,0.0,0.0,0.0,0.0,0.0,0.0,0.0,0.0,0.0,0.0,0.0,0.0,0.0,0.0,0.0,0.0,0.0,0.0,0.0,0.0,0.0,0.0,0.0,0.0,0.0,0.0,0.0,0.0,0.0,0.0,0.0,0.0,0.0,0.0,0.0,0.0,0.0,0.0,0.0,0.0,0.0,0.0,0.0,0.0,0.0,0.0,0.0,0.0,0.0,0.0,0.0,0.0,0.0,0.0,0.0,0.0,0.0,0.0,0.0,0.0,0.0,0.0,0.0,0.0,0.0,0.0,0.0,0.0,0.0,0.0,0.0,0.0,0.0,0.0,0.0,0.0,0.0,0.0,0.0,0.0,0.0,0.0,0.0,0.0,0.0,0.0,0.0,0.0,0.0,0.0,0.0,0.0,0.0,0.0,0.0,0.0,0.0,0.0,0.0,0.0,0.0,0.0,0.0,0.0,0.0,0.0,0.0,0.0,0.0,0.0,0.0,0.0,0.0,0.0,0.0,0.0,0.0,0.0,0.0,0.0,0.0,0.0,0.0,0.0,0.0,0.0,0.0,0.0,0.0,0.0,0.0,0.0,0.0,0.0,0.0,0.0,0.0,0.0,0.0,0.0,0.0,0.0,0.0,0.0,0.0,0.0,0.0,0.0,0.0,0.0,0.0,0.0,0.0,0.0,0.0,0.0,0.0,0.0,0.0,0.0,0.0,0.0,0.0,0.0,0.0,0.0,0.0,0.0,0.0,0.0,0.0,0.0,0.0,0.0,0.0,0.0,0.0,0.0,0.0,0.0,0.0,0.0,0.0,0.0,0.0,0.0,0.0,0.0,0.0,0.0,0.0,0.0,0.0,0.0,0.0,0.0,0.0,0.0,0.0,0.0,0.0,0.0,0.0,0.0,0.0,0.0,0.0,0.0,0.0,0.0,0.0,0.0,0.0,0.0,0.0,0.0,0.0,0.0,0.0,0.0,0.0,0.0,0.0,0.0,0.0,0.0,0.0,0.0,0.0,0.0,0.0,0.0,0.0,0.0,0.0,0.0,0.0,0.0,0.0,0.0,0.0,0.0,0.0,0.0,0.0,0.0,0.0,0.0,0.0,0.0,0.0,0.0,0.0,0.0,0.0,0.0,0.0,0.0,0.0,0.0,0.0,0.0,0.0,0.0,0.0,0.0,0.0,0.0,0.0,0.0,0.0,0.0,0.0,0.0,0.0,0.0,0.0,0.0,0.0,0.0,0.0,0.0,0.0,0.0,0.0,0.0,0.0,0.0,0.0,0.0,0.0,0.0,0.0,0.0,0.0,0.0,0.0,0.0,0.0,0.0,0.0,0.0,0.0,0.0,0.0,0.0,0.0,0.0,0.0,0.0,0.0,0.0,0.0,0.0,0.0,0.0,0.0,0.0,0.0,0.0,0.0,0.0,0.0,0.0,0.0,0.0,0.0,0.0,0.0,0.0,0.0,0.0,0.0,0.0,0.0,0.0,0.0,0.0,0.0,0.0,0.0,0.0,0.0,0.0,0.0,0.0,0.0,0.0,0.0,0.0,0.0,0.0,0.0,0.0,0.0,0.0,0.0,0.0,0.0,0.0,0.0,0.0,0.0,0.0,0.0,0.0,0.0,0.0,0.0,0.0,0.0,0.0,0.0,0.0,0.0,0.0,0.0,0.0,0.0,0.0,0.0,0.0,0.0,0.0,0.0,0.0,0.0,0.0,0.0,0.0,0.0,0.0,0.0,0.0,0.0,0.0,0.0,0.0,0.0,0.0,0.0,0.0,0.0,0.0,0.0,0.0,0.0,0.0,0.0,0.0,0.0,0.0,0.0,0.0,0.0,0.0,0.0,0.0,0.0,0.0,0.0,0.0,0.0,0.0,0.0,0.0,0.0,0.0,0.0,0.0,0.0,0.0,0.0,0.0,0.0,0.0,0.0,0.0,0.0,0.0,0.0,0.0,0.0,0.0,0.0,0.0,0.0,0.0,0.0,0.0,0.0,0.0,0.0,0.0,0.0,0.0,0.0,0.0,0.0,0.0,0.0,0.0,0.0,0.0,0.0,0.0,0.0,0.0,0.0,0.0,0.0,0.0,0.0,0.0,0.0,0.0,0.0,0.0,0.0,0.0,0.0,0.0,0.0,0.0,0.0,0.0,0.0,0.0,0.0,0.0,0.0,0.0,0.0,0.0,0.0,0.0,0.0,0.0,0.0,0.0,0.0,0.0,0.0,0.0,0.0,0.0,0.0,0.0,0.0,0.0,0.0,0.0,0.0,0.0,0.0,0.0,0.0,0.0,0.0,0.0,0.0,0.0,0.0,0.0,0.0,0.0,0.0,0.0,0.0,0.0,0.0,0.0,0.0,0.0,0.0,0.0,0.0,0.0,0.0,0.0,0.0,0.0,0.0,0.0,0.0,0.0,0.0,0.0,0.0,0.0,0.0,0.0,0.0,0.0,0.0,0.0,0.0,0.0,0.0,0.0,0.0,0.0,0.0,0.0,0.0,0.0,0.0,0.0,0.0,0.0,0.0,0.0,0.0,0.0,0.0,0.0,0.0,0.0,0.0,0.0,0.0,0.0,0.0,0.0,0.0,0.0,0.0,0.0,0.0,0.0,0.0,0.0,0.0,0.0,0.0,0.0,0.0,0.0,0.0,0.0,0.0,0.0,0.0,0.0,0.0,0.0,0.0,0.0,0.0,0.0,0.0,0.0,0.0,0.0,0.0,0.0,0.0,0.0,0.0,0.0,0.0,0.0,0.0,0.0,0.0,0.0,0.0,0.0,0.0,0.0,0.0,0.0,0.0,0.0,0.0,0.0,0.0,0.0,0.0,0.0,0.0,0.0,0.0,0.0,0.0,0.0,0.0,0.0,0.0,0.0,0.0,0.0,0.0,0.0,0.0,0.0,0.0,0.0,0.0,0.0,0.0,0.0,0.0,0.0,0.0,0.0,0.0,0.0,0.0,0.0,0.0,0.0,0.0,0.0,0.0,0.0,0.0,0.0,0.0,0.0,0.0,0.0,0.0,0.0,0.0,0.0,0.0,0.0,0.0,0.0,0.0,0.0,0.0,0.0,0.0,0.0,0.0,0.0,0.0,0.0,0.0,0.0,0.0,0.0,0.0,0.0,0.0,0.0,0.0,0.0,0.0,0.0,0.0,0.0,0.0,0.0,0.0,0.0,0.0,0.0,0.0,0.0,0.0,0.0,0.0,0.0,0.0,0.0,0.0,0.0,0.0,0.0,0.0,0.0,0.0,0.0,0.0,0.0,0.0,0.0,0.0,0.0,0.0,0.0,0.0,0.0,0.0,0.0,0.0,0.0,0.0,0.0,0.0,0.0,0.0,0.0,0.0,0.0,0.0,0.0,0.0,0.0,0.0,0.0,0.0,0.0,0.0,0.0,0.0,0.0,0.0,0.0,0.0,0.0,0.0,0.0,0.0,0.0,0.0,0.0,0.0,0.0,0.0,0.0,0.0,0.0,0.0,0.0,0.0,0.0,0.0,0.0,0.0,0.0,0.0,0.0,0.0,0.0,0.0,0.0,0.0,0.0,0.0,0.0,0.0,0.0,0.0,0.0,0.0,0.0,0.0,0.0,0.0,0.0,0.0,0.0,0.0,0.0,0.0,0.0,0.0,0.0,0.0,0.0,0.0,0.0,0.0,0.0,0.0,0.0,0.0,0.0,0.0,0.0,0.0,0.0,0.0,0.0,0.0,0.0,0.0,0.0,0.0,0.0,0.0,0.0,0.0,0.0,0.0,0.0,0.0,0.0,0.0,0.0,0.0,0.0,0.0,0.0,0.0,0.0,0.0,0.0,0.0,0.0,0.0,0.0,0.0,0.0,0.0,0.0,0.0,0.0,0.0,0.0,0.0,0.0,0.0,0.0,0.0,0.0,0.0,0.0,0.0,0.0,0.0,0.0,0.0,0.0,0.0,0.0,0.0,0.0,0.0,0.0,0.0,0.0,0.0,0.0,0.0,0.0,0.0,0.0,0.0,0.0,0.0,0.0,0.0,0.0,0.0,0.0,0.0,0.0,0.0,0.0,0.0,0.0,0.0,0.0,0.0,0.0,0.0,0.0,0.0,0.0,0.0,0.0,0.0,0.0,0.0,0.0,0.0,0.0,0.0,0.0,0.0,0.0,0.0,0.0,0.0,0.0,0.0,0.0,0.0,0.0,0.0,0.0,0.0,0.0,0.0,0.0,0.0,0.0,0.0,0.0,0.0,0.0,0.0,0.0,0.0,0.0,0.0,0.0,0.0,0.0,0.0,0.0,0.0,0.0,0.0,0.0,0.0,0.0,0.0,0.0,0.0,0.0,0.0,0.0,0.0,0.0,0.0,0.0,0.0,0.0,0.0,0.0,0.0,0.0,0.0,0.0,0.0,0.0,0.0,0.0,0.0,0.0,0.0,0.0,0.0,0.0,0.0,0.0,0.0,0.0,0.0,0.0,0.0,0.0,0.0,0.0,0.0,0.0,0.0,0.0,0.0,0.0,0.0,0.0,0.0,0.0,0.0,0.0,0.0,0.0,0.0,0.0,0.0,0.0,0.0,0.0,0.0,0.0,0.0,0.0,0.0,0.0,0.0,0.0,0.0,0.0,0.0,0.0,0.0,0.0,0.0,0.0,0.0,0.0,0.0,0.0,0.0,0.0,0.0,0.0,0.0,0.0,0.0,0.0,0.0,0.0,0.0,0.0,0.0,0.0,0.0,0.0,0.0,0.0,0.0,0.0,0.0,0.0,0.0,0.0,0.0,0.0,0.0,0.0,0.0,0.0,0.0,0.0,0.0,0.0,0.0,0.0,0.0,0.0,0.0,0.0,0.0,0.0,0.0,0.0,0.0,0.0,0.0,0.0,0.0,0.0,0.0,0.0,0.0,0.0,0.0,0.0,0.0,0.0,0.0,0.0,0.0,0.0,0.0,0.0,0.0,0.0,0.0,0.0,0.0,0.0,0.0,0.0,0.0,0.0,0.0,0.0,0.0,0.0,0.0,0.0,0.0,0.0,0.0,0.0,0.0,0.0,0.0,0.0,0.0,0.0,0.0,0.0,0.0,0.0,0.0,0.0,0.0,0.0,0.0,0.0,0.0,0.0,0.0,0.0,0.0,0.0,0.0,0.0,0.0,0.0,0.0,0.0,0.0,0.0,0.0,0.0,0.0,0.0,0.0,0.0,0.0,0.0,0.0,0.0,0.0,0.0,0.0,0.0,0.0,0.0,0.0,0.0,0.0,0.0,0.0,0.0,0.0,0.0,0.0,0.0,0.0,0.0,0.0,0.0,0.0,0.0,0.0,0.0,0.0,0.0,0.0,0.0,0.0,0.0,0.0,0.0,0.0,0.0,0.0,0.0,0.0,0.0,0.0,0.0,0.0,0.0,0.0,0.0,0.0,0.0,0.0,0.0,0.0,0.0,0.0,0.0,0.0,0.0,0.0,0.0,0.0,0.0,0.0,0.0,0.0,0.0,0.0,0.0,0.0,0.0,0.0,0.0,0.0,0.0,0.0,0.0,0.0,0.0,0.0,0.0,0.0,0.0,0.0,0.0,0.0,0.0,0.0,0.0,0.0,0.0,0.0,0.0,0.0,0.0,0.0,0.0,0.0,0.0,0.0,0.0,0.0,0.0,0.0,0.0,0.0,0.0,0.0,0.0,0.0,0.0,0.0,0.0,0.0,0.0,0.0,0.0,0.0,0.0,0.0,0.0,0.0,0.0,0.0,0.0,0.0,0.0,0.0,0.0,0.0,0.0,0.0,0.0,0.0,0.0,0.0,0.0,0.0,0.0,0.0,0.0,0.0,0.0,0.0,0.0,0.0,0.0,0.0,0.0,0.0,0.0,0.0,-3.3768,-3.3495,0.0,0.0,0.0,0.0,0.0,0.0,0.0,0.0,0.0,0.0,0.0,0.0,0.0,0.0,0.0,0.0,0.0,0.0,0.0,0.0,0.0,0.0,0.0,0.0,0.0,0.0,0.0,0.0,0.0,0.0,0.0,0.0,0.0,0.0,0.0,0.0,0.0,0.8387,0.5586,0.086,-0.5493,-0.311,0.0682,0.5524,0.0,0.0,0.0,0.0,0.0,0.0,0.0,0.0,0.0,0.0,0.0,0.0,0.0,0.0,0.0,0.0,0.0,0.0,0.0,0.0,0.0,0.0,0.0,0.0,0.0,0.0,0.0,0.0,0.0,0.0,0.0,0.0,0.0,0.0,0.0,0.0,0.0,0.0,0.0,0.0,0.0,0.0,0.0,0.0,0.0,0.0,0.0,0.0,0.0,0.0,0.0,0.0,0.0,0.0,0.0,0.0,0.0,0.0,0.0,0.0,0.0,0.0,0.0,0.0,0.0,0.0,0.0,0.0,0.0,0.0,-4.0511,-4.0446,0.0,0.0,0.0,0.0,0.0,0.0,0.0,0.0,0.0,0.0,0.0,0.0,0.0,0.0,0.0,0.0,0.0,0.0,0.0,0.0,0.0,0.0,0.0,2.0335,2.1494,2.4466,2.4096,2.4446,0.0,0.0,0.0,0.0,0.0,0.0,1.6213,1.3226,0.8362,0.1586,-0.3092,-0.9382,-1.7042,-1.9579,-1.5889,-0.7071,-0.4148,0.0,0.0,0.0,0.0,0.0,0.0,0.0,0.0,0.0,0.0,0.0,0.0,0.0,0.0,0.0,0.0,0.0,0.0,0.0,0.0,0.0,0.0,0.0,0.0,0.0,0.0,0.0,0.0,0.0,0.0,0.0,0.0,0.0,0.0,0.0,0.0,0.0,0.0,0.0,0.0,0.0,0.0,0.0,0.0,0.0,0.0,0.0,0.0,0.0,0.0,0.0,0.0,0.0,0.0,0.0,0.0,0.0,0.0,0.0,0.0,0.0,0.0,0.0,-4.1969,-4.2213,-4.269,-4.2029,-4.2335,-4.3389,-4.28,-4.2835,-4.3239,-4.2547,0.0,0.0,0.0,0.0,0.0,0.0,0.0,0.0,0.0,0.0,0.0,0.0,0.0,0.0,0.0,0.0,0.0,0.0,0.0,0.0,0.0,1.8785,2.0484,2.1898,2.3251,2.4504,2.5596,0.0,0.0,0.0,0.0,0.0,1.1996,0.7722,0.2175,-0.4684,-1.4449,-2.1587,-2.5979,-2.7117,-2.7162,-2.6001,-1.7824,-1.2247,-0.8443,0.0,0.0,0.0,0.0,0.0,0.0,0.0,0.0,0.0,0.0,0.0,0.0,0.0,0.0,0.0,0.0,0.0,0.0,0.0,0.0,0.0,0.0,0.0,0.0,0.0,0.0,0.0,0.0,0.0,0.0,0.0,0.0,0.0,0.0,0.0,0.0,0.0,0.0,0.0,0.0,0.0,-3.5202,-3.8069,0.0,0.0,0.0,0.0,0.0,0.0,0.0,0.0,0.0,0.0,0.0,0.0,0.0,-4.2216,-4.2992,-4.3826,-4.4265,-4.4307,-4.493,-4.4966,-4.4378,-4.4268,-4.4099,-4.3901,-4.4165,0.0,-4.4124,-4.4008,0.0,0.0,0.0,0.0,0.0,0.0,0.0,0.0,0.0,0.0,0.0,0.0,0.0,0.0,0.0,0.0,0.0,0.0,0.0,0.0,0.0,1.2341,1.4076,1.6085,1.8851,2.125,2.3097,2.2298,0.0,0.0,0.0,1.1553,0.6784,0.1731,-0.5628,-1.5421,-2.2884,-2.7795,-3.0167,-3.2196,-3.3347,-3.3604,-3.0756,-2.5242,-1.7665,-1.1318,0.0,0.0,0.0,0.0,0.0,0.0,0.0,0.0,0.0,0.0,0.0,0.0,0.0,0.0,0.0,0.0,0.0,0.0,0.0,0.0,0.0,0.0,0.0,0.0,0.0,0.0,0.0,0.0,0.0,0.0,0.0,0.0,0.0,0.0,0.0,0.0,0.0,0.0,0.0,-3.2511,-3.6668,-3.8729,-3.8699,-3.7963,0.0,0.0,0.0,0.0,0.0,0.0,0.0,0.0,0.0,-4.3578,-4.3664,-4.4044,-4.4856,-4.5223,-4.5369,-4.5369,-4.5259,-4.5039,-4.4672,-4.4232,-4.4029,-4.3998,-4.4175,-4.4436,-4.4729,-4.4418,-4.3765,-4.2928,0.0,0.0,0.0,0.0,-4.0994,-4.1254,0.0,0.0,0.0,0.0,0.0,0.0,0.0,0.0,0.0,0.0,0.0,0.0,0.4586,0.5132,0.6473,0.8697,1.1949,1.51,1.7807,1.773,1.6709,1.4827,1.0972,0.625,0.0767,-0.6094,-1.4313,-2.4046,-2.8486,-3.1255,-3.2491,-3.5118,-3.6556,-3.6958,-3.8584,-3.476,-2.6678,-2.1573,-1.4949,-0.728,0.0,0.0,0.0,0.0,0.0,0.0,0.0,0.0,0.0,0.0,0.0,0.0,0.0,0.0,0.0,0.0,0.0,0.0,0.0,0.0,0.0,0.0,0.0,0.0,0.0,0.0,0.0,0.0,0.0,0.0,0.0,0.0,0.0,0.0,0.0,0.0,0.0,-3.5099,-3.7321,-3.8997,-3.9791,-3.9398,0.0,0.0,0.0,0.0,0.0,0.0,-4.163,-4.2084,-4.3214,-4.5234,-4.5289,-4.5699,-4.6506,-4.6506,-4.6434,-4.6214,-4.5626,-4.5112,-4.4672,-4.4085,-4.3815,-4.3881,-4.3937,-4.4373,-4.495,-4.4614,-4.4418,-4.4239,-4.3624,-4.3136,-4.2738,-4.3035,-4.2944,-4.2872,0.0,0.0,0.0,0.0,0.0,0.0,0.0,0.0,0.0,0.0,0.0,0.1488,-0.1182,-0.1287,-0.0852,0.0,0.2416,0.5319,0.854,0.9545,0.9672,0.9063,0.5058,-0.0061,-0.6265,-1.6663,-2.3778,-2.7458,-3.0469,-3.2455,-3.356,-3.5237,-3.6621,-3.7651,-3.7967,-3.7833,-3.685,-2.8835,-2.3927,-2.0673,-1.1071,0.0,0.0,0.0,0.0,0.0,0.0,0.0,0.0,0.0,0.0,0.0,0.0,0.0,0.0,0.0,0.0,0.0,0.0,0.0,0.0,0.0,0.0,0.0,0.0,0.0,0.0,0.0,0.0,0.0,0.0,0.0,0.0,0.0,0.0,0.0,0.0,0.0,0.0,-4.0711,-4.1911,0.0,0.0,0.0,0.0,-3.9795,-4.1209,-4.2521,-4.3332,-4.4114,-4.5287,-4.6935,-4.6985,-4.7386,-4.8196,-4.8196,-4.7829,-4.7058,-4.7021,-4.6177,-4.4709,-4.4672,-4.4232,-4.3529,-4.3849,-4.4233,-4.4676,-4.495,-4.4747,-4.4316,-4.4239,-4.3778,-4.3069,-4.3085,-4.3085,-4.3069,0.0,0.0,0.0,0.0,0.0,0.0,0.0,0.0,0.6519,0.2802,-0.0609,-0.3915,-0.7225,-0.7373,-0.726,-0.7235,-0.4057,-0.0573,0.3056,0.3875,0.387,0.3123,-0.0424,-0.6461,-1.5117,-2.1017,-2.5833,-2.9576,-3.1781,-3.3361,-3.4411,-3.5914,-3.6813,-3.7274,-3.7894,-3.8385,-3.8472,-3.4328,-3.0553,-2.6675,-2.0157,-1.3344,0.0,0.0,0.0,0.0,0.0,0.0,0.0,0.0,0.0,0.0,0.0,0.0,0.0,0.0,0.0,0.0,0.0,0.0,0.0,0.0,0.0,0.0,0.0,0.0,0.0,0.0,0.0,0.0,0.0,0.0,0.0,0.0,0.0,0.0,0.0,0.0,0.0,-4.0356,-4.2683,0.0,-4.1457,-4.2559,-4.3309,-4.302,-4.3973,-4.4963,-4.5771,-4.6101,-4.6727,-4.7832,-4.7865,-4.7754,-4.7536,-4.7536,-4.6838,-4.559,-4.559,-4.5002,-4.3938,-4.3938,-4.3754,-4.3532,-4.3631,-4.4035,-4.4624,-4.4751,-4.4925,-4.5124,-4.5124,-4.497,-4.4701,-4.4701,-4.4355,-4.3855,0.0,0.0,0.0,0.0,0.0,0.0,0.0,0.0,0.4527,0.0138,-0.3646,-0.7413,-1.1404,-1.2225,-1.2664,-1.3117,-1.0034,-0.6575,-0.2911,-0.2241,-0.1902,-0.1746,-0.6634,-1.2954,-2.062,-2.3894,-2.7052,-3.0143,-3.1672,-3.2929,-3.3971,-3.5007,-3.5896,-3.6628,-3.6914,-3.7674,-3.8606,-3.7324,-3.5222,-3.2474,-2.8764,-2.3363,-1.669,0.0,0.0,0.0,0.0,0.0,0.0,0.0,0.0,0.0,0.0,0.0,0.0,0.0,0.0,0.0,0.0,0.0,0.0,0.0,0.0,0.0,0.0,0.0,0.0,0.0,0.0,0.0,0.0,0.0,0.0,0.0,0.0,0.0,0.0,-3.7886,-3.9812,-4.0007,-4.3068,-4.4339,-4.2377,-4.3937,-4.511,-4.5112,-4.5847,-4.6434,-4.6691,-4.7041,-4.7288,-4.7498,-4.7563,-4.7307,-4.6728,-4.6691,-4.5993,-4.4709,-4.4709,-4.4268,-4.3497,-4.3497,-4.3497,-4.3497,-4.3497,-4.3855,-4.4401,-4.4401,-4.4738,-4.5283,-4.5494,-4.5586,-4.5603,-4.5632,-4.5125,-4.4299,0.0,0.0,0.0,0.0,0.0,0.0,0.0,0.7902,0.3271,-0.2231,-0.5267,-0.8717,-1.3505,-1.5487,-1.6739,-1.7368,-1.5462,-1.2802,-0.9446,-0.8764,-0.7604,-0.5574,-1.3589,-1.9417,-2.2387,-2.5628,-2.7931,-2.9281,-3.016,-3.1176,-3.2222,-3.262,-3.3821,-3.5683,-3.492,-3.5781,-3.7788,-3.7704,-3.7959,-3.831,-3.6783,-3.2655,-2.6921,0.0,0.0,0.0,0.0,0.0,0.0,0.0,0.0,0.0,0.0,0.0,0.0,0.0,0.0,0.0,0.0,0.0,0.0,0.0,0.0,0.0,0.0,0.0,0.0,0.0,0.0,0.0,0.0,0.0,0.0,0.0,0.0,0.0,-3.6384,-3.7983,-3.9256,-3.9893,-4.3097,-4.4713,-4.3235,-4.4841,-4.5957,-4.5957,-4.6654,-4.6765,-4.5956,-4.6823,-4.6908,-4.592,-4.6029,-4.6029,-4.5845,-4.581,-4.5407,-4.4636,-4.4636,-4.4268,-4.3497,-4.3497,-4.3497,-4.3497,-4.3497,-4.3693,-4.3998,-4.3998,-4.4233,-4.4676,-4.5303,-4.553,-4.5526,-4.5655,-4.5169,-4.415,0.0,0.0,0.0,0.0,0.0,0.0,0.0,0.6671,0.2724,-0.1497,-0.4727,-0.804,-1.1857,-1.3054,-1.4216,-1.5782,-1.4865,-1.3654,-1.2111,-1.1559,-1.162,-1.2386,-1.6667,-2.0396,-2.3216,-2.5474,-2.7514,-2.9348,-3.0225,-3.1162,-3.2276,-3.2629,-3.3193,-3.3941,-3.4332,-3.4923,-3.5621,-3.6178,-3.6562,-3.6929,-3.7489,-3.6699,-3.4478,0.0,0.0,0.0,0.0,0.0,0.0,0.0,0.0,0.0,0.0,0.0,0.0,0.0,0.0,0.0,0.0,0.0,0.0,0.0,0.0,0.0,0.0,0.0,0.0,0.0,0.0,0.0,0.0,0.0,0.0,0.0,-3.3242,-3.4997,-3.6384,-3.8394,-4.0194,-4.1395,-4.4199,-4.587,-4.5492,-4.6757,-4.7645,-4.7645,-4.747,-4.6969,-4.6226,-4.5988,-4.5686,-4.5316,-4.4964,-4.4635,-4.4447,-4.4016,-4.362,-4.3246,-4.3246,-4.336,-4.3497,-4.3497,-4.3497,-4.3497,-4.3497,-4.3693,-4.3998,-4.3998,-4.4233,-4.4624,-4.4825,-4.4478,-4.3931,-4.3961,-4.309,-4.1777,0.0,0.0,0.0,0.0,0.0,0.0,0.0,0.6498,0.3199,-0.0539,-0.3592,-0.6455,-0.9148,-1.0045,-1.0927,-1.2142,-1.193,-1.1671,-1.1506,-1.2513,-1.3974,-1.6084,-1.861,-2.0935,-2.3086,-2.4675,-2.639,-2.8183,-2.8469,-2.921,-3.0338,-3.0816,-3.1382,-3.2085,-3.2982,-3.3528,-3.3799,-3.4888,-3.5315,-3.5376,-3.6879,-3.7838,-3.7836,-3.3107,-2.8783,-2.4135,-1.5511,-0.8846,-0.3451,0.123,0.0,0.0,0.0,0.0,0.0,0.0,0.0,0.0,0.0,0.0,0.0,0.0,0.0,0.0,0.0,0.0,0.0,0.0,0.0,0.0,0.0,0.0,0.0,0.0,-3.4053,-3.5322,-3.6374,-3.7966,-3.9779,-4.1866,-4.3871,-4.5312,-4.5979,-4.6632,-4.7047,-4.7047,-4.6449,-4.5738,-4.4964,-4.4607,-4.4243,-4.3704,-4.3474,-4.3218,-4.3023,-4.2697,-4.2441,-4.2342,-4.2342,-4.2501,-4.2772,-4.2772,-4.2772,-4.281,-4.3032,-4.3284,-4.3416,-4.3319,-4.3429,0.0,0.0,0.0,0.0,0.0,-4.1737,-4.0772,0.0,0.0,0.0,0.0,0.0,0.0,0.0,0.7127,0.4214,0.0858,-0.1674,-0.385,-0.5639,-0.6379,-0.6934,-0.7344,-0.7529,-0.816,-0.9437,-1.2512,-1.5271,-1.7501,-1.9482,-2.1097,-2.2357,-2.3631,-2.4939,-2.6286,-2.5997,-2.6427,-2.75,-2.8142,-2.901,-3.0149,-3.1172,-3.1806,-3.2186,-3.3713,-3.3985,-3.3606,-3.5395,-3.7007,-3.8233,-3.734,-3.3869,-2.8719,-2.2411,-1.5857,-0.9413,-0.4471,0.0,0.0,0.0,0.0,0.0,0.0,0.0,0.0,0.0,0.0,0.0,0.0,0.0,0.0,0.0,0.0,0.0,0.0,0.0,0.0,0.0,0.0,0.0,0.0,-3.4801,-3.5938,-3.6507,-3.717,-3.859,-4.1342,-4.2502,-4.3591,-4.4993,-4.515,-4.5184,-4.5184,-4.4501,-4.3748,-4.2935,-4.3009,0.0,0.0,0.0,-4.1835,-4.1725,-4.1639,-4.1639,-4.1725,-4.1725,-4.1725,-4.181,-4.181,-4.181,-4.1853,-4.2342,-4.2582,-4.2551,-4.2302,-4.2142,-4.2059,-4.267,-4.2937,-4.2737,-4.1304,-4.0705,-4.0397,0.0,0.0,0.0,0.0,0.0,0.0,0.0,0.8012,0.5582,0.3502,0.1914,0.0326,-0.1372,-0.112,-0.1527,-0.3482,-0.4008,-0.6091,-1.0416,-1.4196,-1.6678,-1.7556,-1.9064,-2.0492,-2.1824,-2.3025,-2.4106,-2.4977,-2.531,-2.5925,-2.6733,-2.7052,-2.7599,-2.8309,-3.0,-3.0568,-3.0409,-3.1982,-3.2203,-3.1656,-3.3864,-3.6082,-3.787,-3.6719,-3.4618,-3.153,-2.5881,-2.0302,-1.4823,-0.9551,-0.6346,-0.4242,-0.1716,0.0836,0.0,0.0,0.0,0.0,0.0,0.0,0.0,0.0,0.0,0.0,0.0,0.0,0.0,0.0,0.0,0.0,0.0,0.0,0.0,-3.4262,-3.5818,-3.7075,-3.7225,-3.691,-3.7344,-3.9118,-4.1099,-4.2445,-4.272,-4.3755,-4.4414,-4.4414,-4.3804,-4.3136,-4.237,-4.1881,-4.1439,-4.1059,-4.07,-4.07,-4.107,-4.0625,-4.0625,-4.107,0.0,0.0,-4.181,-4.181,-4.181,-4.181,-4.1937,-4.1868,-4.1647,-4.1577,-4.1103,-4.0373,-4.0492,-4.0554,-4.0466,-3.972,-3.9055,-3.8449,0.0,0.0,0.0,0.0,0.0,0.0,0.0,0.9179,0.7503,0.5552,0.4415,0.3361,0.2335,0.261,0.2011,0.0,-0.3249,-0.6668,-1.0221,-1.4138,-1.658,-1.7002,-1.851,-1.971,-2.069,-2.1703,-2.2634,-2.3557,-2.3554,-2.4039,-2.4857,-2.5309,-2.578,-2.637,-2.8096,-2.8625,-2.8279,-2.9603,-3.0188,-3.0213,-3.0304,-3.1501,-3.3317,-3.4563,-3.3449,-3.0521,-2.5491,-2.1146,-1.7217,-1.3238,-1.0592,-0.8834,-0.7295,-0.4803,-0.237,0.0,0.0,0.0,0.0,0.0,0.0,0.0,0.0,0.0,0.0,0.0,0.0,0.0,0.0,-3.0946,-3.2867,0.0,-3.6224,-3.656,-3.7445,-3.7928,-3.7593,-3.6923,-3.702,-3.8518,-3.9425,-4.0352,-4.1543,-4.1954,-4.229,-4.2701,-4.2098,-4.1523,-4.118,-4.0832,-4.0578,-4.0514,-4.0254,-4.0254,-4.048,-4.0254,-4.0254,-4.048,-4.048,-4.0672,-4.0955,-4.0955,-4.0955,-4.092,-4.0822,-4.0742,-4.0536,-4.011,-3.9482,-3.8882,-3.8647,-3.8885,-3.9239,-3.8689,-3.8255,-3.7787,0.0,0.0,0.0,0.0,0.0,0.0,0.0,1.0792,0.9693,0.7957,0.7012,0.6329,0.5864,0.5766,0.468,0.2181,-0.3434,-0.7633,-0.9499,-1.3332,-1.5608,-1.5833,-1.7364,-1.8485,-1.9128,-1.9913,-2.0778,-2.175,-2.1386,-2.1538,-2.22,-2.274,-2.3234,-2.3759,-2.4785,-2.4587,-2.3472,-2.3848,-2.4119,-2.4144,-2.3042,-2.3301,-2.473,-2.8153,-2.8698,-2.7119,-2.275,-1.9602,-1.7202,-1.5134,-1.3346,-1.1919,-1.1768,-0.9563,-0.68,-0.552,-0.3572,0.0,0.0,0.0,0.0,0.0,0.0,0.0,0.0,-2.4181,-2.5627,-2.93,-3.127,-3.2891,-3.4781,-3.6626,-3.8083,-3.8769,-3.8731,-3.8484,-3.7996,-3.7101,-3.6863,-3.792,-3.7714,-3.8243,-4.0105,-3.9935,-3.9886,-4.0461,-3.9979,-3.9662,-3.9662,-3.9662,-3.9662,-3.9662,-3.9662,-3.9662,-3.9662,-3.9662,-3.9662,-3.9662,-3.9799,-3.985,-3.9901,-4.0003,-3.9986,-3.9867,-3.9502,-3.9361,-3.9302,-3.8496,-3.8003,-3.772,-3.736,-3.7721,-3.8368,-3.7929,-3.7685,-3.7399,0.0,0.0,0.0,0.0,0.0,0.0,0.0,0.0,1.1946,1.171,1.1034,1.0306,0.9487,0.9099,0.6789,0.1484,-0.3178,-0.6628,-0.8561,-1.21,-1.3937,-1.3622,-1.4956,-1.6158,-1.7203,-1.7888,-1.8528,-1.903,-1.8993,-1.8823,-1.8596,-1.8815,-1.9154,-1.9459,-1.8599,-1.6003,-1.2074,-1.0251,-0.7909,-0.5726,-0.8293,-0.9469,-0.9916,-1.2292,-1.6682,-2.1129,-1.8113,-1.5806,-1.4209,-1.4074,-1.3404,-1.2747,-1.4145,-1.32,-1.1472,-1.1492,-0.9476,-0.7541,-0.8467,-1.1437,-1.4896,-1.7302,-2.008,-2.3003,0.0,-2.7233,-2.8488,-3.1708,-3.3306,-3.4437,-3.5583,-3.7175,-3.8568,-3.9477,-3.8933,-3.8485,-3.858,-3.7375,-3.6364,-3.5889,-3.6381,-3.6816,-3.7062,-3.7658,-3.8091,-3.8148,-3.8084,-3.8051,-3.8051,-3.8051,-3.8051,-3.8051,-3.8051,-3.8051,-3.8051,-3.8051,-3.8051,-3.8051,-3.869,-3.9016,-3.9069,-3.9765,-3.9715,-3.9088,-3.816,-3.7759,-3.7733,-3.7474,-3.7281,-3.7285,-3.721,-3.7248,-3.736,-3.7285,-3.6981,-3.6545,0.0,0.0,0.0,0.0,0.0,0.0,0.0,0.0,0.0,1.3865,1.3145,1.2165,1.0883,0.8832,0.6423,0.3587,-0.1328,-0.4875,-0.6353,-0.9526,-1.1392,-1.1459,-1.2001,-1.2871,-1.4082,-1.41,-1.4503,-1.5449,-1.4588,-1.4226,-1.4251,-1.3483,-1.2896,-1.2434,-1.1509,-0.8827,-0.4894,-0.3597,-0.2158,-0.0851,-0.1217,-0.2144,-0.3288,-0.3156,-0.4939,-0.7604,-0.9163,-0.9498,0.0,-1.0832,-1.1427,-1.2123,-1.4396,-1.408,-1.2792,-1.2492,-1.1342,-1.0353,-1.1416,-1.3732,-1.6277,-1.8087,-2.0808,-2.3512,-2.5423,-2.6231,-2.747,-3.0685,-3.226,-3.3489,-3.4944,-3.7152,-3.8923,-3.9313,-3.9542,-3.9511,-3.88,-3.774,-3.6656,-3.5639,-3.5782,-3.6102,-3.6538,-3.6904,-3.7263,-3.7764,-3.7822,-3.7822,-3.7822,-3.7822,-3.7822,-3.7822,-3.7822,-3.7822,-3.7822,-3.7822,-3.7822,-3.7822,-3.8076,-3.8246,-3.8246,-3.821,-3.7793,-3.7102,-3.7114,-3.6972,-3.679,-3.5987,-3.5804,-3.6007,-3.5312,-3.4782,-3.4651,-3.6157,-3.6347,-3.5761,0.0,0.0,0.0,0.0,0.0,0.0,0.0,0.0,0.0,0.0,1.4764,1.3549,1.1554,0.8753,0.6362,0.487,0.0842,-0.236,-0.4131,-0.6316,-0.7855,-0.8585,-0.8593,-0.9072,-1.0086,-0.9751,-0.9879,-1.0614,-0.9351,-0.8707,-0.8671,-0.7575,-0.6411,-0.5178,-0.3738,-0.0636,0.3572,0.5533,0.6842,0.7639,0.8531,0.7379,0.5224,0.5445,0.5325,0.4385,-0.0909,-0.3256,-0.4181,-0.6128,-0.7765,-0.9378,-1.212,-1.2682,-1.235,-1.2608,-1.2457,-1.2456,-1.3582,-1.5248,-1.7151,-1.895,-2.1103,-2.3144,-2.4344,-2.4975,-2.6046,-2.899,-3.0941,-3.2592,-3.3939,-3.6554,-3.8664,-3.9038,-3.9526,-3.9581,-3.8831,-3.7831,-3.6746,-3.5639,-3.5519,-3.5589,-3.5852,-3.6134,-3.6508,-3.7115,-3.7175,-3.7175,-3.7175,-3.7175,-3.7175,-3.7175,-3.7175,-3.7175,-3.7175,-3.7175,-3.7175,-3.7175,-3.7354,-3.7345,-3.7181,-3.6518,-3.5937,-3.548,-3.5759,-3.5698,-3.528,-3.4376,-3.4129,-3.4202,-3.3268,-3.263,-3.2492,-3.4577,-3.4925,-3.4318,0.0,0.0,0.0,0.0,0.0,0.0,0.0,0.0,0.0,0.0,0.0,0.0,0.0,0.9973,0.7572,0.4165,0.2935,0.1046,-0.2061,-0.2516,-0.3198,-0.4525,-0.4502,-0.47,-0.5123,-0.5078,-0.4785,-0.4107,-0.3313,-0.2387,-0.1334,-0.1284,-0.0287,0.154,0.4813,0.9503,1.5242,2.0383,2.3786,2.5519,2.4524,2.2178,1.8893,1.5276,1.3518,1.1985,0.5039,0.2022,0.1078,-0.0078,-0.1789,-0.3832,-0.6703,-0.8617,-1.0228,-1.2684,-1.3693,-1.432,-1.5147,-1.6764,-1.8549,-2.0336,-2.132,-2.2263,-2.3847,-2.4531,-2.5431,-2.7149,-3.0318,-3.2792,-3.2902,-3.5243,-3.7591,-3.8911,-3.8399,-3.8018,-3.8635,-3.7436,-3.6267,-3.5579,-3.5519,-3.5133,-3.4148,-3.4971,-3.5554,-3.5554,-3.5554,-3.5554,-3.5554,-3.5554,-3.5554,-3.5554,-3.5554,-3.5554,-3.5554,-3.5554,-3.5554,-3.5554,-3.629,-3.6319,-3.5636,-3.4999,-3.4739,-3.4675,-3.4021,-3.3315,-3.2723,-3.269,-3.2273,-3.1709,-3.1677,-3.163,-3.1726,-3.2465,-3.2273,-3.1694,0.0,0.0,0.0,0.0,0.0,0.0,0.0,0.0,0.0,0.0,0.0,0.0,0.0,0.0,0.0,0.0,0.5552,0.3908,0.286,0.1121,-0.0061,-0.0582,-0.0624,-0.0719,-0.0971,0.0,0.0957,0.1953,0.3187,0.4365,0.5527,0.7309,0.8955,1.0603,1.3628,1.7683,2.2327,2.5039,2.7767,3.0109,2.8059,2.6287,2.4418,2.0429,1.7986,1.6149,0.0,0.8049,0.5196,0.2777,0.0689,-0.1511,-0.5205,-0.6565,-0.7509,-1.0743,-1.3117,-1.4754,-1.4823,-1.6615,-1.8493,-1.8685,-1.977,-2.0874,-2.169,-2.196,-2.2613,-2.4203,-2.5747,-2.7392,-2.9183,-3.1647,-3.4233,-3.69,-3.7978,-3.8614,-3.9094,-3.8127,-3.6807,-3.5361,-3.4507,-3.3847,-3.3143,-3.3973,-3.4476,-3.4476,-3.3905,-3.4109,-3.5424,-3.4839,-3.4839,-3.5489,-3.5519,-3.5519,-3.5519,-3.5519,-3.5519,-3.5489,-3.5329,-3.4607,-3.3516,-3.3401,-3.3043,-3.2625,-3.236,-3.216,-3.1903,-3.1422,-3.1101,-3.0844,-3.0316,-3.0164,-3.0221,-3.0441,-3.0441,-3.0412,0.0,0.0,0.0,0.0,0.0,0.0,0.0,0.0,0.0,0.0,0.0,0.0,0.0,0.0,0.0,0.0,0.0,0.7321,0.6669,0.5344,0.4296,0.3623,0.4116,0.4337,0.4193,0.5862,0.7234,0.8204,0.9665,1.093,1.215,1.3687,1.5566,1.7734,1.9822,2.2922,2.6749,2.8805,3.0659,3.2129,3.1038,2.9517,2.7496,2.3794,2.0824,0.0,1.4369,1.0472,0.679,0.439,0.2067,-0.0532,-0.4115,-0.6266,-0.7771,-1.0137,-1.2461,-1.433,-1.4979,-1.6425,-1.7715,-1.7613,-1.8145,-1.8624,-1.8327,-1.8461,-1.9085,-2.054,-2.1702,-2.3364,-2.6123,-2.8796,-3.1505,-3.4126,-3.6081,-3.7409,-3.7564,-3.6876,-3.5804,-3.4583,-3.3673,-3.29,-3.2445,-3.2731,-3.3157,-3.3463,-3.3099,-3.3339,-3.4438,-3.3808,-3.3808,-3.4409,-3.4476,-3.4476,-3.4476,-3.4476,-3.4522,-3.4646,-3.4077,-3.3335,-3.2497,-3.2053,-3.1603,-3.1198,-3.099,-3.0723,-3.0472,-3.0033,-2.9688,-2.9406,-2.8652,-2.8388,-2.8414,-2.8368,-2.8532,-2.8961,0.0,0.0,0.0,0.0,0.0,0.0,0.0,0.0,0.0,0.0,0.0,0.0,0.0,0.0,0.0,0.0,0.0,0.0,0.9487,0.9993,0.9715,0.8109,0.9435,1.0272,1.0243,1.2359,1.377,1.4633,1.5849,1.7119,1.8267,1.7848,1.9449,2.2827,2.3519,2.5589,2.8767,3.2047,3.2903,3.2256,3.3671,3.2124,2.8672,2.5552,2.2145,1.8402,1.3742,0.9595,0.6132,0.4876,0.2317,-0.0851,-0.3676,-0.7358,-1.0658,-1.0971,-1.1942,-1.3443,-1.5565,-1.6174,-1.6413,-1.7098,-1.663,-1.5628,-1.435,-1.433,-1.4896,-1.6242,-1.8213,-2.064,-2.3496,-2.6615,-2.9276,-3.1016,-3.3209,-3.4633,-3.4596,-3.4029,-3.3615,-3.3413,-3.2863,-3.2291,-3.1856,-3.136,-3.1415,-3.2307,-3.29,-3.3056,-3.2621,-3.2522,-3.2522,-3.2593,-3.2593,-3.2593,-3.2566,-3.251,-3.2653,-3.2967,-3.2514,-3.2348,-3.2229,-3.0947,-3.0321,-3.0261,-2.9635,-2.9009,-2.8442,-2.8442,-2.8055,-2.7467,-2.6736,-2.6529,-2.6565,-2.6498,-2.6796,-2.7527,0.0,0.0,0.0,0.0,0.0,0.0,0.0,0.0,0.0,0.0,0.0,0.0,0.0,0.0,0.0,0.0,0.0,0.0,1.3012,1.3124,1.3024,1.2437,1.3812,1.4749,1.5205,1.6796,1.8432,2.0016,2.0369,2.113,2.2232,2.2999,2.4029,2.5412,2.6717,2.8557,3.0698,3.1881,3.2922,3.3713,3.2705,3.1585,2.9999,2.5706,2.2225,1.8903,1.3212,0.9096,0.5891,0.3193,-0.0769,-0.4876,-0.6352,-0.8808,-1.1082,-1.1153,-1.3041,-1.5072,-1.4769,-1.506,-1.5287,-1.4654,-1.3602,-1.2597,-1.1618,-1.1302,-1.1363,-1.1924,-1.2748,-1.4625,-1.8501,-2.1699,-2.5378,-3.0505,-3.2867,-3.4699,-3.6743,-3.5574,-3.4152,-3.3192,-3.1914,-3.0597,-2.9253,-2.9291,-2.945,-2.9241,-3.019,-3.1277,-3.255,-3.1947,-3.1901,-3.2593,-3.2593,-3.2372,-3.2,-3.1625,-3.1232,-3.0779,-3.07,-3.0205,-2.927,-2.8446,-2.7824,-2.7428,-2.6749,-2.6382,-2.624,-2.624,-2.6355,-2.6525,-2.591,-2.644,-2.7551,-2.7128,-2.7621,-2.854,0.0,0.0,0.0,0.0,0.0,0.0,0.0,0.0,0.0,0.0,0.0,0.0,0.0,0.0,0.0,0.0,0.0,0.0,0.0,1.6523,1.6574,1.6816,1.7882,1.8797,1.9454,2.1121,2.241,2.3181,2.3759,2.4353,2.4878,2.5307,2.6077,2.7217,2.8103,2.9522,3.1255,3.224,3.2862,0.0,0.0,3.1079,2.8967,2.5073,2.1284,1.7287,1.1661,0.6666,0.2301,-0.0971,-0.4649,-0.8077,-0.9262,-1.0751,-1.2048,-1.179,-1.2883,-1.3964,-1.3053,-1.3133,-1.303,-1.1318,-1.0505,-0.9639,-0.797,-0.7432,-0.7492,-0.835,-0.9028,-1.0669,-1.4235,-1.8349,-2.2516,-2.6636,-3.0103,-3.2884,-3.465,-3.3341,-3.2041,-3.1605,-2.991,-2.8536,-2.7789,-2.7836,-2.7836,-2.7789,-2.8787,-2.9955,-3.1267,-3.0846,-3.0846,-3.1341,-3.1341,-3.1123,-3.0538,-3.0077,-2.9644,-2.898,-2.916,-2.874,-2.7769,-2.7128,-2.6685,-2.6382,0.0,-2.5412,-2.5412,-2.5412,-2.5714,-2.6153,-2.5537,-2.5986,-2.6977,-2.6374,-2.6605,-2.7083,0.0,0.0,0.0,0.0,0.0,0.0,0.0,0.0,0.0,0.0,0.0,0.0,0.0,0.0,0.0,0.0,0.0,0.0,0.0,0.0,1.9982,2.0677,2.1574,2.2372,2.3097,2.4906,2.5604,2.5072,2.6179,2.6633,2.6565,2.6089,2.6734,2.8347,2.8478,2.9419,3.0992,3.2511,3.2442,3.1418,3.2051,3.0093,2.648,0.0,1.9589,1.4834,0.9677,0.3981,-0.1607,-0.4903,-0.756,-0.9764,-1.1344,-1.2273,-1.2756,-1.2204,-1.1916,-1.1595,-1.0994,-1.08,-1.0168,-0.7801,-0.7167,-0.6541,-0.4016,-0.332,-0.3704,-0.5142,-0.6026,-0.7429,-1.0514,-1.5389,-1.9515,-2.1392,-2.5854,-2.9481,-3.0461,-2.9402,-2.8774,-2.9437,-2.7759,-2.664,-2.6897,-2.6563,-2.6496,-2.6897,-2.7842,-2.8664,-2.9312,-2.9365,-2.9341,-2.9266,-2.9192,-2.8895,-2.8325,-2.7997,-2.7592,-2.7074,-2.737,-2.7128,-2.6484,-2.6081,-2.5895,-2.5785,-2.5268,-2.516,-2.5186,-2.5046,-2.5395,-2.5873,-2.5014,-2.5071,-2.5486,-2.4778,-2.4567,-2.4542,0.0,0.0,0.0,0.0,0.0,0.0,0.0,0.0,0.0,0.0,1.8762,1.8415,0.0,0.0,0.0,0.0,0.0,0.0,0.0,0.0,0.0,2.2521,2.394,2.5053,2.5806,2.6733,2.717,2.713,2.735,2.74,2.7379,2.728,2.7704,2.8467,2.8989,2.9868,3.092,3.1215,3.0847,3.0013,2.8842,2.65,2.3397,2.078,0.0,0.0,0.9048,0.4637,0.0793,-0.1701,-0.4655,-0.762,-0.9876,-1.0706,-1.0867,-1.0768,-1.0758,-1.0595,-0.9482,-0.8493,-0.7217,-0.4871,-0.3584,-0.2536,-0.1072,0.0097,0.0097,-0.2243,-0.2041,-0.2612,-0.6294,-0.9867,-1.355,-1.7639,-2.0741,-2.4146,-2.8168,-2.7377,-2.6911,-2.8068,-2.7234,-2.6174,-2.5317,-2.5168,-2.5168,-2.5232,-2.5401,-2.5968,-2.6976,-2.7058,-2.6852,-2.6519,-2.6106,-2.557,-2.5119,-2.4572,-2.4163,-2.3746,-2.3793,-2.33,-2.245,-2.3047,-2.3095,-2.2714,-2.3271,0.0,-2.4198,-2.338,-2.3628,-2.4414,-2.3021,-2.3075,-2.3835,-2.3303,-2.3347,-2.3621,0.0,0.0,0.0,0.0,0.0,0.0,0.0,0.0,1.9393,1.9691,2.0512,2.0753,1.9804,2.027,0.0,0.0,0.0,0.0,0.0,0.0,0.0,0.0,2.5826,2.6651,2.7049,2.7765,2.7919,2.761,0.0,2.7919,2.761,2.761,2.776,2.8076,2.8996,2.9685,3.0136,3.0427,2.9995,2.8894,2.7489,2.4972,2.1858,0.0,0.0,0.0,0.9112,0.6104,0.3383,0.1554,-0.0544,-0.3197,-0.8147,-0.9233,-0.8528,-0.7975,-0.7864,-0.7307,-0.4676,-0.4193,-0.3591,-0.0287,0.0389,0.0686,0.2498,0.2994,0.2624,0.1253,0.0388,-0.0684,-0.2556,-0.7069,-1.134,-1.3766,-1.7887,-2.204,-2.5411,-2.5277,-2.5331,-2.6931,-2.57,-2.4553,-2.3973,-2.3887,-2.3887,-2.3887,-2.3887,-2.4638,-2.64,-2.6237,-2.6071,-2.5824,-2.5004,-2.4489,-2.4318,-2.3576,-2.2969,-2.2405,-2.2228,-2.1711,-2.1014,-2.1403,-2.1458,-2.1227,-2.1604,-2.1957,-2.2218,-2.1939,-2.2271,-2.3029,-2.2498,-2.2804,-2.3481,-2.3184,-2.3072,-2.3028,0.0,0.0,0.0,0.0,0.0,0.0,0.0,1.8993,1.9916,2.0347,2.2016,2.2941,2.2356,2.1786,2.2069,0.0,0.0,0.0,0.0,0.0,0.0,0.0,0.0,0.0,2.759,0.0,0.0,2.7799,2.8487,0.0,0.0,0.0,0.0,0.0,2.8779,2.9225,2.9225,2.9553,2.8884,0.0,0.0,2.3796,2.0646,0.0,0.0,0.0,0.0,0.8807,0.67,0.5296,0.4085,0.2102,-0.4154,-0.5807,-0.5309,-0.4551,-0.417,-0.3319,0.0282,0.0382,0.0484,0.445,0.4328,0.3854,0.5978,0.5656,0.4663,0.4281,0.2404,0.0784,0.0497,-0.4595,-0.8999,-0.9936,-1.4618,-1.9205,-2.2425,-2.2456,-2.3032,-2.53,-2.3691,-2.241,-2.2334,-2.2315,-2.2315,-2.2315,-2.224,-2.3209,-2.55,-2.5207,-2.488,-2.4792,-2.405,-2.3591,-2.3504,-2.2483,-2.1739,-2.1424,-2.0787,-2.0333,-2.0074,-2.0268,-2.0333,-2.0333,-2.0526,-2.0702,0.0,-2.1041,-2.1413,-2.2033,-2.2215,-2.2513,-2.2861,-2.2861,-2.2622,-2.2223,0.0,0.0,0.0,0.0,0.0,0.0,0.0,1.9846,2.1196,2.1241,2.3197,2.4778,2.5186,2.4698,2.4514,0.0,0.0,0.0,0.0,0.0,0.0,0.0,0.0,0.0,0.0,0.0,0.0,2.8517,2.9175,0.0,0.0,0.0,0.0,0.0,0.0,2.8606,2.8559,2.7936,0.0,0.0,0.0,0.0,0.0,0.0,0.0,0.0,0.0,1.351,1.1872,0.985,0.8721,0.7735,0.516,0.2047,-0.0656,-0.0563,-0.0281,0.047,0.3155,0.3751,0.4542,0.8452,0.8441,0.77,0.8893,0.8233,0.7081,0.568,0.4323,0.3128,0.2057,-0.0696,-0.3714,-0.6393,-0.8392,-1.1922,-1.8725,-1.8335,-1.8701,-2.2474,-2.1351,-2.0121,-1.9894,-1.9861,-1.9861,-1.9861,-1.9647,-2.043,-2.2729,-2.2482,-2.2066,-2.1669,-2.151,-2.1332,-2.0936,-1.9583,-1.9145,-1.9568,-1.8237,-1.782,-1.8279,-1.9044,-1.9441,-1.9441,-2.0268,-2.1083,0.0,-2.1011,-2.1186,-2.1912,-2.1084,-2.0817,-2.0857,-2.0857,-2.0837,-2.0797,0.0,0.0,0.0,0.0,0.0,0.0,0.0,2.029,2.1686,2.2538,2.4188,2.5511,2.6063,2.5937,2.5812,0.0,0.0,0.0,0.0,0.0,0.0,0.0,0.0,0.0,0.0,0.0,2.9445,2.9175,2.9445,0.0,0.0,0.0,0.0,0.0,0.0,2.8609,2.7788,2.6988,0.0,0.0,0.0,0.0,0.0,0.0,0.0,0.0,0.0,0.0,1.5196,1.4411,1.303,1.1351,1.06,0.8893,0.6732,0.5139,0.4665,0.5284,0.8279,0.9127,0.9722,1.2203,1.1766,1.1002,1.1993,1.0674,0.896,0.8189,0.7118,0.5645,0.3574,0.0998,-0.1703,-0.4503,-0.7415,-1.0699,-1.4664,-1.5719,-1.6992,-1.9652,-1.9082,-1.8751,-1.9405,-1.9497,-1.9497,-1.9497,-1.8952,-1.9073,-1.9936,-1.9751,-1.9466,-1.9306,-1.8993,-1.8798,-1.8638,-1.7614,-1.7214,-1.7432,-1.6451,-1.6086,-1.6298,-1.6697,-1.7111,-1.7677,-1.8065,-1.8738,0.0,-1.9758,-1.9673,-1.941,-1.9559,-1.9195,-1.8621,-1.8621,-1.8621,-1.8621,0.0,0.0,0.0,0.0,0.0,1.8866,1.9431,2.1307,2.2987,2.399,2.5328,2.6391,2.6799,2.6797,2.6716,2.6716,0.0,0.0,0.0,0.0,0.0,0.0,0.0,0.0,0.0,0.0,3.0073,2.9864,3.0073,3.0163,0.0,0.0,2.9594,2.9146,0.0,0.0,0.0,0.0,0.0,0.0,0.0,0.0,0.0,0.0,0.0,0.0,0.0,0.0,0.0,0.0,0.0,1.4856,1.5137,1.446,1.3101,0.9881,0.9148,0.9956,1.2683,1.3693,1.4509,1.6012,1.5011,1.39,1.4975,1.2802,1.0529,1.0323,0.9057,0.7298,0.5014,0.2406,-0.0301,-0.3007,-0.608,-0.9174,-1.2132,-1.3819,-1.5338,-1.6922,-1.7079,-1.7124,-1.7238,-1.7609,-1.781,-1.781,-1.7206,-1.6725,-1.636,-1.5963,-1.6431,-1.7714,-1.7466,-1.7284,-1.7169,-1.6231,-1.5875,-1.6063,-1.5162,-1.4871,-1.5226,-1.5226,-1.5525,-1.6175,-1.6263,-1.674,0.0,-1.8266,-1.817,-1.7646,-1.8268,-1.798,-1.7334,-1.7334,-1.7334,-1.7334,0.0,0.0,0.0,0.0,0.0,0.0,0.0,2.3199,2.5567,2.5567,2.6789,2.767,2.767,2.7472,2.7268,2.7268,0.0,0.0,0.0,0.0,0.0,0.0,0.0,0.0,0.0,0.0,3.118,3.0492,3.118,3.1452,3.1452,3.0821,3.0492,3.0376,0.0,0.0,0.0,0.0,0.0,0.0,0.0,0.0,0.0,0.0,0.0,0.0,0.0,0.0,0.0,0.0,0.0,0.0,0.0,1.8792,1.7589,1.3008,1.2669,1.4064,1.5334,1.6848,1.8407,1.9727,1.8183,1.6663,1.765,1.4721,1.1783,1.1552,0.9631,0.7595,0.6226,0.382,0.1105,-0.16,-0.3207,-0.6022,-1.1727,-1.2422,-1.295,-1.4252,-1.5511,-1.5155,-1.2262,-1.3199,-1.3968,-1.3968,-1.3495,-1.2655,-1.1466,-1.0947,-1.2723,-1.7172,-1.7334,-1.7152,-1.6929,-1.5498,-1.5156,-1.5773,-1.4398,-1.4243,-1.5226,-1.5226,-1.5242,-1.5259,-1.5534,-1.5807,0.0,-1.6608,-1.6987,-1.7334,-1.7334,-1.7334,-1.7334,-1.7334,-1.7334,-1.7334,0.0,0.0,0.0,0.0,0.0,0.0,0.0,2.4591,2.579,2.6427,2.7236,2.7628,2.7429,2.7379,2.7855,2.9243,0.0,0.0,0.0,0.0,0.0,0.0,0.0,0.0,0.0,0.0,3.0601,3.0338,2.9972,3.0086,3.0629,2.9857,2.9543,2.961,2.7686,2.631,0.0,0.0,0.0,0.0,0.0,0.0,1.9177,0.0,0.0,0.0,0.0,0.0,0.0,0.0,0.0,0.0,0.0,0.0,0.0,1.7246,1.7264,1.7629,1.838,1.9629,2.0712,2.0417,1.8907,1.7743,1.7918,1.553,1.2984,1.1945,1.1201,0.9674,0.662,0.4522,0.2509,-0.02,-0.2498,-0.4901,-0.764,-0.8944,-0.9979,-1.1246,-1.252,-1.2899,-1.195,-1.2231,-1.2522,-1.2522,-1.2236,-1.1806,-1.1293,-1.091,-1.1369,-1.2723,-1.2612,-1.256,-1.2474,-1.1726,-1.1385,-1.1597,-1.1727,-1.1883,-1.2164,-1.2164,-1.3022,-1.4452,-1.3843,-1.4517,-1.6109,-1.6546,-1.6381,-1.5802,-1.6098,-1.5794,-1.4977,-1.4183,-1.3917,-1.3736,0.0,0.0,0.0,0.0,0.0,0.0,0.0,2.6129,2.7103,2.7632,2.8141,2.8319,2.7824,2.7835,2.8609,3.0224,0.0,0.0,0.0,0.0,0.0,0.0,0.0,0.0,0.0,3.0569,3.0262,3.012,2.9904,2.9904,3.012,2.9904,2.9414,2.8586,2.6823,2.538,0.0,0.0,0.0,0.0,0.0,0.0,1.8807,0.0,0.0,0.0,0.0,0.0,0.0,0.0,0.0,0.0,0.0,0.0,0.0,0.0,2.041,2.0607,2.0429,2.1514,2.2447,2.1268,1.9968,1.8832,1.8243,1.6293,1.4076,1.2242,1.195,1.0867,0.7422,0.5222,0.331,0.1101,-0.15,-0.3714,-0.5069,-0.694,-0.8881,-1.06,-1.0699,-1.0861,-1.1765,-1.1463,-1.117,-1.117,-1.0962,-1.0566,-0.9917,-0.9631,-0.9429,-0.9314,-1.0047,-1.0406,-1.0233,-0.9958,-0.9665,-0.9581,-1.0035,-1.0271,-1.0271,-1.0284,-1.1082,-1.24,-1.1973,-1.2542,0.0,-1.4223,-1.4036,-1.3417,-1.3684,-1.3341,-1.2687,-1.1906,-1.1638,-1.1552,0.0,0.0,0.0,0.0,0.0,0.0,0.0,0.0,0.0,2.9002,2.9463,2.9454,2.8539,2.8758,2.93,3.0355,0.0,0.0,0.0,0.0,0.0,0.0,0.0,0.0,0.0,3.0266,3.0058,2.9772,3.0588,3.0588,2.9772,3.0467,2.96,2.742,2.582,2.4565,0.0,0.0,0.0,0.0,0.0,0.0,0.0,0.0,0.0,0.0,0.0,0.0,0.0,0.0,0.0,0.0,0.0,0.0,0.0,0.0,0.0,0.0,0.0,2.249,2.3371,2.2263,2.094,1.9617,1.8499,1.6961,0.0,1.2436,1.195,1.1072,0.8528,0.5822,0.361,0.2302,-0.01,-0.233,-0.3708,-0.6164,-0.8809,-1.1372,-0.9462,-0.8888,-1.1072,-1.028,-0.96,-0.96,-0.9437,-0.8798,-0.7429,-0.7191,-0.7041,-0.689,-0.8965,-0.996,-0.9705,-0.9676,-0.9468,-0.9074,-0.916,-0.9246,-0.918,-0.9378,-0.9488,0.0,-0.9935,-1.0124,0.0,-1.0525,-1.0605,-1.0605,-1.0605,-1.0605,-1.0605,-1.0529,-1.0443,-1.0443,0.0,0.0,0.0,0.0,0.0,0.0,0.0,0.0,0.0,0.0,2.9463,2.9416,2.8324,2.8646,2.9452,0.0,0.0,0.0,0.0,0.0,0.0,0.0,0.0,0.0,0.0,2.96,2.9107,2.9518,2.9031,2.9031,2.9449,2.7812,2.7087,2.705,2.4112,2.1786,0.0,0.0,0.0,0.0,0.0,0.0,0.0,0.0,0.0,0.0,1.703,1.7311,0.0,0.0,0.0,0.0,0.0,0.0,0.0,0.0,2.212,2.3057,2.2775,0.0,2.1805,2.1536,1.9812,1.8163,0.0,1.6805,1.5057,1.2436,1.195,1.1072,0.8528,0.5822,0.3914,0.361,0.1307,-0.0913,-0.227,-0.392,-0.5279,-0.5974,-0.544,-0.524,-0.5807,-0.5608,-0.5409,-0.5409,-0.5386,-0.5138,-0.476,-0.4668,-0.4572,-0.4389,-0.4938,-0.5924,-0.7432,-0.7384,-0.7217,-0.7026,-0.7922,-0.8295,-0.8304,-0.8417,-0.9073,-0.9965,-0.9321,0.0,-1.0535,-1.0585,-1.0605,-1.0605,-1.0605,-1.0605,-1.0519,-0.9575,-0.9323,-0.9061,0.0,0.0,0.0,0.0,0.0,0.0,0.0,0.0,0.0,0.0,0.0,0.0,0.0,0.0,0.0,0.0,0.0,0.0,0.0,0.0,0.0,0.0,0.0,0.0,3.0301,2.9361,2.8987,2.9181,2.9181,2.8809,2.8142,2.7458,2.6286,2.4626,2.1983,1.9912,0.0,0.0,0.0,0.0,1.6211,0.0,0.0,0.0,0.0,0.0,1.6021,1.6197,0.0,1.6008,1.6197,1.6763,0.0,0.0,0.0,0.0,2.1747,2.2315,2.2315,2.1765,2.1159,2.0793,1.9168,1.7636,1.7137,1.5899,1.4364,1.2339,1.1463,1.019,0.7528,0.5422,0.3817,0.3215,0.1319,-0.0514,-0.1882,-0.2722,-0.3453,-0.4086,-0.4119,-0.4055,-0.4021,-0.4014,-0.4014,-0.4014,-0.4014,-0.3983,-0.3814,-0.3837,-0.3762,-0.3592,-0.3609,-0.413,-0.5104,-0.5069,-0.4955,-0.4846,-0.545,-0.6045,-0.6617,-0.6675,-0.7498,-0.87,-0.8273,0.0,-0.8973,-0.9059,-0.9042,-0.8965,-0.8424,-0.8249,-0.8074,-0.6933,-0.6492,-0.6316,0.0,0.0,0.0,0.0,0.0,0.0,0.0,0.0,0.0,0.0,0.0,0.0,0.0,0.0,0.0,0.0,0.0,0.0,0.0,0.0,0.0,0.0,0.0,2.987,2.9274,2.899,2.8791,2.8799,2.9599,2.8948,2.6852,2.7824,2.6019,2.1783,1.9993,1.868,0.0,0.0,0.0,0.0,1.5444,0.0,0.0,0.0,0.0,0.0,0.0,0.0,0.0,1.6103,1.6936,1.7963,1.7963,0.0,0.0,0.0,0.0,0.0,2.0729,2.0314,1.9779,1.9394,1.8036,1.6616,1.5835,1.4534,1.3199,1.1853,1.0574,0.8909,0.6448,0.473,0.3318,0.2223,0.0926,-0.0419,-0.1705,-0.1811,-0.2326,-0.3431,-0.3509,-0.3477,-0.3422,-0.3416,-0.3416,-0.3416,-0.3416,-0.339,-0.3231,-0.3263,-0.3199,-0.304,-0.3069,-0.3011,-0.2788,-0.315,-0.3247,-0.3092,-0.3102,-0.3679,-0.4671,-0.4794,-0.5415,-0.6393,0.0,0.0,-0.6554,-0.6762,-0.6731,-0.6511,-0.5536,-0.5092,-0.4999,-0.4016,-0.3571,-0.3568,0.0,0.0,0.0,0.0,0.0,0.0,0.0,0.0,0.0,0.0,0.0,0.0,0.0,0.0,0.0,0.0,0.0,0.0,0.0,0.0,0.0,0.0,2.8791,2.8268,2.8599,2.7032,2.6869,2.8227,2.8361,2.8234,2.7846,2.6734,2.4508,2.1213,1.9358,1.8244,1.7676,0.0,0.0,0.0,1.5658,0.0,0.0,0.0,0.0,0.0,0.0,0.0,0.0,1.7404,1.8226,1.9222,1.9222,0.0,0.0,0.0,0.0,0.0,1.8087,1.5721,1.3808,1.5858,1.453,1.2727,1.2575,1.236,1.1853,1.0583,0.919,0.7832,0.6251,0.396,0.2225,0.2055,0.0839,-0.0107,-0.0326,-0.0323,-0.0426,-0.0637,-0.062,-0.0607,-0.0605,-0.0605,-0.0605,-0.0605,-0.0605,-0.06,-0.0589,-0.0578,-0.0566,-0.0555,-0.0544,-0.0538,-0.0536,-0.2442,-0.3323,-0.3084,-0.3228,-0.3343,-0.3521,-0.376,-0.3923,-0.4108,0.0,-0.42,-0.4124,-0.4135,-0.4184,-0.4105,-0.3927,-0.3838,-0.3838,-0.366,-0.3571,-0.3482,0.0,0.0,0.0,0.0,0.0,0.0,0.0,0.0,0.0,0.0,0.0,0.0,0.0,0.0,0.0,0.0,0.0,0.0,0.0,0.0,0.0,2.6887,2.5753,2.5538,2.6382,2.6219,2.611,2.6244,2.7475,2.7702,2.6863,2.5325,2.3227,2.0876,1.9333,1.8169,1.727,1.6077,0.0,0.0,0.0,0.0,0.0,0.0,0.0,0.0,0.0,0.0,0.0,0.0,1.9497,2.0387,1.9679,0.0,0.0,0.0,0.0,0.0,1.4841,1.2124,0.9838,1.0362,1.0128,0.9776,0.9991,0.9376,0.8508,0.7942,0.6793,0.5467,0.4133,0.2876,0.1754,0.1062,0.0427,0.0,0.0,0.0,0.0,0.0,0.0,0.0,0.0,0.0,0.0,0.0,0.0,0.0,0.0,0.0,0.0,0.0,0.0,0.0,0.0,-0.1067,-0.1486,-0.1453,-0.1469,-0.1832,-0.2471,-0.2608,-0.3009,-0.3592,0.0,-0.369,-0.3626,-0.3667,-0.3639,-0.3571,-0.2858,-0.2591,-0.2502,-0.1161,-0.0714,-0.0535,0.0,0.0,0.0,0.0,0.0,0.0,0.0,0.0,0.0,0.0,0.0,0.0,0.0,0.0,0.0,0.0,0.0,0.0,0.0,0.0,2.6943,2.4366,2.3169,2.2891,2.373,2.4513,2.4682,2.4196,2.6266,2.6806,2.5901,2.4476,2.2689,2.0638,1.9478,1.8213,1.6919,1.6154,1.5832,0.0,0.0,0.0,0.0,0.0,0.0,0.0,0.0,0.0,0.0,0.0,0.0,0.0,0.0,0.0,0.0,1.7335,1.5376,1.3481,1.1414,0.8773,0.6311,0.5313,0.6056,0.7039,0.7298,0.6404,0.5573,0.5495,0.471,0.3616,0.2206,0.1985,0.1576,0.0215,0.0322,0.0426,0.0,0.0,0.0,0.0,0.0304,0.0504,0.0504,0.0706,0.0907,0.0907,0.0907,0.0898,0.0877,0.0864,0.0847,0.0826,0.0814,0.0808,0.0808,0.0538,0.0267,0.0,0.0,-0.0445,-0.1353,-0.136,-0.1929,-0.2803,-0.2883,-0.2851,-0.2721,-0.2843,-0.2638,-0.2232,-0.1341,-0.0805,-0.0268,0.1519,0.2236,0.2325,0.0,0.0,0.0,0.0,0.0,0.0,0.0,0.0,0.0,0.0,0.0,0.0,0.0,0.0,0.0,0.0,0.0,0.0,0.0,0.0,2.664,2.3229,2.1858,2.1207,2.1386,2.0515,2.1069,2.3142,2.4281,2.5395,2.6416,2.5292,2.3268,2.0638,1.9838,1.8541,1.6919,1.6154,1.5832,1.5832,0.0,0.0,0.0,0.0,0.0,0.0,0.0,0.0,0.0,0.0,0.0,0.0,0.0,0.0,1.5806,1.4444,1.1463,0.847,0.8371,0.5435,0.2426,0.2286,0.3273,0.424,0.4263,0.4186,0.4098,0.4173,0.411,0.3697,0.2283,0.2145,0.1692,0.0209,0.1159,0.1596,0.0213,0.0,0.0,0.0,0.112,0.1811,0.1811,0.3015,0.3717,0.3717,0.3717,0.3657,0.3528,0.3515,0.3449,0.3314,0.3307,0.3304,0.3304,0.2236,0.1075,0.0,0.0,0.0,-0.0092,-0.0094,-0.0192,-0.0293,-0.0288,-0.0285,-0.0284,-0.0279,0.0365,0.1431,0.1521,0.2234,0.3212,0.339,0.3482,0.3482,0.0,0.0,0.0,0.0,0.0,0.0,0.0,0.0,0.0,0.0,0.0,0.0,0.0,0.0,0.0,0.0,0.0,0.0,0.0,0.0,2.3725,2.098,1.9595,1.8577,1.778,1.8134,1.9472,2.1776,2.5123,2.664,2.6483,2.5209,2.2957,1.9928,1.8808,1.7609,1.6206,1.5967,1.5832,1.5832,1.6669,0.0,0.0,0.0,0.0,0.0,0.0,0.0,0.0,0.0,1.9884,1.8653,1.6901,1.5497,1.4076,1.1996,0.9853,0.7588,0.6006,0.3814,0.1805,0.095,0.1153,0.1485,0.1471,0.1482,0.1472,0.147,0.2254,0.2785,0.2268,0.139,0.0638,0.0106,0.1166,0.1906,0.1363,0.1975,0.2472,0.2443,0.2927,0.3215,0.3215,0.3717,0.4014,0.4014,0.4014,0.3973,0.3971,0.3964,0.3915,0.3807,0.3758,0.373,0.373,0.3147,0.2698,0.2372,0.0736,0.0,0.0,0.0,0.0481,0.1272,0.1248,0.1701,0.233,0.2405,0.2549,0.2948,0.2948,0.3267,0.3885,0.4508,0.4773,0.4908,0.0,0.0,0.0,0.0,0.0,0.0,0.0,0.0,0.0,0.0,0.0,0.0,0.0,0.0,0.0,0.0,0.0,0.0,2.5414,2.3839,2.1762,1.9039,1.8103,1.7282,1.6386,1.7457,1.9027,2.1121,2.55,2.7012,2.5898,2.4661,2.2233,1.8856,1.8056,1.6951,1.5832,1.6197,1.6386,1.648,1.7762,1.8226,0.0,0.0,0.0,0.0,0.0,0.0,0.0,0.0,1.8394,1.6607,1.4564,1.3335,1.218,0.9985,0.8137,0.6358,0.4452,0.2686,0.1162,0.0213,0.0,0.0108,0.0682,0.0346,0.0116,0.0578,0.1825,0.2785,0.2784,0.2328,0.1789,0.1361,0.2414,0.3137,0.2671,0.338,0.3974,0.4021,0.4418,0.4618,0.4618,0.5018,0.5218,0.5218,0.5218,0.5277,0.5183,0.5178,0.5133,0.5128,0.5055,0.5018,0.5018,0.4493,0.4306,0.437,0.2249,0.1233,0.1248,0.1248,0.1741,0.2538,0.2571,0.2989,0.3776,0.3776,0.4032,0.4369,0.4732,0.5,0.5204,0.5888,0.6424,0.6942,0.0,0.0,0.0,0.0,0.0,0.0,0.0,0.0,0.0,0.0,0.0,0.0,0.0,0.0,0.0,0.0,0.0,0.0,2.4745,2.3553,2.1407,1.787,1.7579,1.7579,1.7777,1.8771,1.9877,2.1121,2.4767,2.5815,2.4598,2.3467,2.1051,1.7684,1.7684,1.6951,1.5927,1.7138,1.7684,1.7777,1.9039,1.9497,0.0,0.0,0.0,0.0,0.0,0.0,0.0,0.0,1.5725,1.4956,1.1151,1.0002,0.9706,0.8435,0.6103,0.4027,0.4023,0.207,0.0,0.0,0.0,0.0433,0.2155,0.1247,0.0457,0.1944,0.3234,0.4223,0.4256,0.5326,0.5741,0.4228,0.5298,0.5736,0.4228,0.4017,0.4017,0.4017,0.5222,0.6032,0.6032,0.7235,0.8038,0.8038,0.8038,0.797,0.7821,0.7814,0.7746,0.7611,0.7604,0.7604,0.7604,0.6449,0.5784,0.5784,0.4647,0.4009,0.4009,0.4009,0.3912,0.3804,0.3845,0.3779,0.3684,0.3776,0.4657,0.5973,0.712,0.7604,0.7604,0.7597,0.8426,0.952,0.0,0.0,0.0,0.0,0.0,0.0,0.0,0.0,0.0,0.0,0.0,0.0,0.0,0.0,0.0,0.0,0.0,0.0,2.2754,2.2054,2.0891,1.8775,1.8787,1.9248,2.0103,2.2793,2.4008,2.3559,2.5456,2.5416,2.3467,2.1316,1.9414,1.7684,1.6763,1.6103,1.5927,1.7138,1.7684,1.787,1.9951,2.0747,2.0944,0.0,0.0,0.0,0.0,0.0,0.0,0.0,0.0,0.0,1.0386,0.9498,0.8679,0.8172,0.6204,0.4119,0.4065,0.2069,0.0,0.0,0.0868,0.1887,0.2166,0.1133,0.0676,0.3327,0.3324,0.342,0.5413,0.5222,0.4618,0.4128,0.5144,0.5962,0.5427,0.6226,0.683,0.683,0.7129,0.7434,0.7434,0.7739,0.8038,0.8038,0.8038,0.8018,0.7977,0.797,0.795,0.7909,0.7801,0.7746,0.7746,0.7266,0.707,0.7164,0.6816,0.5761,0.4009,0.3963,0.4484,0.5376,0.5317,0.5833,0.6519,0.6526,0.6756,0.7248,0.7543,0.8292,0.9227,0.9067,0.9792,1.1017,0.0,0.0,0.0,0.0,0.0,0.0,0.0,0.0,0.0,0.0,2.9453,0.0,0.0,0.0,0.0,0.0,0.0,0.0,0.0,2.1516,2.0838,1.9712,2.0412,2.1813,2.3815,2.5561,2.581,2.4598,2.5268,2.4429,2.2145,1.9743,1.8087,1.6951,1.6103,1.5832,1.5927,1.7669,1.8411,1.8596,2.1033,2.2031,2.2031,0.0,0.0,0.0,0.0,0.0,0.0,0.0,0.0,0.0,0.941,0.87,0.8174,0.814,0.6174,0.4067,0.405,0.2547,0.098,0.0986,0.2227,0.3275,0.3174,0.2828,0.3047,0.4286,0.4586,0.5092,0.6253,0.6024,0.5694,0.5632,0.6226,0.683,0.683,0.7534,0.8038,0.8038,0.8038,0.8038,0.8038,0.8038,0.8038,0.8038,0.8038,0.8038,0.8038,0.8038,0.8038,0.8038,0.795,0.7902,0.7902,0.7821,0.7821,0.7902,0.8384,0.7882,0.6404,0.5787,0.6001,0.6755,0.6703,0.7349,0.8564,0.8475,0.8814,0.9429,0.9332,0.9895,1.0751,1.0496,1.1333,1.2574,0.0,0.0,0.0,0.0,0.0,0.0,0.0,0.0,0.0,0.0,2.8925,2.895,0.0,0.0,0.0,0.0,0.0,0.0,0.0,0.0,2.1332,2.0753,2.2457,2.4851,2.7924,2.6953,2.5815,2.4429,2.4345,2.313,2.0695,1.8548,1.6951,1.5832,1.5927,1.6021,1.6103,1.858,1.9679,1.9861,2.2138,2.3038,2.2862,2.1747,0.0,0.0,0.0,0.0,0.0,0.0,0.0,0.0,0.845,0.8058,0.8085,0.8214,0.637,0.4256,0.4327,0.3521,0.2688,0.2744,0.3788,0.4911,0.4946,0.5985,0.6483,0.4998,0.6572,0.7947,0.6663,0.731,0.8058,0.8038,0.8038,0.8038,0.8038,0.8038,0.8038,0.8038,0.8038,0.8038,0.8137,0.8137,0.8237,0.8329,0.8336,0.8336,0.8336,0.8336,0.8336,0.8336,0.8336,0.8336,0.8336,0.8336,0.8336,0.8336,0.9608,1.019,1.0092,0.8924,0.8252,0.8208,0.8072,0.8744,1.0027,1.0027,1.0711,1.195,1.195,1.195,1.2047,1.2047,1.2909,1.4064,0.0,0.0,0.0,0.0,0.0,0.0,0.0,0.0,0.0,0.0,0.0,0.0,0.0,0.0,0.0,0.0,0.0,0.0,0.0,0.0,2.3433,2.2175,2.5261,2.6907,2.6894,2.6535,2.5395,2.3295,2.237,2.0713,1.838,1.6936,1.6008,1.5832,1.6857,1.7311,1.7404,1.9844,2.0926,2.1033,2.2492,2.2492,2.1658,2.1391,2.0116,0.0,0.0,0.0,0.0,0.0,0.0,0.0,0.8282,0.8221,0.8201,0.8113,0.7032,0.5941,0.5965,0.5181,0.4202,0.4386,0.5362,0.6729,0.7879,0.8276,0.7889,0.6378,0.6409,0.6967,0.7711,0.8057,0.818,0.8058,0.8038,0.8038,0.8038,0.8038,0.8038,0.8038,0.8038,0.8435,0.9509,0.9608,1.0002,1.0974,1.1072,1.1072,1.1072,1.1072,1.1072,1.1072,1.1072,1.1072,1.1072,1.1072,1.1072,1.1072,1.1365,1.1463,1.1463,1.117,1.1044,1.0997,1.096,1.1153,1.1492,1.1492,1.1609,1.195,1.195,1.2522,1.3488,1.3488,1.4268,1.5439,0.0,0.0,0.0,0.0,0.0,0.0,0.0,0.0,0.0,0.0,0.0,0.0,0.0,0.0,0.0,0.0,0.0,0.0,0.0,0.0,2.4893,2.5174,2.7094,2.7844,2.7279,2.5605,2.3856,2.2058,2.0927,1.972,1.8503,1.7311,1.703,1.7576,1.8319,1.8596,1.8688,2.0477,2.1302,2.1391,2.1943,2.1854,2.1194,2.0025,1.838,1.6504,1.4601,0.0,0.0,0.0,0.0,0.0,0.0,0.0,0.816,0.8153,0.7226,0.6307,0.6414,0.6122,0.5953,0.6859,0.7619,0.8499,0.9756,0.9356,0.8574,0.8472,0.7884,0.7516,0.818,0.8208,0.8133,0.8052,0.8038,0.8237,0.8825,0.8924,0.9213,0.9797,0.9895,1.0092,1.0877,1.0877,1.117,1.1853,1.195,1.195,1.195,1.195,1.195,1.195,1.195,1.195,1.195,1.195,1.195,1.195,1.2522,1.3199,1.3692,1.2436,1.195,1.195,1.195,1.2231,1.2813,1.2813,1.321,1.3788,1.3788,1.4172,1.4854,1.4854,1.5248,1.5927,0.0,0.0,0.0,0.0,0.0,0.0,0.0,0.0,0.0,0.0,0.0,0.0,0.0,0.0,0.0,0.0,0.0,0.0,0.0,0.0,0.0,2.8004,2.8084,2.782,2.7233,2.4237,2.197,2.0534,1.9629,1.9347,1.9579,1.8535,1.8503,1.9497,1.977,1.9844,1.9861,2.1123,2.148,2.1302,2.1302,2.0926,2.0099,1.8118,1.6411,1.4779,1.2705,1.1268,1.0199,0.9053,0.0,0.0,0.0,0.0,0.8755,0.8895,0.7922,0.6752,0.7079,0.7243,0.7721,0.9,0.9381,0.9652,1.0904,0.98,0.9032,1.0647,0.9563,0.8235,0.8235,0.8327,0.8329,0.8329,0.8528,0.9015,1.019,1.0288,1.0681,1.1755,1.195,1.195,1.2231,1.2242,1.2328,1.2522,1.2533,1.2533,1.2533,1.2533,1.2533,1.2533,1.2533,1.2533,1.2533,1.2533,1.2533,1.263,1.368,1.4758,1.5737,1.3596,1.2533,1.2533,1.2533,1.3199,1.4268,1.4268,1.4854,1.5832,1.5832,1.5913,1.6103,1.6103,1.6292,1.656,0.0,0.0,0.0,0.0,0.0,0.0,0.0,0.0,0.0,0.0,2.7695,2.7456,0.0,0.0,0.0,0.0,0.0,0.0,2.4072,0.0,0.0,2.8084,2.8084,2.6721,2.3745,2.2127,2.0283,1.8118,1.8041,1.8644,2.0036,1.9461,1.9314,1.9588,2.0567,2.1016,2.1105,2.2315,2.2227,2.1302,2.1302,1.934,1.6369,1.6101,1.4506,1.2328,1.2047,1.1755,1.1688,1.1667,1.151,0.0,0.0,0.0,1.1365,1.1394,1.0536,0.9697,0.9792,0.9457,0.9122,0.9374,0.9381,0.9673,1.094,0.9975,0.9382,1.1813,1.007,0.8072,0.8072,0.8939,0.9706,0.9706,1.0681,1.1463,1.1658,1.1658,1.1755,1.1853,1.195,1.2328,1.3488,1.3584,1.4076,1.5248,1.5248,1.5248,1.5248,1.5248,1.5248,1.5248,1.5248,1.5248,1.5248,1.5248,1.5248,1.5248,1.5439,1.5629,1.5832,1.5439,1.5248,1.5248,1.5248,1.5343,1.5534,1.5534,1.5629,1.5832,1.5832,1.648,1.7404,1.7404,1.8133,1.9039,0.0,0.0,0.0,0.0,0.0,0.0,0.0,0.0,0.0,0.0,0.0,2.7776,0.0,0.0,0.0,2.4303,2.3816,2.4363,2.6242,2.7462,2.8084,2.8084,2.6289,2.4513,2.3075,2.0497,1.8732,1.7684,1.8411,1.9217,2.0118,2.1352,2.2044,2.2245,2.2569,2.2655,2.2636,2.2232,2.1747,2.1194,1.9861,1.8288,1.6706,1.6062,1.4638,1.3006,1.3006,1.2522,1.1863,1.1963,1.1923,1.196,1.1963,0.0,0.0,0.0,1.1521,1.1197,1.1624,1.1558,1.1509,1.1837,1.1241,1.0803,1.2283,1.1193,1.0486,1.2382,1.1522,1.0419,1.0207,1.0681,1.1072,1.1072,1.156,1.2134,1.2909,1.3006,1.3295,1.398,1.4076,1.4268,1.4949,1.4949,1.5235,1.5737,1.5832,1.5832,1.5832,1.5832,1.5832,1.5832,1.5832,1.5832,1.5832,1.5832,1.5832,1.5832,1.5832,1.5832,1.5832,1.5832,1.5832,1.5832,1.5832,1.5832,1.5832,1.5832,1.6197,1.6857,1.6857,1.7591,1.8688,1.8688,1.9039,1.9588,0.0,0.0,0.0,0.0,0.0,0.0,0.0,0.0,0.0,0.0,0.0,0.0,0.0,0.0,0.0,0.0,2.4489,2.534,2.7743,2.8012,2.774,2.6803,2.4343,2.2553,2.1673,1.9023,1.7498,1.7217,1.8411,1.9265,1.9779,2.1967,2.3279,2.373,2.3404,2.3319,2.3209,2.1572,2.0727,2.0343,1.8442,1.7311,1.664,1.571,1.4567,1.3392,1.3776,1.3295,1.2425,1.2823,1.292,1.292,1.292,1.292,0.0,0.0,0.0,1.2454,1.2617,1.276,1.3058,1.3558,1.2786,1.2265,1.3809,1.2861,1.2046,1.3677,1.3491,1.3079,1.3139,1.2705,1.2425,1.2425,1.2727,1.321,1.4268,1.4364,1.4758,1.5737,1.5832,1.5832,1.5832,1.5832,1.5832,1.5832,1.5832,1.5832,1.5832,1.5832,1.5832,1.5832,1.5832,1.5832,1.5832,1.5832,1.5832,1.5832,1.6103,1.6103,1.5832,1.6466,1.656,1.6292,1.5927,1.6008,1.6292,1.6292,1.703,1.8133,1.8133,1.8856,1.9951,1.9951,2.0133,2.0584,0.0,0.0,0.0,0.0,0.0,0.0,0.0,0.0,0.0,0.0,0.0,0.0,2.6692,2.6566,2.5878,2.4491,2.5605,2.6676,2.7323,2.7822,2.664,2.3401,2.3075,0.0,1.8041,1.7777,1.7138,1.5927,1.7124,1.8108,1.8822,2.0151,2.1112,2.1845,2.2043,2.2025,2.1805,2.0212,1.9047,1.8213,1.7804,1.625,1.4064,1.4064,1.3199,1.2145,1.3392,1.3872,1.3968,1.514,1.5629,1.5629,1.5629,1.5629,1.5629,0.0,0.0,0.0,1.2532,1.2515,1.2906,1.3028,1.3237,1.3819,1.5263,1.4288,1.3933,1.6458,1.5853,1.5227,1.6199,1.501,1.3776,1.3776,1.4854,1.5629,1.5737,1.5737,1.5737,1.5832,1.5832,1.5832,1.5832,1.5832,1.5832,1.5832,1.5832,1.5832,1.5832,1.5832,1.5832,1.5832,1.5832,1.5832,1.5832,1.5832,1.5832,1.5832,1.703,1.6951,1.5927,1.8211,1.8672,1.7498,1.6292,1.648,1.7591,1.7591,1.8319,1.9405,1.9405,2.0116,2.1212,2.1212,2.1943,2.295,0.0,0.0,0.0,0.0,0.0,0.0,0.0,0.0,0.0,0.0,0.0,0.0,0.0,2.627,2.5708,2.5698,2.65,2.7252,2.7775,2.5953,2.4258,2.3075,2.0783,1.9023,1.7684,1.6951,1.6292,1.5832,1.7044,1.8003,1.8438,1.9653,2.007,1.9673,2.0616,2.119,2.1151,1.9207,1.8239,1.8052,1.6876,1.5913,1.514,1.514,1.4854,1.4472,1.4949,1.5255,1.5519,1.6016,1.6233,1.6393,1.6393,1.6259,1.6072,1.5885,1.5439,1.5108,1.4887,1.491,1.5202,1.581,1.5151,1.4652,1.5619,1.5167,1.4961,1.5834,1.621,1.6587,1.6905,1.6104,1.5422,1.5422,1.5665,1.5832,1.5832,1.5832,1.5832,1.5832,1.5832,1.5832,1.5832,1.5832,1.6103,1.6951,1.6292,1.6197,1.6951,1.6197,1.5832,1.5832,1.5832,1.5832,1.5832,1.5832,1.6197,1.703,1.7498,1.787,1.8211,1.9131,1.9222,1.8856,1.8395,1.8395,1.8856,1.8856,1.9588,2.0657,2.0657,2.1391,2.2492,2.2492,2.2775,2.3144,0.0,0.0,0.0,0.0,0.0,0.0,0.0,0.0,0.0,0.0,0.0,0.0,0.0,0.0,2.5769,2.6132,2.6488,2.6553,2.6102,2.4176,2.2465,2.1318,1.8932,1.7684,1.7684,1.648,1.6008,1.648,1.6857,1.7297,1.7601,1.8022,1.777,1.7246,1.7666,1.8189,1.8622,1.6663,1.5976,1.6228,1.5577,1.5345,1.5422,1.5919,1.6126,1.6126,1.6126,1.6246,1.642,1.642,1.6837,0.0,1.7385,1.7541,1.7785,1.737,1.7341,1.7457,1.7558,1.7746,1.805,1.8687,1.7942,1.6988,1.7171,1.6855,1.6466,1.6156,1.6781,1.7288,1.7288,1.6901,1.654,1.6433,1.6246,1.6126,1.6126,1.6126,1.6126,1.6126,1.6126,1.6086,1.5992,1.5979,1.6306,1.7044,1.6292,1.6197,1.7044,1.6292,1.5832,1.5832,1.6197,1.648,1.648,1.6842,1.7483,1.8319,1.8688,1.9131,1.9497,2.0314,2.0494,2.0133,2.0494,2.0494,2.0116,2.0116,2.0854,2.1943,2.1943,2.2403,2.3144,2.3144,2.3144,2.3144,0.0,0.0,0.0,0.0,0.0,0.0,0.0,0.0,0.0,2.6529,0.0,0.0,0.0,0.0,0.0,2.5708,2.5583,2.4545,2.2259,2.2582,2.1318,1.787,1.7684,1.7684,1.7684,1.648,1.648,1.7684,1.6386,1.5979,1.6259,1.4949,1.4477,1.4624,1.3079,1.3079,1.4139,1.2736,1.2395,1.2679,1.3768,1.4325,1.4648,1.6085,1.67,1.67,1.67,1.6714,1.6714,1.6714,0.0,0.0,1.8769,1.9715,2.0695,2.0235,2.0479,2.0679,0.0,0.0,0.0,2.118,2.1081,2.0783,1.9846,1.9373,1.8847,1.7843,1.7687,1.7687,1.7701,1.7459,1.7074,1.6894,1.6714,1.67,1.67,1.67,1.67,1.67,1.67,1.6593,1.6313,1.6286,1.6166,1.5858,1.5845,1.5832,1.5927,1.5927,1.5927,1.5927,1.7124,1.7777,1.7777,1.8948,1.9497,1.9588,2.0747,2.0657,1.9679,2.205,2.2492,2.1391,2.258,2.2403,2.1391,2.1391,2.2031,2.3144,2.3144,2.3144,2.3144,2.3144,2.3144,2.3144,0.0,0.0,0.0,0.0,0.0,0.0,0.0,0.0,0.0,0.0,0.0,0.0,2.4933,2.5209,2.5587,2.6199,2.5518,2.4388,2.2899,2.1353,1.9662,1.7777,1.7684,1.7684,1.7684,1.7311,1.7311,1.7684,1.6386,1.5872,1.5952,1.4569,1.363,1.2857,1.1391,1.0561,1.0207,1.1649,1.2395,1.2587,1.2842,1.3565,1.4546,1.4951,1.5783,1.67,1.67,1.6847,1.7225,0.0,1.8861,1.9517,2.0257,2.0753,2.1078,2.0712,2.0679,2.0745,2.0629,0.0,0.0,0.0,0.0,0.0,2.0684,2.0484,2.0295,1.9552,1.9179,1.9092,1.9324,1.8387,1.7816,1.8974,1.7816,1.67,1.67,1.67,1.67,1.67,1.67,1.6673,1.6593,1.658,1.6854,0.0,1.6622,1.6798,1.8411,1.8488,1.8488,1.8488,1.8856,1.9039,1.9039,1.9314,1.9951,2.0836,2.1105,2.1569,2.2138,2.2775,2.295,2.258,2.295,2.295,2.258,2.258,2.2775,2.3144,2.3144,2.3144,2.3144,2.3144,2.3144,2.3184,0.0,0.0,0.0,0.0,0.0,0.0,2.6016,2.5444,0.0,0.0,0.0,0.0,2.4084,2.4308,2.4588,2.5084,2.3998,2.2853,2.1585,2.0279,1.8948,1.7777,1.7684,1.8024,1.8613,1.7463,1.7196,1.7893,1.6441,1.5534,1.4949,1.368,1.2402,1.1241,0.9854,0.8954,0.8495,0.9989,1.0793,1.1081,1.2219,1.3205,1.4134,1.539,1.633,1.7074,1.7074,1.7661,1.8622,1.9199,2.028,0.0,0.0,2.3046,2.3055,2.2661,2.2661,2.2768,2.2685,2.2757,2.2804,2.2708,0.0,0.0,2.2154,2.2004,2.1677,2.0933,2.0576,2.0498,2.0701,1.9955,1.9732,2.0798,1.9952,1.8716,1.763,1.7448,1.7448,1.7448,1.7341,1.7414,1.7876,1.7851,1.8137,1.9159,1.855,1.8686,1.9728,1.9579,1.9497,1.9497,1.9951,2.0206,2.0206,2.0764,2.1302,2.2031,2.2031,2.2403,2.3144,2.3144,2.3144,2.3144,2.3144,2.3144,2.3144,2.334,2.3301,2.3144,2.3144,2.3144,2.3164,2.334,2.3418,2.3477,0.0,0.0,0.0,2.4619,2.4461,2.4594,2.4682,2.4087,0.0,0.0,2.4366,2.3711,2.332,2.3594,2.3563,2.3036,2.2036,2.0835,1.952,1.9396,1.8827,1.7557,1.765,1.8318,1.9584,1.7297,1.6756,1.8082,1.6538,1.5261,1.4112,1.264,1.1268,1.019,0.8627,0.8133,0.8303,0.8431,0.8687,0.9162,1.1806,1.2976,1.3588,1.6287,1.7477,1.7582,1.7582,1.8682,2.0242,2.0178,2.1827,0.0,0.0,0.0,0.0,2.5352,2.5488,2.5723,2.5273,2.543,2.5723,2.5684,2.5371,0.0,2.4049,2.3517,2.2947,2.2063,2.1778,2.1762,2.1845,2.1711,2.1827,2.2345,2.2461,2.1544,1.9098,1.8919,1.8919,1.8809,1.8673,1.8907,1.9821,1.9725,1.9891,2.0749,2.0971,2.0786,2.0322,2.0096,1.9985,1.9861,2.0944,2.148,2.148,2.258,2.3144,2.3144,2.3144,2.3144,2.3144,2.3144,2.3144,2.3144,2.3184,2.3203,2.3242,2.3691,2.3574,2.3144,2.3242,2.3242,2.3262,2.3691,2.3867,2.3926,0.0,2.4999,2.3594,2.3401,2.1986,2.0905,2.0997,2.0788,2.1223,2.2815,2.3706,2.4258,2.418,2.3945,2.3434,2.263,2.1987,2.0823,1.8819,1.8495,1.7787,1.6663,1.7515,1.8078,1.8148,1.7779,1.7831,1.8082,1.6538,1.5856,1.5778,1.3105,1.1755,1.1463,0.9015,0.8187,0.8445,0.8472,0.9374,1.0732,1.1268,1.2262,1.348,1.5198,1.6605,1.7582,1.7582,1.8541,2.0059,2.2519,2.4473,2.601,0.0,0.0,0.0,2.625,0.0,2.6172,2.5723,2.5664,0.0,0.0,2.5137,0.0,2.487,2.4467,2.3975,2.3242,2.2691,2.2443,2.3061,2.2011,2.1728,2.344,2.308,2.2028,2.0491,2.1248,2.1572,2.0397,2.1294,2.1868,2.1827,2.1729,2.1522,2.1147,2.1813,2.2049,2.1657,2.25,2.2763,2.2422,2.2599,2.2775,2.2775,2.295,2.3144,2.3144,2.3144,2.3144,2.3144,2.3144,2.3144,2.3164,2.3516,2.3672,2.3691,2.4121,2.3848,2.3203,2.3906,2.3965,2.3711,2.4141,2.4297,2.4355,2.4063,2.2921,2.1836,2.0776,1.969,1.9067,1.9223,1.9255,1.9798,2.1319,2.2604,2.3299,2.3093,2.3074,2.2593,2.1251,2.1174,0.0,0.0,1.8982,1.8712,1.723,1.7794,1.8082,1.8082,1.7347,1.7216,1.7683,1.6402,1.5294,1.437,1.2639,1.117,0.9895,0.8627,0.8463,0.9396,0.9473,1.0493,1.1935,1.2144,1.3048,1.4449,1.5956,1.6935,1.7582,1.7582,1.9017,2.1506,2.4881,2.6327,0.0,2.6953,2.7012,2.6973,0.0,2.6699,2.666,0.0,0.0,0.0,2.5781,0.0,0.0,0.0,2.5234,2.5005,2.4632,2.4122,2.3899,2.4216,2.362,2.3553,2.4976,2.5032,2.4403,2.3195,2.327,2.3059,2.2292,2.2803,2.3375,2.3825,2.3739,2.37,2.3836,2.4022,2.4013,2.3598,2.3944,2.3906,2.3477,2.3457,2.3359,2.3144,2.3144,2.3144,2.3144,2.3359,2.3457,2.3477,2.3672,2.3769,2.3789,2.4004,2.4102,2.4141,2.457,2.4355,2.3809,2.4258,2.4277,2.416,2.459,2.4746,2.4805,2.148,2.0944,2.0036,1.8312,1.7639,1.7466,1.7822,1.7654,1.7934,1.9268,2.0583,2.1294,2.1188,2.1456,2.1053,1.9876,2.0181,1.9862,1.8446,1.9477,1.951,1.8267,1.7919,1.7785,1.7974,1.6594,1.6286,1.7061,1.594,1.4558,1.2909,1.2033,1.0439,0.8378,0.8179,0.8858,1.0323,1.0578,1.1708,1.3329,1.3623,1.4341,1.553,1.7041,1.7582,1.7687,1.8199,2.0254,2.3151,2.6418,2.7363,2.7148,2.7246,2.7266,0.0,0.0,0.0,0.0,0.0,0.0,0.0,0.0,0.0,2.5957,0.0,0.0,0.0,2.5625,2.5254,2.4961,2.5059,2.5059,2.5332,2.6133,2.6621,2.6602,2.5835,2.5019,2.4387,2.4166,2.4292,2.4788,2.5788,2.5527,2.5657,2.6306,2.6055,2.5625,2.5098,2.4727,2.4336,2.3926,2.3906,2.375,2.3379,2.3301,2.3301,2.3379,2.3652,2.3828,2.3926,2.4258,2.4414,2.4414,2.4512,2.4531,2.457,2.5019,2.498,2.4668,2.4668,2.4668,2.4707,2.5059,2.5293,2.5488,2.1302,1.9588,1.8071,1.7837,1.6046,1.4752,1.4789,1.38,1.3579,1.4887,1.6535,1.796,1.9059,1.8812,1.8808,1.9269,1.9669,1.9814,1.9403,1.8784,1.8423,1.8581,1.7274,1.6359,1.6116,1.6222,1.6393,1.6754,1.4936,1.4347,1.4619,1.1716,1.023,0.9936,0.8744,0.913,1.0613,1.063,1.2421,1.5163,1.5186,1.5304,1.553,1.7041,1.7582,1.7884,2.0333,2.2503,2.435,0.0,2.7305,2.7656,0.0,2.8144,2.8066,2.7695,0.0,0.0,0.0,0.0,0.0,0.0,2.6914,0.0,2.6406,0.0,2.5625,2.5215,0.0,2.4609,2.5,0.0,0.0,2.5723,2.6172,2.6501,2.6807,2.7026,2.6729,2.5397,2.6672,2.7622,2.7466,2.7059,2.6633,2.6426,2.6348,2.5957,2.5117,2.5019,2.4805,2.4355,2.4355,2.4316,2.4277,2.3906,2.3906,2.4258,2.3945,2.3984,2.4355,2.4394,2.4414,2.4434,2.4824,2.5,2.5019,2.5469,2.5625,2.5586,2.5586,2.5586,2.5586,2.5644,2.6133,2.6738,2.0116,1.8856,1.7276,1.6005,1.4836,1.3573,1.2193,1.0887,1.0483,1.149,1.2435,1.3529,1.5065,1.5783,1.6338,1.6886,1.9336,2.0488,1.943,1.9922,1.9865,1.904,1.7638,1.6647,1.6339,1.6299,1.65,1.6967,1.49,1.3876,1.376,1.1346,0.9815,0.9205,0.9515,1.0467,1.1887,1.2842,1.448,1.6495,1.6647,1.6711,1.6711,1.7358,1.8094,1.9138,2.2095,2.3852,2.4984,0.0,2.7676,0.0,0.0,0.0,0.0,2.8086,0.0,0.0,0.0,0.0,0.0,0.0,0.0,0.0,2.6426,0.0,2.5762,0.0,0.0,0.0,0.0,0.0,0.0,0.0,2.7431,2.788,2.7699,2.75,2.7253,2.7062,2.7844,2.8223,2.8047,2.7871,2.748,2.6797,2.6758,2.6367,2.5508,2.5449,2.5254,2.4805,2.4805,2.4668,2.4414,2.4238,2.4238,2.4414,2.4492,2.4629,2.4805,2.5059,2.5176,2.5195,2.5371,2.5605,2.584,2.6035,2.625,2.6484,2.6484,2.6328,2.6113,2.6113,2.6504,2.6992,1.8364,1.7453,1.613,1.4509,1.3105,1.1482,0.906,0.7846,0.7455,0.8059,0.833,0.9039,1.0665,1.2087,1.332,1.45,1.8109,2.0046,1.952,2.0272,2.0348,1.9115,1.782,1.6887,1.6593,1.646,1.6647,1.7154,1.5109,1.407,1.3731,1.1822,1.0621,0.9965,1.1002,1.2115,1.3431,1.4723,1.6106,1.7288,1.7502,1.7582,1.7687,1.7989,1.9272,2.1226,2.344,2.4838,2.5778,2.7188,2.7949,0.0,2.8301,0.0,2.8301,0.0,0.0,0.0,2.8301,0.0,0.0,0.0,0.0,0.0,0.0,0.0,0.0,0.0,0.0,0.0,0.0,0.0,2.8105,2.8507,0.0,2.8733,2.8649,2.7663,2.7246,2.7871,2.8144,2.8388,2.8794,2.8495,2.793,2.709,2.7012,2.6641,2.5781,2.5742,2.5586,2.5254,2.5254,2.5098,2.4785,2.4648,2.4648,2.4785,2.498,2.5195,2.5449,2.5762,2.5977,2.6094,2.6094,2.6269,2.6562,2.6562,2.6738,2.7012,2.7012,2.6894,2.6719,2.6602,2.6894,2.7344,1.6115,1.4899,1.398,1.3884,1.0733,0.7335,0.4625,0.413,0.4154,0.4225,0.4239,0.4763,0.6113,0.7593,0.9869,1.3036,1.5395,1.7702,1.994,1.9108,1.8686,1.8671,1.7399,1.658,1.6299,1.6553,1.6847,1.7154,1.558,1.5127,1.5764,1.3859,1.3022,1.3342,1.3342,1.4082,1.5163,1.5423,1.638,1.7569,1.7582,1.7582,1.7793,1.902,2.1464,2.414,2.426,0.0,0.0,2.7519,2.7949,0.0,0.0,0.0,0.0,0.0,0.0,0.0,0.0,0.0,0.0,2.8262,0.0,0.0,0.0,0.0,2.748,0.0,0.0,0.0,2.8682,2.8901,2.9373,3.0734,2.9515,0.0,0.0,2.8147,2.7031,2.7051,2.7793,2.8794,3.012,2.9112,2.793,2.709,2.7012,2.6641,2.5781,2.5742,2.5723,2.5723,2.5723,2.5703,2.5703,2.5254,2.5273,2.5684,2.5273,2.5508,2.6348,2.6367,2.6582,2.6973,2.6973,2.6973,2.6992,2.6992,2.7012,2.7012,2.7012,2.7266,2.7578,2.7148,2.7519,2.8203,1.4626,1.2073,1.0032,1.004,0.8871,0.6836,0.3192,0.1902,0.1403,0.1317,0.1333,0.2367,0.4936,0.6507,0.8678,1.1942,1.4536,1.6355,1.7016,1.682,1.7041,1.7825,1.6689,1.6285,1.686,1.6941,1.7048,1.7154,1.5791,1.5328,1.5908,1.4148,1.348,1.3696,1.4407,1.4938,1.5411,1.6675,1.7447,1.801,1.9141,2.027,2.1121,0.0,2.2051,2.2892,2.4913,2.6045,0.0,2.6777,2.709,2.7441,2.7441,2.7441,2.75,2.7793,2.7871,0.0,0.0,0.0,2.8223,2.7949,0.0,0.0,0.0,0.0,0.0,0.0,0.0,0.0,0.0,3.154,3.1837,3.1038,3.0741,3.0242,0.0,2.8549,2.8948,3.1225,3.1149,3.0824,3.0307,2.9642,2.8634,2.7153,2.6758,0.0,2.5762,2.6016,2.6035,2.5742,2.6016,2.6035,2.5742,2.5586,2.5586,2.5742,2.5586,2.582,2.6387,2.6387,2.6621,2.7012,2.7012,2.7187,2.7441,2.7441,2.7617,2.7871,2.7871,2.7949,2.8027,2.7598,2.7812,2.8262,1.2104,0.9788,0.7952,0.7959,0.6799,0.4818,0.1773,0.1079,0.0888,0.0902,0.1375,0.2564,0.4634,0.6147,0.8143,1.0848,1.3049,1.4488,1.4999,1.5065,1.5254,1.5946,1.5896,1.6042,1.6469,1.7305,1.7582,1.7475,1.6711,1.6559,1.6981,1.5728,1.5258,1.5376,1.6006,1.6267,1.6311,1.759,1.8455,1.902,2.0924,2.2113,2.2978,0.0,2.3617,2.3812,0.0,2.6387,2.6406,2.6562,2.6797,2.7012,2.7012,2.7012,2.707,2.7344,2.7539,2.7734,2.7988,2.8184,0.0,2.7949,2.7891,0.0,2.8481,0.0,0.0,0.0,0.0,0.0,0.0,0.0,3.3764,3.2379,3.1916,3.1108,0.0,3.0119,3.1622,3.3718,3.2787,3.175,3.1111,3.0363,2.9126,2.7153,2.6758,2.6348,2.5762,2.6152,2.625,2.5977,2.6387,2.6406,2.5977,2.6113,2.6113,2.5977,2.6113,2.6426,2.6836,2.7321,2.756,2.7461,2.7958,2.8014,2.7891,2.7891,2.8047,2.8301,2.8301,2.8379,2.8457,2.8047,2.8164,2.8516,0.8682,0.7811,0.7706,0.7598,0.4393,0.1491,0.032,0.1426,0.2478,0.2633,0.3838,0.4815,0.5053,0.6432,0.8034,0.9662,1.0989,1.2299,1.3907,1.3719,1.3399,1.3285,1.5065,1.5754,1.5374,0.0,0.0,1.8063,1.837,1.8651,1.8918,1.8343,1.8237,1.8504,1.8183,1.7876,1.7649,1.825,1.9192,2.0545,2.2706,2.3311,2.3224,2.4845,2.6057,2.6953,2.6543,2.6387,2.6406,2.6816,2.6953,2.6953,2.6953,2.6953,2.6953,2.6973,2.7285,2.7617,2.7656,2.7949,2.8262,2.8388,0.0,0.0,0.0,0.0,3.0824,0.0,0.0,0.0,0.0,0.0,0.0,3.4359,3.2764,3.1263,3.0083,3.2438,3.4362,3.4483,3.2794,3.1771,3.2286,3.109,2.9394,2.7172,2.6992,2.6621,2.5898,2.629,2.6526,2.6606,2.7019,2.7038,2.6606,2.6918,2.6918,2.6526,2.6816,2.7246,2.7761,2.9044,2.9188,2.8495,2.9807,2.9723,2.8495,2.8495,2.8495,2.8495,2.8514,2.879,2.9015,2.8496,2.8613,2.8945,0.69,0.4922,0.3206,0.2218,0.1179,0.0761,0.152,0.1117,0.1491,0.3838,0.3549,0.4076,0.6543,0.718,0.8049,0.9627,1.0116,1.0426,1.0783,1.0844,1.1686,1.3635,1.4396,1.5637,1.7592,1.8189,1.845,1.837,1.8664,1.8851,1.8918,1.8771,1.8731,1.8798,1.8504,1.821,1.7969,1.8557,1.9626,2.1197,2.4149,2.5218,2.5058,0.0,2.6782,2.6953,2.6543,2.6191,2.5918,2.6035,2.6055,2.6055,2.6055,2.6055,2.6133,2.6445,2.6621,2.6855,2.75,2.7754,2.8206,2.9431,2.9807,3.012,0.0,0.0,0.0,0.0,0.0,0.0,0.0,0.0,0.0,3.3155,3.1636,3.1266,3.2971,3.3449,3.4318,3.5713,3.3958,3.248,3.2342,3.1384,2.9792,2.7235,2.6719,2.6923,2.7641,0.0,2.9132,2.985,3.0286,3.0308,2.9829,2.888,2.8404,2.8301,2.7441,2.7246,2.7761,2.9044,2.9682,2.9807,3.1235,3.1622,3.1214,3.1214,3.1214,3.1359,3.1728,3.1529,3.0874,2.9699,2.9316,2.9616,0.4614,0.2566,0.0881,0.0109,0.0556,0.1349,0.2212,0.2143,0.2996,0.5381,0.5112,0.5542,0.8136,0.8436,0.8836,0.97,0.9822,1.0023,1.0651,1.0853,1.1885,1.4119,1.5035,1.616,1.7641,1.8459,0.0,1.8677,1.8971,1.9118,1.9118,1.8985,1.8918,1.8905,1.8624,1.8397,1.8373,2.014,2.185,2.3525,2.6064,2.6817,0.0,2.6859,2.6894,2.668,2.625,2.5937,2.5742,2.5742,2.5742,2.5742,2.5742,2.5742,2.5781,2.6035,2.6367,2.6859,2.7923,2.8551,2.9207,3.076,3.1133,3.152,3.2955,3.3254,3.372,0.0,0.0,0.0,0.0,0.0,0.0,3.2678,3.2129,3.2655,3.419,3.4607,3.4917,3.5426,3.4342,3.3115,3.1885,3.0799,2.9599,2.8269,2.8066,2.8317,2.9137,0.0,3.0899,3.0993,3.1892,3.1728,3.0428,3.0743,3.0061,2.8472,2.8472,2.8591,2.8834,3.0236,3.0976,3.1235,3.2858,3.3275,3.2689,3.2993,3.3061,3.3128,3.3645,3.3475,3.2987,3.2327,3.1511,3.0924,0.2184,0.0761,0.0,0.0,0.1493,0.2784,0.2824,0.3876,0.5322,0.7158,0.739,0.7948,0.9513,0.9747,0.9822,0.9822,0.9937,1.0657,1.2097,1.2457,1.3287,1.4837,1.6256,1.6984,1.6863,1.8737,1.9571,0.0,1.9571,1.9707,1.9693,1.9219,1.8985,1.8971,1.8677,1.8628,1.8933,2.2227,2.4516,2.6191,2.7649,2.7988,2.7617,2.7109,2.6699,2.6328,2.5898,2.5742,2.5742,2.5742,2.5742,2.5742,2.5742,2.582,2.5917,2.5917,2.6646,2.7643,2.8922,2.9833,3.0777,3.2208,3.2532,3.2955,3.4362,3.4678,3.4969,3.6168,3.6734,3.6935,0.0,0.0,0.0,3.3101,0.0,0.0,0.0,3.5475,3.5667,3.4581,3.4068,0.0,3.1085,2.9824,2.9421,2.9884,2.9986,3.0184,3.0755,0.0,3.2423,3.1677,3.2733,3.252,3.0716,0.0,3.1576,2.8733,2.9746,3.0411,3.0618,3.1891,3.2521,3.2768,3.4681,3.4917,3.3845,3.436,3.4566,3.468,3.4797,3.4916,3.5029,3.5241,3.4362,3.3112,0.0646,0.0112,0.0,0.0,0.2387,0.438,0.4415,0.4715,0.5958,0.8729,0.8113,0.7944,0.9539,0.9808,0.9822,0.9822,1.102,1.1856,1.2217,1.3407,1.4955,1.6492,1.6844,1.7547,1.8816,2.0444,2.1229,0.0,0.0,2.1259,2.1145,1.9869,1.9292,1.9279,1.8985,1.9361,2.0397,2.3453,2.4986,2.5666,2.7209,2.7734,2.7578,2.6797,2.6445,2.6328,2.5898,2.5742,2.5742,2.5742,2.5742,2.5742,2.5742,2.638,2.7315,2.7315,2.8062,2.9189,3.0289,3.0718,3.1345,3.3464,3.4068,3.4362,3.5763,3.6048,3.6168,3.6358,3.6433,3.6483,3.6383,0.0,0.0,0.0,0.0,0.0,0.0,0.0,3.4678,3.4385,3.2353,3.0867,3.0433,3.0223,3.0265,3.0832,3.0516,3.1222,3.362,0.0,3.4485,0.0,3.4678,0.0,0.0,0.0,3.2982,3.3815,3.1468,3.0927,3.1949,3.2677,3.3673,3.4804,3.6677,3.7345,3.7146,3.722,3.754,3.7959,3.6772,3.6614,3.6908,3.5704,3.5876,3.6563,0.0112,0.0,0.0,0.0,0.2674,0.4826,0.4861,0.6372,0.7993,0.938,0.8336,0.801,0.9466,1.0492,1.102,1.102,1.2577,1.3765,1.4589,1.5419,1.6609,1.8169,1.8286,1.8971,2.0472,2.1259,2.1911,2.2702,0.0,0.0,2.1586,2.0757,2.0316,2.0573,2.092,2.1993,2.3495,2.4704,0.0,2.6956,2.7524,2.7519,2.7266,2.6621,2.625,2.6016,2.582,2.5879,2.6035,2.582,2.5742,2.5859,2.6835,2.7476,2.8169,2.9072,2.998,3.0841,3.2011,3.2526,3.3141,3.4944,3.5475,3.5571,3.6263,3.6358,3.6358,3.6358,3.6358,3.6168,3.5475,3.5379,0.0,0.0,0.0,0.0,0.0,0.0,3.4775,3.3893,3.1913,3.0769,3.1021,3.1042,3.0832,3.0432,3.1944,3.3178,3.3672,0.0,3.6356,0.0,0.0,0.0,0.0,0.0,0.0,3.4588,3.372,3.3606,3.424,3.4495,3.5426,3.6701,3.7892,3.8467,3.8492,3.8768,3.9044,3.9193,3.8526,3.8466,3.8582,3.782,3.8031,3.8582,0.0,0.0,0.0,0.0,0.2737,0.4924,0.4924,0.7659,0.9781,0.9673,0.8683,0.8324,0.9533,1.1183,1.2217,1.2217,1.4004,1.5666,1.6962,1.7325,1.804,1.9359,1.9372,2.0141,2.1586,2.1926,2.2783,0.0,0.0,0.0,0.0,2.1399,2.1257,2.1474,2.2938,2.4447,0.0,0.0,2.6736,2.8125,2.7793,2.7402,2.6973,2.6543,2.6172,2.5859,2.5781,2.6016,2.6427,2.627,2.6249,2.6483,2.7973,2.8754,2.9489,3.0931,3.1842,3.2549,3.3744,3.439,3.4944,3.6143,3.6358,3.6358,3.6358,3.6358,3.6358,3.6358,3.6358,3.6073,3.4969,3.5667,0.0,0.0,0.0,0.0,0.0,0.0,3.4796,3.3366,3.2245,3.1615,3.1785,3.2169,3.1844,3.0248,3.3338,3.4918,3.3859,0.0,0.0,0.0,0.0,3.7218,3.6584,0.0,3.7229,3.5017,3.5726,3.6111,3.6416,3.6231,3.6913,3.8216,3.8793,3.9044,3.9069,3.9521,3.9697,3.9697,3.9697,3.9697,3.9697,3.9697,3.9697,3.9594,0.0,0.0,0.0,0.0,0.2737,0.4924,0.4924,0.7659,0.9815,0.9802,0.968,0.968,0.9802,1.1253,1.2217,1.2217,1.4945,1.6844,1.6962,1.8402,1.9243,1.9372,1.9372,2.0141,2.1586,2.2927,2.4098,0.0,0.0,2.4867,0.0,0.0,0.0,0.0,0.0,0.0,0.0,2.6579,2.7571,2.7715,2.7676,2.7402,2.6973,2.6543,2.6367,2.6269,2.5879,2.6016,2.6566,2.7765,2.8111,2.8015,2.8368,2.9969,3.1852,3.2557,3.3514,3.4512,3.5219,3.5394,3.5544,3.6232,3.6358,3.6358,3.6358,3.6358,3.6358,3.6358,3.6358,3.6358,3.6263,3.6358,3.6533,0.0,0.0,0.0,0.0,0.0,3.3735,3.3137,3.3369,3.302,3.1628,3.343,3.3846,3.1703,3.3738,3.5596,0.0,0.0,0.0,3.6358,0.0,3.6986,3.8566,3.7035,3.7035,3.8465,3.6759,3.6642,3.7817,3.7025,3.7472,3.8818,3.9371,3.9622,3.9622,3.9672,3.9697,3.9697,3.9697,3.9697,3.9697,3.9697,3.9697,3.9772,0.0,0.0,0.0362,0.133,0.3372,0.5178,0.0,0.8314,0.9856,0.9944,0.9876,0.9822,0.9822,1.1261,1.2217,1.2217,1.5182,1.6962,1.6962,1.8519,1.9372,1.9372,1.9372,2.0141,2.1586,2.2138,2.3071,0.0,0.0,0.0,0.0,0.0,0.0,0.0,0.0,2.6721,2.675,2.7408,2.7812,2.8027,2.7773,2.7559,2.7363,2.6934,2.6758,2.6839,2.742,2.7941,2.8569,2.9634,2.9257,2.8742,3.0852,3.2299,3.3359,3.4666,3.5307,3.5755,3.5981,3.6031,3.6081,3.6307,3.6107,3.5881,3.5881,3.5881,3.5881,3.5881,3.6132,3.6358,3.6358,3.6358,3.6533,0.0,0.0,0.0,0.0,0.0,0.0,3.4806,3.3674,3.2915,3.3221,3.4139,3.4865,3.5475,3.599,3.626,0.0,0.0,0.0,3.7839,0.0,3.7915,3.9346,3.8584,3.8584,3.9371,3.8584,3.8485,3.9019,3.8708,3.8807,3.9371,3.9597,3.9697,3.9697,3.9697,3.9697,3.9697,3.9697,3.9697,3.9747,4.0074,4.0199,4.0275,0.0,0.0,0.0366,0.16,0.3537,0.5339,0.6494,0.8465,0.9876,1.0032,0.9958,0.9903,0.9951,1.1323,1.2259,1.2369,1.484,1.6629,1.7185,1.8289,1.9142,1.9626,1.9626,0.0,2.1885,2.1885,2.2513,2.3875,2.3987,0.0,0.0,0.0,0.0,0.0,2.7228,2.7949,2.8105,2.793,2.8027,2.8262,2.7969,2.7773,2.7637,2.7324,2.7495,2.7863,2.8707,2.9536,3.0478,3.1405,3.0971,3.043,3.2863,3.3982,3.4481,3.5993,3.6358,3.6358,3.6358,3.6358,3.6358,3.6358,3.6081,3.578,3.578,3.578,3.578,3.578,3.6081,3.6358,3.6358,3.6483,3.6784,3.7337,0.0,0.0,0.0,3.7436,0.0,3.5955,3.4598,3.3965,3.4679,3.4485,3.516,3.6973,3.6776,0.0,0.0,0.0,0.0,0.0,0.0,0.0,0.0,3.9697,3.9697,3.9697,3.9697,3.9697,3.9697,3.9697,3.9697,3.9697,3.9697,3.9697,3.9697,3.9697,3.9697,3.9697,3.9697,3.9697,3.9747,4.03,4.0526,4.0626,0.0,0.0,0.0,0.0,0.2708,0.4916,0.4916,0.7734,0.9876,1.0032,1.0046,1.0107,1.0256,1.1464,1.2361,1.2733,1.4062,1.5624,1.7468,1.7602,1.8349,0.0,0.0,2.0939,2.2468,2.2468,2.2997,2.4138,0.0,0.0,2.3599,0.0,2.5829,2.5468,2.7428,2.8066,2.7695,2.8105,2.8281,2.8301,2.8281,2.8027,2.7676,2.7656,2.8551,2.9572,2.9111,3.0132,3.1909,3.3194,3.3672,3.3672,3.3696,3.4478,3.5562,3.6207,3.6358,3.6358,3.6358,3.6358,3.6358,3.6358,3.6358,3.6358,3.6358,3.6358,3.6358,3.6358,3.6358,3.6358,3.6358,3.681,3.7362,3.7914,0.0,0.0,0.0,3.7025,0.0,3.5876,3.6579,3.6734,3.5562,3.487,3.4599,3.4999,0.0,0.0,0.0,0.0,0.0,3.7186,3.8291,0.0,3.9697,3.9697,3.9697,3.9697,3.9697,3.9697,3.9697,3.9697,3.9697,3.9697,3.9697,3.9697,3.9697,3.9697,3.9697,3.9697,3.9697,3.9697,3.9747,4.03,4.0526,4.0676,0.1657,0.2517,0.3643,0.478,0.5892,0.6996,0.8099,0.9086,0.9876,1.0032,0.9958,1.0355,1.1744,1.1306,1.0871,0.0,1.35,1.5422,0.0,1.8117,1.9607,2.0227,2.0227,2.047,2.0939,2.0939,2.1124,2.1489,0.0,0.0,0.0,2.7252,2.7809,2.7428,2.8009,2.8223,2.8105,2.8242,2.8301,2.8301,2.8301,2.8203,2.8192,2.91,2.9704,3.0282,3.2049,3.3082,3.3734,3.511,3.5515,3.5515,3.5515,3.5799,3.6132,3.6307,3.6358,3.6358,3.6358,3.6358,3.6358,3.6358,3.6081,3.5805,3.5805,3.5805,3.5906,3.6282,3.6358,3.6358,3.6358,3.681,3.7362,3.7914,3.8065,0.0,0.0,0.0,3.7017,3.5532,3.5016,3.4126,3.2905,3.2856,0.0,0.0,0.0,0.0,0.0,0.0,0.0,0.0,3.8693,0.0,4.0249,4.0249,4.0249,4.0249,4.0651,4.0626,4.0249,3.9873,3.9898,4.0249,4.0249,4.0249,4.0249,4.0249,4.0023,3.9697,3.9697,3.9923,4.0325,4.0877,4.1304,4.1731,0.3281,0.4041,0.5068,0.6241,0.6991,0.7728,0.8714,0.993,1.0716,1.0885,1.1302,1.2159,1.3376,1.2792,0.0,1.2089,1.4173,1.5784,1.6506,1.8404,1.9807,2.0561,2.0561,2.0561,2.0561,2.0561,0.0,2.153,2.3546,2.5343,2.677,2.8248,2.8691,2.8301,2.8301,2.8301,2.8301,2.8301,2.8301,2.8281,2.8794,2.9006,2.9197,3.0514,3.1338,3.205,3.3773,3.4678,3.5283,3.6168,3.6358,3.6358,3.6358,3.6358,3.6358,3.6358,3.6358,3.6358,3.6358,3.6358,3.6358,3.6358,3.6107,3.5855,3.5855,3.5855,3.5956,3.6282,3.6358,3.6433,3.6634,3.7111,3.7688,3.8241,3.8818,3.912,3.8894,0.0,3.6748,0.0,0.0,0.0,0.0,3.1987,3.2093,0.0,0.0,0.0,0.0,0.0,0.0,3.8843,3.9069,0.0,4.0501,4.0727,4.0827,4.0827,4.1178,4.1153,4.0802,4.0475,4.0501,4.0827,4.0827,4.0827,4.0827,4.0827,4.0626,4.03,4.03,4.0526,4.0902,4.1455,4.1856,4.2233,0.4784,0.4979,0.5058,0.0,0.6503,0.0,0.7723,1.0272,1.2276,1.2576,1.3807,1.4771,1.4892,1.5421,1.5696,1.5823,0.0,0.0,0.0,1.864,1.9419,2.0982,2.1109,2.1109,2.1109,2.1235,2.209,2.3931,2.6474,2.7452,2.6936,2.8248,2.8691,2.8301,2.8301,2.8301,2.8301,2.8301,2.8301,2.8388,2.9702,3.0307,3.0411,3.1927,3.3254,3.4385,3.4483,3.5379,3.6358,3.6358,3.6358,3.6358,3.6358,3.6358,3.6358,3.6358,3.6358,3.6358,3.6358,3.6358,3.6358,3.6358,3.6358,3.6358,3.6358,3.6358,3.6358,3.6358,3.6383,3.6584,3.7086,3.7663,3.8241,3.8793,3.9295,3.9446,3.8767,0.0,3.5646,0.0,0.0,0.0,0.0,3.1977,3.1517,0.0,0.0,0.0,0.0,0.0,3.8366,3.8919,3.9471,4.0023,4.0626,4.1128,4.1404,4.1455,4.1379,4.1354,4.1404,4.1354,4.1354,4.1404,4.1404,4.1404,4.1404,4.1404,4.1379,4.1329,4.1329,4.1354,4.1455,4.1957,4.2183,4.2283,0.0,0.0,0.8295,0.8426,0.8896,0.9687,1.0884,1.1727,1.2706,1.3952,1.4441,1.5157,1.6335,1.7028,1.7831,1.8963,1.8321,1.8058,1.85,1.9801,2.0716,2.1109,2.1109,2.1109,2.1109,2.2341,2.4425,2.7211,2.7677,2.8173,2.8949,2.8843,2.8691,2.8301,2.8301,2.8301,2.8301,2.8301,2.8301,2.8388,2.9702,3.0307,3.0514,3.2955,3.4068,3.4483,3.5571,3.6168,3.6358,3.6358,3.6358,3.6358,3.6358,3.6358,3.6358,3.6358,3.6358,3.6358,3.6358,3.6358,3.6358,3.6358,3.6358,3.6358,3.6358,3.6358,3.6358,3.6358,3.6709,3.7036,3.7161,3.799,3.8718,3.8843,3.8969,3.854,3.6909,3.5949,0.0,0.0,3.1524,3.1,2.9971,3.0238,3.0472,0.0,0.0,0.0,0.0,3.767,3.9346,3.9496,4.0023,4.0777,4.1756,4.1907,4.2158,4.2585,4.1731,4.1555,4.1957,4.153,4.1555,4.1957,4.1957,4.1957,4.1957,4.1957,4.1731,4.1329,4.1329,4.1605,4.1982,4.2108,4.2409,4.2811,0.7867,0.8641,0.9347,0.9571,1.0256,1.1168,1.208,1.3407,1.4708,1.5548,1.6476,1.7268,1.8227,1.8847,1.9555,2.0318,1.9952,1.9674,1.9674,2.0589,2.1109,2.1109,2.1109,2.1475,2.2215,2.3076,2.5146,2.8426,2.8935,2.9355,2.957,2.9336,2.8887,2.8301,2.8301,2.8301,2.8281,2.89,2.9197,2.9408,3.1338,3.2151,3.2454,3.4459,3.5259,3.5404,3.6443,3.6734,3.6734,3.6734,3.6734,3.6684,3.6433,3.6358,3.6408,3.6659,3.6558,3.6358,3.6358,3.6358,3.6358,3.6358,3.6358,3.6358,3.6358,3.6558,3.6734,3.6734,3.7186,3.7638,3.7914,3.8467,3.8868,3.8868,3.8311,3.738,3.5848,3.4254,0.0,3.0874,3.0422,3.0138,2.9584,3.0117,3.0754,3.1196,0.0,0.0,3.6379,3.8721,4.0074,4.0074,4.0601,4.1304,4.2158,4.2409,4.2685,4.2961,4.2384,4.2233,4.2509,4.2233,4.2258,4.2534,4.2534,4.2534,4.2534,4.2534,4.2359,4.2082,4.2082,4.2283,4.2559,4.2811,4.3087,4.3388,0.9089,0.9157,0.938,0.9877,1.113,1.2259,1.2782,1.5182,1.7103,1.7373,1.8762,1.9773,1.9853,2.0307,2.0628,2.0668,2.0949,2.1109,2.1109,2.1109,2.1109,2.1109,2.1348,2.209,2.3574,2.4054,2.5757,2.8783,3.0081,3.0371,2.957,2.957,2.9101,2.8301,2.8359,2.8447,2.8708,2.9807,3.0411,3.0824,3.3353,3.4385,3.4581,3.5858,3.6408,3.6558,3.701,3.7236,3.7287,3.7211,3.7186,3.7111,3.6634,3.6483,3.6584,3.7136,3.6985,3.6609,3.6609,3.6558,3.6483,3.6483,3.6408,3.6383,3.6458,3.6835,3.7211,3.7287,3.7739,3.8291,3.8793,3.8944,3.8994,3.8766,3.7545,3.624,3.4832,0.0,3.1,3.0701,3.0108,2.9805,3.0156,3.0684,3.1496,3.2504,3.4449,3.6173,3.7822,3.9611,4.0676,4.0752,4.1229,4.1731,4.2258,4.2735,4.2986,4.2986,4.2986,4.2986,4.2986,4.2986,4.3011,4.3112,4.3112,4.3112,4.3112,4.3187,4.3162,4.3112,4.3187,4.3212,4.3288,4.374,4.3915,4.3991,0.894,0.9178,0.9816,1.1248,1.1854,1.3131,1.5891,1.6727,1.7527,1.9207,1.9442,1.9626,2.0107,2.0254,2.0401,2.0655,2.0949,2.1109,2.1109,2.1109,2.1109,2.1109,2.2466,2.3325,2.3574,2.6244,2.8545,3.0509,3.0373,3.0059,2.957,2.957,2.9101,2.8301,2.8672,2.924,3.0016,3.0224,3.0927,3.2129,3.3773,3.4385,3.4581,3.5858,3.6659,3.7061,3.7161,3.7487,3.7814,3.7337,3.7186,3.7161,3.7086,3.7061,3.7161,3.7713,3.7814,3.7739,3.7739,3.7412,3.7061,3.7061,3.6709,3.6483,3.696,3.7136,3.7312,3.7789,3.8341,3.8768,3.8843,3.9245,3.9134,3.7887,3.6805,3.5235,3.2661,0.0,3.0594,2.9342,2.9721,3.0117,3.0195,3.0937,3.2056,3.356,3.5457,3.72,3.8785,4.035,4.143,4.1882,4.1982,4.2283,4.2836,4.2936,4.2986,4.2986,4.2986,4.2986,4.2986,4.2986,4.3237,4.3664,4.3664,4.3664,4.3714,4.4166,4.4091,4.3714,4.4192,4.4367,4.4367,4.4468,4.4493,4.4518,0.9881,1.0331,1.1094,1.2671,1.3848,1.5152,1.6704,1.7689,1.8621,1.9641,1.9813,2.0,2.0428,2.0615,2.0762,2.0895,2.1029,2.1475,2.2341,2.1601,2.1475,2.2466,2.3201,2.4425,2.6122,2.8545,3.0138,3.0898,3.0684,3.0351,2.9902,2.9902,2.957,2.8984,3.0017,3.0735,3.1169,3.2701,3.3731,3.4466,3.5815,3.6333,3.6432,3.7042,3.7412,3.7663,3.799,3.8266,3.8442,3.8165,3.809,3.804,3.7713,3.7638,3.7739,3.8316,3.8241,3.8015,3.8015,3.7814,3.7638,3.7638,3.7437,3.7312,3.7563,3.7864,3.8165,3.8417,3.8919,3.9091,3.8319,3.8307,3.7935,3.6117,3.4683,0.0,0.0,3.0668,2.9828,2.9662,2.9961,3.0715,3.2072,3.2499,3.3875,3.6499,3.7517,3.8807,4.0697,4.1703,4.2333,4.2585,4.261,4.271,4.2986,4.3263,4.3263,4.2986,4.3288,4.3413,4.3413,4.3413,4.3714,4.4242,4.4242,4.4242,4.4267,4.4518,4.4468,4.4267,4.4518,4.4618,4.4669,4.497,4.5095,4.5121,1.0899,1.1646,1.2627,1.4303,1.5794,1.6958,1.7535,1.8648,1.9492,1.9853,2.004,2.0294,2.0735,2.0909,2.1155,2.1601,2.1727,2.2341,2.4054,2.2952,2.2827,2.4054,2.4548,2.6001,2.892,3.0274,3.0898,3.0898,3.0898,3.0644,3.0195,3.0312,3.0285,3.0107,3.1381,3.2231,3.2962,3.5062,3.6213,3.6517,3.7593,3.8015,3.8015,3.8015,3.809,3.8266,3.8718,3.8944,3.9044,3.8919,3.8868,3.8793,3.8341,3.8216,3.8316,3.8894,3.8743,3.8391,3.8391,3.8291,3.8216,3.8216,3.8115,3.804,3.8191,3.8542,3.8792,3.8587,3.896,3.8687,3.724,3.7026,3.6348,3.4447,0.0,0.0,0.0,3.0058,2.9492,3.0273,3.0449,3.1476,3.3833,3.4138,3.5583,3.9054,3.9443,4.0314,4.2509,4.2811,4.3037,4.3162,4.3162,4.3162,4.3162,4.3589,4.3664,4.3363,4.3664,4.3865,4.3991,4.3991,4.4292,4.4819,4.4819,4.4819,4.4844,4.497,4.4945,4.4844,4.497,4.502,4.507,4.5522,4.5673,4.5748,1.1364,1.2749,1.4313,1.6149,1.6762,1.7535,1.8997,1.9359,1.9573,2.0134,1.9987,2.0147,2.0989,2.0855,2.1424,2.3311,2.345,2.4054,2.5741,2.5741,2.5741,2.5863,2.7194,2.892,3.0645,3.0898,3.0898,3.0898,3.0898,3.0644,3.0215,3.0644,3.1151,3.1625,3.2133,3.357,3.5679,3.5884,3.6743,3.7891,3.8015,3.8015,3.8015,3.8015,3.8341,3.8818,3.8843,3.9195,3.9546,3.9044,3.8868,3.8868,3.8818,3.8818,3.8919,3.9471,3.9597,3.9572,3.9572,3.9195,3.8818,3.8818,3.8391,3.814,3.8693,3.8843,3.8689,3.7757,3.7666,3.7263,3.5727,3.5508,3.4936,3.3465,0.0,0.0,3.0478,3.0231,3.0293,3.0781,3.1191,3.2157,3.4219,3.4896,3.6457,3.9646,4.0326,4.1426,4.3526,4.3237,4.3212,4.374,4.374,4.374,4.374,4.379,4.4041,4.4493,4.4016,4.4066,4.4568,4.4568,4.4869,4.5422,4.5422,4.5422,4.5472,4.5974,4.5874,4.5472,4.5974,4.6175,4.62,4.6225,4.625,4.625,1.3894,1.4888,1.5931,1.7704,1.8327,1.8648,1.9359,1.9372,1.9506,1.9907,2.0027,2.0618,2.211,2.2486,2.3192,2.4885,2.5146,2.5741,2.7314,2.7452,2.7452,2.7452,2.9039,3.0274,3.0898,3.0898,3.0898,3.0898,3.0898,3.0801,3.0625,3.1802,3.2344,3.2664,3.469,3.607,3.6987,3.7971,3.8612,3.9044,3.9044,3.9044,3.9044,3.9044,3.9195,3.9371,3.9371,3.9521,3.9672,3.9446,3.9371,3.9371,3.9371,3.9371,3.9421,3.9647,3.9697,3.9697,3.9697,3.9546,3.9371,3.9371,3.922,3.912,3.932,3.8704,3.7895,3.7536,3.696,3.5957,3.4224,3.4339,3.418,3.2444,0.0,3.1796,3.1505,3.1191,3.1505,3.2962,3.3284,3.4593,3.761,3.8067,3.9382,4.2184,4.2519,4.3119,4.4267,4.4116,4.4267,4.4819,4.4844,4.4669,4.4317,4.4669,4.4769,4.4618,4.4769,4.4945,4.5171,4.5171,4.5472,4.5999,4.5999,4.5999,4.6024,4.6225,4.6175,4.6024,4.6225,4.6527,4.6828,4.6828,4.7029,4.7305,1.5643,1.6525,1.7441,1.8871,1.9225,1.9372,1.9372,1.9372,1.9699,2.0441,2.0745,2.164,2.3626,2.4085,2.5024,2.6591,2.6712,2.7452,2.9039,2.9157,2.9157,2.9157,3.0274,3.0898,3.0898,3.0898,3.0898,3.0898,3.1325,3.1556,3.1652,3.3077,3.4069,3.4604,3.6595,3.7796,3.8243,3.9258,3.9697,3.9697,3.9697,3.9697,3.9697,3.9697,3.9697,3.9697,3.9697,3.9697,3.9697,3.9697,3.9697,3.9697,3.9697,3.9697,3.9697,3.9697,3.9697,3.9697,3.9697,3.9697,3.9697,3.9697,3.9697,3.9569,3.9129,3.8243,3.7287,3.6455,3.5759,3.4718,3.3099,3.3361,3.3333,3.1878,3.1719,3.1816,3.2129,3.2355,3.3011,3.4491,3.5125,3.6706,3.9907,4.0183,4.1136,4.3601,4.379,4.4041,4.4593,4.497,4.5246,4.5472,4.5648,4.5547,4.5146,4.5372,4.5372,4.5146,4.5372,4.5573,4.5748,4.5748,4.5949,4.6301,4.6301,4.6301,4.6301,4.6301,4.6401,4.6577,4.6577,4.6903,4.738,4.738,4.7606,4.7908,1.6097,1.7452,1.8677,1.9265,1.9372,1.9372,1.9372,1.9372,2.0034,2.1787,2.2378,2.3407,2.5152,2.5753,2.6712,2.8289,2.8426,2.9157,3.0762,3.0898,3.0898,3.0898,3.0898,3.0898,3.0898,3.0898,3.0898,3.0898,3.2436,3.3077,3.3077,3.4626,3.6054,3.7477,3.7453,3.8348,3.9697,3.9697,3.9697,3.9697,3.9697,3.9697,3.9697,3.9697,3.9697,3.9697,3.9697,3.9697,3.9697,3.9697,3.9697,3.9697,3.9697,3.9697,3.9697,3.9697,3.9697,3.9697,3.9697,3.9697,3.9697,3.9697,3.9697,3.9258,3.7796,3.7477,3.6735,3.4218,3.3749,3.3334,3.2433,3.2168,3.2187,3.2168,3.2187,3.2187,3.2187,3.3554,3.4728,3.5191,3.6684,3.841,4.0429,4.0592,4.1547,4.3651,4.3815,4.4066,4.4593,4.5698,4.6075,4.5522,4.6024,4.6301,4.6301,4.5773,4.5773,4.6301,4.5748,4.5773,4.6301,4.6301,4.6301,4.6301,4.6301,4.6301,4.6326,4.6326,4.6652,4.7154,4.7154,4.7456,4.7908,4.7908,4.7908,4.7933,1.7566,1.8144,1.8677,1.9265,1.9372,1.9372,1.9372,2.0256,2.1174,2.1606,2.3146,2.4828,2.6574,2.7287,2.8307,3.002,3.0138,3.0392,3.0879,3.0898,3.0898,3.0898,3.0898,3.0898,3.0898,3.0898,3.0898,3.0898,3.2436,3.3077,3.3191,3.5704,3.7026,3.7583,3.8582,3.9258,3.9697,3.9697,3.9697,3.9697,3.9697,3.9697,3.9697,3.9697,3.9697,3.9697,3.9697,3.9697,3.9697,3.9697,3.9697,3.9697,3.9697,3.9697,3.9697,3.9697,3.9697,3.9697,3.9697,3.8921,3.8137,3.8137,3.8137,3.7892,3.6599,3.5558,3.4674,3.4244,3.3575,3.2933,3.2309,3.2656,3.2949,3.2656,3.3105,3.3757,3.4636,3.5456,3.6682,3.8729,3.9407,4.0568,4.2643,4.2831,4.3457,4.4895,4.5347,4.5623,4.5799,4.6125,4.6225,4.6075,4.6225,4.6301,4.6301,4.615,4.615,4.6301,4.615,4.615,4.6301,4.6301,4.6301,4.6301,4.6301,4.6527,4.6878,4.6878,4.7205,4.7682,4.7682,4.8033,4.851,4.851,4.8761,4.9088,1.825,1.849,1.8677,1.9265,1.9372,1.9591,2.0141,2.1031,2.2085,2.3457,2.4892,2.6469,2.8273,2.9002,2.9785,3.0762,3.0898,3.0898,3.0898,3.0898,3.0898,3.0898,3.0898,3.0898,3.0898,3.1441,3.1767,3.1767,3.3845,3.4825,3.4936,3.724,3.8348,3.8453,3.9258,3.9697,3.9697,3.9697,3.9697,3.9697,3.9697,3.9697,3.9697,3.9697,3.9697,3.9697,3.9697,3.9697,3.9697,3.9697,3.9697,3.9697,3.9697,3.9697,3.9697,3.9697,3.9697,3.9619,3.9167,3.8282,3.7334,3.6535,3.6438,3.6386,3.5219,3.4304,3.3705,3.3776,3.3192,3.2773,3.2676,3.3086,3.3572,3.3917,3.4584,3.5496,3.6603,3.7977,3.9318,4.0715,4.1697,4.2659,4.3976,4.4141,4.4493,4.5422,4.5999,4.6301,4.6301,4.6301,4.6301,4.6301,4.6301,4.6301,4.6301,4.6301,4.6301,4.6301,4.6301,4.6426,4.6652,4.6652,4.6652,4.6652,4.6853,4.7029,4.7154,4.7355,4.7757,4.8259,4.8259,4.8611,4.9113,4.9113,4.9314,4.959,1.8223,1.8574,1.8888,1.9456,1.9679,2.0256,2.1586,2.1941,2.3198,2.627,2.7151,2.8236,3.0042,3.0605,3.0898,3.0898,3.0898,3.0898,3.0898,3.0898,3.0898,3.0898,3.0995,3.1112,3.1112,3.2416,3.3191,3.3304,3.614,3.7477,3.7583,3.9025,3.9697,3.9697,3.9697,3.9697,3.9697,3.9697,3.9697,3.9697,3.9697,3.9697,3.9697,3.9697,3.9697,3.9697,3.9697,3.9697,3.9697,3.9697,3.9697,3.9697,3.9697,3.9697,3.9697,3.9697,3.9619,3.9303,3.8335,3.7689,3.6726,3.4911,3.4733,3.4778,3.3886,3.3643,3.3464,3.2962,3.2871,3.2988,3.3398,3.3603,3.4193,3.5623,3.6537,3.745,3.8425,4.0758,4.2186,4.1755,4.3456,4.4644,4.4694,4.4794,4.507,4.5598,4.615,4.6426,4.6376,4.6426,4.6401,4.6301,4.6351,4.6376,4.6376,4.6376,4.6376,4.6376,4.6376,4.6677,4.7205,4.7205,4.7205,4.723,4.7707,4.7657,4.7305,4.7782,4.8309,4.8837,4.8837,4.9163,4.959,4.959,4.959,4.959,1.7996,1.9273,2.0311,2.0691,2.1856,2.2927,2.3263,2.4631,2.5881,2.6659,2.8427,2.9736,3.0176,3.0605,3.0898,3.0898,3.0898,3.0898,3.0898,3.0898,3.0898,3.0898,3.1977,3.2644,3.2644,3.2964,3.362,3.4847,3.6595,3.7477,3.7583,3.9025,3.9697,3.9697,3.9697,3.9697,3.9697,3.9697,3.9697,3.9697,3.9697,3.9697,3.9697,3.9697,3.9697,3.9697,3.9697,3.9697,3.9697,3.9697,3.9697,3.9697,3.9697,3.9697,3.9697,3.9697,3.9087,3.8419,3.819,3.6634,3.4984,3.4517,3.3628,3.2914,3.2993,3.299,3.3105,3.374,3.3516,3.3418,3.3848,3.5032,3.6123,3.6476,3.8304,4.0073,4.1302,4.2255,4.3072,4.377,4.4311,4.4794,4.5246,4.6075,4.6652,4.6778,4.7255,4.738,4.6979,4.733,4.7179,4.6326,4.6728,4.6954,4.6954,4.6954,4.6954,4.6954,4.6954,4.723,4.7732,4.7732,4.7732,4.7732,4.7857,4.8109,4.8435,4.8535,4.8912,4.9414,4.9414,4.949,4.959,4.959,4.959,4.959,1.9048,2.0062,2.1076,2.2229,2.3134,2.4044,2.482,2.5945,2.7066,2.794,2.9334,3.0293,3.0508,3.0742,3.0898,3.0898,3.0898,3.0898,3.0898,3.0898,3.1228,3.1883,3.2644,3.3733,3.5156,3.5156,3.5595,3.6379,3.7796,3.8582,3.8582,3.9362,3.9697,3.9697,3.9697,3.9697,3.9697,3.9697,3.9697,3.9697,3.9697,3.9697,3.9697,3.9697,3.9697,3.9697,3.9697,3.9697,3.9697,3.9697,3.9697,3.9697,3.9697,3.9697,3.9619,3.9111,3.8586,3.7895,3.6906,3.5569,3.4372,3.433,3.351,3.2832,3.3047,3.3086,3.334,3.4199,3.4803,3.5321,3.5564,3.7086,3.8437,3.9199,4.0692,4.2146,4.3235,4.4083,4.4642,4.4978,4.5497,4.605,4.6577,4.7154,4.7506,4.7506,4.7757,4.7782,4.7531,4.7531,4.7405,4.7079,4.7104,4.7255,4.7506,4.7506,4.7631,4.7908,4.7631,4.7782,4.8309,4.8309,4.8309,4.8335,4.8611,4.8736,4.8786,4.9063,4.9339,4.959,4.959,4.959,4.959,4.959,4.959,4.959,2.0484,2.1171,2.196,2.3744,2.4293,2.5041,2.6264,2.6903,2.7791,2.94,3.0,3.0469,3.0859,3.0898,3.0898,3.0898,3.0898,3.0995,3.1228,3.1344,3.1883,3.3417,3.3733,3.5046,3.7477,3.7796,3.7902,3.7902,3.9129,3.9697,3.9697,3.9697,3.9697,3.9697,3.9697,3.9697,3.9697,3.9697,3.9697,3.9697,3.9697,3.9697,3.9697,3.9697,3.9697,3.9697,3.9697,3.9697,3.9697,3.9697,3.9697,3.9697,3.9697,3.9697,3.9461,3.8299,3.7887,3.7419,3.5392,3.4565,3.4247,3.4171,3.3848,3.3652,3.4092,3.3946,3.3975,3.5021,3.6377,3.7467,3.7806,3.9294,4.0923,4.2184,4.3144,4.3989,4.4861,4.5849,4.6326,4.5949,4.6702,4.7431,4.7857,4.7983,4.8058,4.8058,4.8134,4.8159,4.8058,4.7732,4.7657,4.7908,4.7581,4.7606,4.8058,4.8058,4.8335,4.8912,4.8435,4.8435,4.8912,4.8912,4.8912,4.8937,4.9389,4.9339,4.8937,4.9414,4.959,4.959,4.959,4.959,4.959,4.959,4.959,4.959,2.1248,2.3134,2.4473,2.479,2.6467,2.7726,2.796,2.8746,2.9269,2.957,3.0293,3.082,3.0879,3.0898,3.0898,3.0898,3.0898,3.1441,3.2758,3.2737,3.3417,3.4958,3.6271,3.7133,3.7477,3.8792,3.9362,3.9362,3.9594,3.9697,3.9697,3.9697,3.9697,3.9697,3.9697,3.9697,3.9697,3.9697,3.9697,3.9697,3.9697,3.9697,3.9697,3.9697,3.9697,3.9697,3.9697,3.9697,3.9697,3.9697,3.9697,3.9697,3.9697,3.9697,3.9387,3.7998,3.7206,3.6449,3.4858,3.4309,3.4103,3.4152,3.4297,3.5001,3.6903,3.5811,3.504,3.7068,3.7356,3.7806,3.9759,4.1453,4.2729,4.2997,4.4572,4.6084,4.6728,4.6928,4.7154,4.7531,4.7707,4.7832,4.7908,4.836,4.8661,4.8661,4.9088,4.9163,4.8686,4.9038,4.8837,4.7933,4.8335,4.8586,4.8661,4.8661,4.8937,4.949,4.9414,4.9414,4.949,4.949,4.949,4.949,4.9565,4.9565,4.949,4.9565,4.959,4.959,4.959,4.959,4.959,4.959,4.959,4.959,2.2842,2.415,2.5362,2.6352,2.7554,2.8301,2.8301,2.9023,2.957,2.957,3.0332,3.0898,3.0898,3.0898,3.0898,3.0898,3.1652,3.2436,3.3077,3.3845,3.4958,3.6487,3.7133,3.7902,3.8687,3.9362,3.9697,3.9697,3.9697,3.9697,3.9697,3.9697,3.9697,3.9697,3.9697,3.9697,3.9697,3.9697,3.9697,3.9697,3.9697,3.9697,3.9697,3.9697,3.9697,3.9697,3.9697,3.9697,3.9697,3.9697,3.9697,3.9747,4.0049,4.0149,3.9935,3.9056,3.7973,3.675,3.5494,3.4652,3.4379,3.5605,3.6248,3.7088,3.9218,3.9024,3.855,3.9541,4.0412,4.1206,4.2061,4.3767,4.5036,4.5331,4.6091,4.6954,4.7481,4.7556,4.7782,4.8309,4.8385,4.851,4.8812,4.9088,4.9238,4.9238,4.9464,4.949,4.9238,4.9163,4.9038,4.8862,4.8812,4.8912,4.9213,4.9238,4.9364,4.959,4.959,4.959,4.959,4.959,4.959,4.959,4.959,4.9766,5.0017,4.9715,4.9766,5.0017,4.9715,4.959,4.959,4.959,4.959,4.959]},{"header":{"parameterUnit":"m.s-1","parameterCategory":1,"la1":30.6,"la2":28.766,"lo1":-90.7593,"lo2":-88.6598,"dy":0.0162,"dx":0.0183,"nx":116,"ny":114,"refTime":"2023-06-02T12:00:00:Z","depth":0,"parameterNumber":3,"parameterNumberName":"V-component_of_WINDS"},"data":[0.0,0.0,0.0,0.0,0.0,0.0,0.0,0.0,0.0,0.0,0.0,0.0,0.0,0.0,0.0,0.0,0.0,0.0,0.0,0.0,0.0,0.0,0.0,0.0,0.0,0.0,0.0,0.0,0.0,0.0,0.0,0.0,0.0,0.0,0.0,0.0,0.0,0.0,0.0,0.0,0.0,0.0,0.0,0.0,0.0,0.0,0.0,0.0,0.0,0.0,0.0,0.0,0.0,0.0,0.0,0.0,0.0,0.0,0.0,0.0,0.0,0.0,0.0,0.0,0.0,0.0,0.0,0.0,0.0,0.0,0.0,0.0,0.0,0.0,0.0,0.0,0.0,0.0,0.0,0.0,0.0,0.0,0.0,0.0,0.0,0.0,0.0,0.0,0.0,0.0,0.0,0.0,0.0,0.0,0.0,0.0,0.0,0.0,0.0,0.0,0.0,0.0,0.0,0.0,0.0,0.0,0.0,0.0,0.0,0.0,0.0,0.0,0.0,0.0,0.0,0.0,0.0,0.0,0.0,0.0,0.0,0.0,0.0,0.0,0.0,0.0,0.0,0.0,0.0,0.0,0.0,0.0,0.0,0.0,0.0,0.0,0.0,0.0,0.0,0.0,0.0,0.0,0.0,0.0,0.0,0.0,0.0,0.0,0.0,0.0,0.0,0.0,0.0,0.0,0.0,0.0,0.0,0.0,0.0,0.0,0.0,0.0,0.0,0.0,0.0,0.0,0.0,0.0,0.0,0.0,0.0,0.0,0.0,0.0,0.0,0.0,0.0,0.0,0.0,0.0,0.0,0.0,0.0,0.0,0.0,0.0,0.0,0.0,0.0,0.0,0.0,0.0,0.0,0.0,0.0,0.0,0.0,0.0,0.0,0.0,0.0,0.0,0.0,0.0,0.0,0.0,0.0,0.0,0.0,0.0,0.0,0.0,0.0,0.0,0.0,0.0,0.0,0.0,0.0,0.0,0.0,0.0,0.0,0.0,0.0,0.0,0.0,0.0,0.0,0.0,0.0,0.0,0.0,0.0,0.0,0.0,0.0,0.0,0.0,0.0,0.0,0.0,0.0,0.0,0.0,0.0,0.0,0.0,0.0,0.0,0.0,0.0,0.0,0.0,0.0,0.0,0.0,0.0,0.0,0.0,0.0,0.0,0.0,0.0,0.0,0.0,0.0,0.0,0.0,0.0,0.0,0.0,0.0,0.0,0.0,0.0,0.0,0.0,0.0,0.0,0.0,0.0,0.0,0.0,0.0,0.0,0.0,0.0,0.0,0.0,0.0,0.0,0.0,0.0,0.0,0.0,0.0,0.0,0.0,0.0,0.0,0.0,0.0,0.0,0.0,0.0,0.0,0.0,0.0,0.0,0.0,0.0,0.0,0.0,0.0,0.0,0.0,0.0,0.0,0.0,0.0,0.0,0.0,0.0,0.0,0.0,0.0,0.0,0.0,0.0,0.0,0.0,0.0,0.0,0.0,0.0,0.0,0.0,0.0,0.0,0.0,0.0,0.0,0.0,0.0,0.0,0.0,0.0,0.0,0.0,0.0,0.0,0.0,0.0,0.0,0.0,0.0,0.0,0.0,0.0,0.0,0.0,0.0,0.0,0.0,0.0,0.0,0.0,0.0,0.0,0.0,0.0,0.0,0.0,0.0,0.0,0.0,0.0,0.0,0.0,0.0,0.0,0.0,0.0,0.0,0.0,0.0,0.0,0.0,0.0,0.0,0.0,0.0,0.0,0.0,0.0,0.0,0.0,0.0,0.0,0.0,0.0,0.0,0.0,0.0,0.0,0.0,0.0,0.0,0.0,0.0,0.0,0.0,0.0,0.0,0.0,0.0,0.0,0.0,0.0,0.0,0.0,0.0,0.0,0.0,0.0,0.0,0.0,0.0,0.0,0.0,0.0,0.0,0.0,0.0,0.0,0.0,0.0,0.0,0.0,0.0,0.0,0.0,0.0,0.0,0.0,0.0,0.0,0.0,0.0,0.0,0.0,0.0,0.0,0.0,0.0,0.0,0.0,0.0,0.0,0.0,0.0,0.0,0.0,0.0,0.0,0.0,0.0,0.0,0.0,0.0,0.0,0.0,0.0,0.0,0.0,0.0,0.0,0.0,0.0,0.0,0.0,0.0,0.0,0.0,0.0,0.0,0.0,0.0,0.0,0.0,0.0,0.0,0.0,0.0,0.0,0.0,0.0,0.0,0.0,0.0,0.0,0.0,0.0,0.0,0.0,0.0,0.0,0.0,0.0,0.0,0.0,0.0,0.0,0.0,0.0,0.0,0.0,0.0,0.0,0.0,0.0,0.0,0.0,0.0,0.0,0.0,0.0,0.0,0.0,0.0,0.0,0.0,0.0,0.0,0.0,0.0,0.0,0.0,0.0,0.0,0.0,0.0,0.0,0.0,0.0,0.0,0.0,0.0,0.0,0.0,0.0,0.0,0.0,0.0,0.0,0.0,0.0,0.0,0.0,0.0,0.0,0.0,0.0,0.0,0.0,0.0,0.0,0.0,0.0,0.0,0.0,0.0,0.0,0.0,0.0,0.0,0.0,0.0,0.0,0.0,0.0,0.0,0.0,0.0,0.0,0.0,0.0,0.0,0.0,0.0,0.0,0.0,0.0,0.0,0.0,0.0,0.0,0.0,0.0,0.0,0.0,0.0,0.0,0.0,0.0,0.0,0.0,0.0,0.0,0.0,0.0,0.0,0.0,0.0,0.0,0.0,0.0,0.0,0.0,0.0,0.0,0.0,0.0,0.0,0.0,0.0,0.0,0.0,0.0,0.0,0.0,0.0,0.0,0.0,0.0,0.0,0.0,0.0,0.0,0.0,0.0,0.0,0.0,0.0,0.0,0.0,0.0,0.0,0.0,0.0,0.0,0.0,0.0,0.0,0.0,0.0,0.0,0.0,0.0,0.0,0.0,0.0,0.0,0.0,0.0,0.0,0.0,0.0,0.0,0.0,0.0,0.0,0.0,0.0,0.0,0.0,0.0,0.0,0.0,0.0,0.0,0.0,0.0,0.0,0.0,0.0,0.0,0.0,0.0,0.0,0.0,0.0,0.0,0.0,0.0,0.0,0.0,0.0,0.0,0.0,0.0,0.0,0.0,0.0,0.0,0.0,0.0,0.0,0.0,0.0,0.0,0.0,0.0,0.0,0.0,0.0,0.0,0.0,0.0,0.0,0.0,0.0,0.0,0.0,0.0,0.0,0.0,0.0,0.0,0.0,0.0,0.0,0.0,0.0,0.0,0.0,0.0,0.0,0.0,0.0,0.0,0.0,0.0,0.0,0.0,0.0,0.0,0.0,0.0,0.0,0.0,0.0,0.0,0.0,0.0,0.0,0.0,0.0,0.0,0.0,0.0,0.0,0.0,0.0,0.0,0.0,0.0,0.0,0.0,0.0,0.0,0.0,0.0,0.0,0.0,0.0,0.0,0.0,0.0,0.0,0.0,0.0,0.0,0.0,0.0,0.0,0.0,0.0,0.0,0.0,0.0,0.0,0.0,0.0,0.0,0.0,0.0,0.0,0.0,0.0,0.0,0.0,0.0,0.0,0.0,0.0,0.0,0.0,0.0,0.0,0.0,0.0,0.0,0.0,0.0,0.0,0.0,0.0,0.0,0.0,0.0,0.0,0.0,0.0,0.0,0.0,0.0,0.0,0.0,0.0,0.0,0.0,0.0,0.0,0.0,0.0,0.0,0.0,0.0,0.0,0.0,0.0,0.0,0.0,0.0,0.0,0.0,0.0,0.0,0.0,0.0,0.0,0.0,0.0,0.0,0.0,0.0,0.0,0.0,0.0,0.0,0.0,0.0,0.0,0.0,0.0,0.0,0.0,0.0,0.0,0.0,0.0,0.0,0.0,0.0,0.0,0.0,0.0,0.0,0.0,0.0,0.0,0.0,0.0,0.0,0.0,0.0,0.0,0.0,0.0,0.0,0.0,0.0,0.0,0.0,0.0,0.0,0.0,0.0,0.0,0.0,0.0,0.0,0.0,0.0,0.0,0.0,0.0,0.0,0.0,0.0,0.0,0.0,0.0,0.0,0.0,0.0,0.0,0.0,0.0,0.0,0.0,0.0,0.0,0.0,0.0,0.0,0.0,0.0,0.0,0.0,0.0,0.0,0.0,0.0,0.0,0.0,0.0,0.0,0.0,0.0,0.0,0.0,0.0,0.0,0.0,0.0,0.0,0.0,0.0,0.0,0.0,0.0,0.0,0.0,0.0,0.0,0.0,0.0,0.0,0.0,0.0,0.0,0.0,0.0,0.0,0.0,0.0,0.0,0.0,0.0,0.0,0.0,0.0,0.0,0.0,0.0,0.0,0.0,0.0,0.0,0.0,0.0,0.0,0.0,0.0,0.0,0.0,0.0,0.0,0.0,0.0,0.0,0.0,0.0,0.0,0.0,0.0,0.0,0.0,0.0,0.0,0.0,0.0,0.0,0.0,0.0,0.0,0.0,0.0,0.0,0.0,0.0,0.0,0.0,0.0,0.0,0.0,0.0,0.0,0.0,0.0,0.0,0.0,0.0,0.0,0.0,0.0,0.0,0.0,0.0,0.0,0.0,0.0,0.0,0.0,0.0,0.0,0.0,0.0,0.0,0.0,0.0,0.0,0.0,0.0,0.0,0.0,0.0,0.0,0.0,0.0,0.0,0.0,0.0,0.0,0.0,0.0,0.0,0.0,0.0,0.0,0.0,0.0,0.0,0.0,0.0,0.0,0.0,0.0,0.0,0.0,0.0,0.0,0.0,0.0,0.0,0.0,0.0,0.0,0.0,0.0,0.0,0.0,0.0,0.0,0.0,0.0,0.0,0.0,0.0,0.0,0.0,0.0,0.0,0.0,0.0,0.0,0.0,0.0,0.0,0.0,0.0,0.0,0.0,0.0,0.0,0.0,0.0,0.0,0.0,0.0,0.0,0.0,0.0,0.0,0.0,0.0,0.0,0.0,0.0,0.0,0.0,0.0,0.0,0.0,0.0,0.0,0.0,0.0,0.0,0.0,0.0,0.0,0.0,0.0,0.0,0.0,0.0,0.0,0.0,0.0,0.0,0.0,0.0,0.0,0.0,0.0,0.0,0.0,0.0,0.0,0.0,0.0,0.0,0.0,0.0,0.0,0.0,0.0,0.0,0.0,0.0,0.0,0.0,0.0,0.0,0.0,0.0,0.0,0.0,0.0,0.0,0.0,0.0,0.0,0.0,0.0,0.0,0.0,0.0,0.0,0.0,0.0,0.0,0.0,0.0,0.0,0.0,0.0,0.0,0.0,0.0,0.0,0.0,0.0,0.0,0.0,0.0,0.0,0.0,0.0,0.0,0.0,0.0,0.0,0.0,0.0,0.0,0.0,0.0,0.0,0.0,0.0,0.0,0.0,0.0,0.0,0.0,0.0,0.0,0.0,0.0,0.0,0.0,0.0,0.0,0.0,0.0,0.0,0.0,0.0,0.0,0.0,0.0,0.0,0.0,0.0,0.0,0.0,0.0,0.0,0.0,0.0,0.0,0.0,0.0,0.0,0.0,0.0,0.0,0.0,0.0,0.0,0.0,0.0,0.0,0.0,0.0,0.0,0.0,0.0,0.0,0.0,0.0,0.0,0.0,0.0,0.0,0.0,0.0,0.0,0.0,0.0,0.0,0.0,0.0,0.0,0.0,0.0,0.0,0.0,0.0,0.0,0.0,0.0,0.0,0.0,0.0,0.0,0.0,0.0,0.0,0.0,0.0,0.0,0.0,0.0,0.0,0.0,0.0,0.0,0.0,0.0,0.0,0.0,0.0,0.0,0.0,0.0,0.0,0.0,0.0,0.0,0.0,0.0,0.0,0.0,0.0,0.0,0.0,0.0,0.0,0.0,0.0,0.0,0.0,0.0,0.0,0.0,0.0,0.0,0.0,0.0,0.0,0.0,0.0,0.0,0.0,0.0,0.0,0.0,0.0,0.0,0.0,0.0,0.0,0.0,0.0,0.0,0.0,0.0,0.0,0.0,0.0,0.0,0.0,0.0,0.0,0.0,0.0,0.0,0.0,0.0,0.0,0.0,0.0,0.0,0.0,0.0,0.0,0.0,0.0,0.0,0.0,0.0,0.0,0.0,0.0,1.6928,1.6066,0.0,0.0,0.0,0.0,0.0,0.0,0.0,0.0,0.0,0.0,0.0,0.0,0.0,0.0,0.0,0.0,0.0,0.0,0.0,0.0,0.0,0.0,0.0,0.0,0.0,0.0,0.0,0.0,0.0,0.0,0.0,0.0,0.0,0.0,0.0,0.0,0.0,2.7009,2.7764,2.8151,2.826,2.7835,2.8429,2.9805,0.0,0.0,0.0,0.0,0.0,0.0,0.0,0.0,0.0,0.0,0.0,0.0,0.0,0.0,0.0,0.0,0.0,0.0,0.0,0.0,0.0,0.0,0.0,0.0,0.0,0.0,0.0,0.0,0.0,0.0,0.0,0.0,0.0,0.0,0.0,0.0,0.0,0.0,0.0,0.0,0.0,0.0,0.0,0.0,0.0,0.0,0.0,0.0,0.0,0.0,0.0,0.0,0.0,0.0,0.0,0.0,0.0,0.0,0.0,0.0,0.0,0.0,0.0,0.0,0.0,0.0,0.0,0.0,0.0,0.0,1.3358,1.2269,0.0,0.0,0.0,0.0,0.0,0.0,0.0,0.0,0.0,0.0,0.0,0.0,0.0,0.0,0.0,0.0,0.0,0.0,0.0,0.0,0.0,0.0,0.0,2.6985,2.6425,2.5895,2.4735,2.3607,0.0,0.0,0.0,0.0,0.0,0.0,2.4729,2.6098,2.7139,2.7924,2.823,2.7837,2.6751,2.54,2.5677,2.7343,2.8173,0.0,0.0,0.0,0.0,0.0,0.0,0.0,0.0,0.0,0.0,0.0,0.0,0.0,0.0,0.0,0.0,0.0,0.0,0.0,0.0,0.0,0.0,0.0,0.0,0.0,0.0,0.0,0.0,0.0,0.0,0.0,0.0,0.0,0.0,0.0,0.0,0.0,0.0,0.0,0.0,0.0,0.0,0.0,0.0,0.0,0.0,0.0,0.0,0.0,0.0,0.0,0.0,0.0,0.0,0.0,0.0,0.0,0.0,0.0,0.0,0.0,0.0,0.0,1.5796,1.5364,1.5538,1.5297,1.4062,1.1931,1.1568,0.9988,0.7624,0.7502,0.0,0.0,0.0,0.0,0.0,0.0,0.0,0.0,0.0,0.0,0.0,0.0,0.0,0.0,0.0,0.0,0.0,0.0,0.0,0.0,0.0,2.785,2.7556,2.7653,2.6629,2.5154,2.3352,0.0,0.0,0.0,0.0,0.0,2.6171,2.7612,2.8432,2.8762,2.58,2.3558,2.2091,2.0807,2.0098,1.9951,2.3546,2.5968,2.7401,0.0,0.0,0.0,0.0,0.0,0.0,0.0,0.0,0.0,0.0,0.0,0.0,0.0,0.0,0.0,0.0,0.0,0.0,0.0,0.0,0.0,0.0,0.0,0.0,0.0,0.0,0.0,0.0,0.0,0.0,0.0,0.0,0.0,0.0,0.0,0.0,0.0,0.0,0.0,0.0,0.0,2.3744,1.9502,0.0,0.0,0.0,0.0,0.0,0.0,0.0,0.0,0.0,0.0,0.0,0.0,0.0,1.547,1.6074,1.5843,1.5893,1.6346,1.6464,1.6366,1.6152,1.6112,1.5185,1.3527,1.2352,0.0,0.778,0.776,0.0,0.0,0.0,0.0,0.0,0.0,0.0,0.0,0.0,0.0,0.0,0.0,0.0,0.0,0.0,0.0,0.0,0.0,0.0,0.0,0.0,2.9431,2.886,2.8285,2.7048,2.5664,2.4233,2.3912,0.0,0.0,0.0,2.6412,2.8259,2.8306,2.7357,2.5414,2.1907,1.9282,1.7593,1.579,1.4413,1.3492,1.5,1.8423,2.3126,2.3728,0.0,0.0,0.0,0.0,0.0,0.0,0.0,0.0,0.0,0.0,0.0,0.0,0.0,0.0,0.0,0.0,0.0,0.0,0.0,0.0,0.0,0.0,0.0,0.0,0.0,0.0,0.0,0.0,0.0,0.0,0.0,0.0,0.0,0.0,0.0,0.0,0.0,0.0,0.0,2.5515,2.336,1.984,1.9295,1.8311,0.0,0.0,0.0,0.0,0.0,0.0,0.0,0.0,0.0,1.4899,1.5248,1.5813,1.6437,1.646,1.6513,1.6513,1.6473,1.6393,1.6259,1.6099,1.5268,1.3872,1.3295,1.1492,0.8999,0.8132,0.8013,0.8442,0.0,0.0,0.0,0.0,1.0126,0.9714,0.0,0.0,0.0,0.0,0.0,0.0,0.0,0.0,0.0,0.0,0.0,0.0,3.1149,3.0667,2.9813,2.8671,2.7645,2.6419,2.4964,2.4971,2.5245,2.581,2.6489,2.7622,2.9287,2.7777,2.5428,2.2326,1.8676,1.5925,1.4128,1.175,0.9966,0.8702,0.785,1.1211,1.7658,1.8588,2.0861,2.3998,0.0,0.0,0.0,0.0,0.0,0.0,0.0,0.0,0.0,0.0,0.0,0.0,0.0,0.0,0.0,0.0,0.0,0.0,0.0,0.0,0.0,0.0,0.0,0.0,0.0,0.0,0.0,0.0,0.0,0.0,0.0,0.0,0.0,0.0,0.0,0.0,0.0,2.4921,2.4006,2.0845,1.9731,1.8476,0.0,0.0,0.0,0.0,0.0,0.0,1.4436,1.6155,1.6588,1.5245,1.5927,1.652,1.7157,1.7157,1.7015,1.682,1.6607,1.642,1.6259,1.6046,1.5408,1.4364,1.4064,1.2619,1.0378,0.8975,0.8132,0.7801,0.7692,0.819,0.8792,0.7879,0.8153,0.8722,0.0,0.0,0.0,0.0,0.0,0.0,0.0,0.0,0.0,0.0,0.0,3.098,3.1853,3.1028,3.0027,2.9141,2.9079,2.8015,2.5523,2.6954,2.7696,2.7284,2.7627,2.7969,2.8259,2.5415,2.3062,2.126,1.7064,1.4112,1.2298,0.9607,0.7701,0.647,0.4578,0.6331,1.0654,1.1944,1.4024,1.6741,1.9273,0.0,0.0,0.0,0.0,0.0,0.0,0.0,0.0,0.0,0.0,0.0,0.0,0.0,0.0,0.0,0.0,0.0,0.0,0.0,0.0,0.0,0.0,0.0,0.0,0.0,0.0,0.0,0.0,0.0,0.0,0.0,0.0,0.0,0.0,0.0,0.0,0.0,0.0,2.1533,2.0554,0.0,0.0,0.0,0.0,1.4583,1.4694,1.4849,1.5132,1.4653,1.4714,1.5704,1.6869,1.7482,1.7542,1.7542,1.7408,1.7128,1.7114,1.6807,1.6273,1.6259,1.6099,1.5629,1.4459,1.3102,1.1658,1.0378,0.9104,0.7814,0.7801,0.7719,0.7691,0.7597,0.7597,0.7691,0.0,0.0,0.0,0.0,0.0,0.0,0.0,0.0,2.9403,3.1242,3.101,3.1319,3.2928,3.101,2.939,2.8752,2.7554,2.6244,2.4891,2.6318,2.7108,2.6889,2.7731,2.7172,2.4913,2.3547,2.1107,1.7596,1.4567,1.1814,0.922,0.7062,0.4683,0.228,0.1654,0.1005,0.0588,0.4977,0.776,0.9512,1.278,1.5624,0.0,0.0,0.0,0.0,0.0,0.0,0.0,0.0,0.0,0.0,0.0,0.0,0.0,0.0,0.0,0.0,0.0,0.0,0.0,0.0,0.0,0.0,0.0,0.0,0.0,0.0,0.0,0.0,0.0,0.0,0.0,0.0,0.0,0.0,0.0,0.0,0.0,2.2832,2.1631,0.0,1.8675,1.6657,1.5549,1.5658,1.5896,1.6143,1.6321,1.6325,1.6547,1.6938,1.7422,1.7499,1.7184,1.7184,1.7048,1.6593,1.6593,1.638,1.5992,1.5992,1.5925,1.5737,1.5343,1.3884,1.1853,1.1365,0.996,0.7957,0.7957,0.7929,0.7882,0.7882,0.7821,0.7733,0.0,0.0,0.0,0.0,0.0,0.0,0.0,0.0,3.0289,3.164,3.139,3.1483,3.2428,3.045,2.8612,2.7501,2.6483,2.5655,2.5066,2.6272,2.7199,2.7562,2.7371,2.5841,2.2801,2.1799,1.9386,1.5525,1.3362,1.0779,0.7921,0.5701,0.3377,0.0959,0.0,-0.2139,-0.4826,-0.1222,0.0922,0.2057,0.5137,0.8216,1.1578,0.0,0.0,0.0,0.0,0.0,0.0,0.0,0.0,0.0,0.0,0.0,0.0,0.0,0.0,0.0,0.0,0.0,0.0,0.0,0.0,0.0,0.0,0.0,0.0,0.0,0.0,0.0,0.0,0.0,0.0,0.0,0.0,0.0,0.0,2.6528,2.6476,2.4277,2.242,2.0912,1.9761,1.7529,1.6196,1.642,1.6687,1.6786,1.6764,1.8175,1.8508,1.7288,1.7901,1.7805,1.6777,1.6879,1.674,1.6273,1.6273,1.6112,1.5832,1.5832,1.5832,1.5832,1.5832,1.4567,1.2522,1.2522,1.1258,0.9213,0.8329,0.8038,0.7939,0.7534,0.7248,0.7215,0.0,0.0,0.0,0.0,0.0,0.0,0.0,2.975,3.1118,3.0935,3.1476,3.1431,3.0332,2.9281,2.7721,2.5508,2.6118,2.6395,2.5952,2.6971,2.8131,2.9358,2.6527,2.4085,2.2193,2.0113,1.788,1.5405,1.3507,1.1193,0.8483,0.5532,0.3704,0.2652,-0.0305,-0.2895,-0.5059,-0.6394,-0.6523,-0.5555,-0.3542,0.0214,0.5416,0.0,0.0,0.0,0.0,0.0,0.0,0.0,0.0,0.0,0.0,0.0,0.0,0.0,0.0,0.0,0.0,0.0,0.0,0.0,0.0,0.0,0.0,0.0,0.0,0.0,0.0,0.0,0.0,0.0,0.0,0.0,0.0,0.0,2.8171,2.747,2.6604,2.5783,2.3036,2.085,2.0046,1.8003,1.6727,1.6727,1.6981,1.6905,1.65,1.9755,2.0153,1.6827,1.8714,1.8714,1.646,1.6673,1.6639,1.6357,1.6357,1.6112,1.5832,1.5832,1.5832,1.5832,1.5832,1.5045,1.3872,1.3872,1.3102,1.1658,0.9114,0.8131,0.7925,0.662,0.6147,0.6107,0.0,0.0,0.0,0.0,0.0,0.0,0.0,3.009,3.1131,3.1175,3.1167,3.1087,3.0888,2.8479,2.6595,2.588,2.511,2.4633,2.4559,2.5811,2.6724,2.7023,2.4944,2.3054,2.1555,1.9547,1.7444,1.5277,1.3457,1.0882,0.7451,0.5241,0.2904,0.0518,-0.1724,-0.4365,-0.7328,-0.8436,-0.9797,-1.0939,-0.9,-0.6471,-0.3016,0.0,0.0,0.0,0.0,0.0,0.0,0.0,0.0,0.0,0.0,0.0,0.0,0.0,0.0,0.0,0.0,0.0,0.0,0.0,0.0,0.0,0.0,0.0,0.0,0.0,0.0,0.0,0.0,0.0,0.0,0.0,2.8142,2.8721,2.8171,2.7767,2.7239,2.6626,2.3625,2.1512,2.1213,1.8891,1.7341,1.7341,1.8579,1.9096,1.8326,2.0116,2.0221,1.8079,1.9434,1.9408,1.762,1.8571,1.8404,1.7363,1.7363,1.6753,1.5832,1.5832,1.5832,1.5832,1.5832,1.5045,1.3872,1.3872,1.3102,1.1853,1.1072,1.0678,1.0446,1.0149,0.975,0.9357,0.0,0.0,0.0,0.0,0.0,0.0,0.0,3.0247,3.1086,3.0855,3.0925,3.0696,2.9922,2.7978,2.6381,2.5456,2.4734,2.4468,2.4676,2.5797,2.6281,2.574,2.3927,2.2352,2.1062,1.9365,1.7384,1.5223,1.3808,1.1432,0.8271,0.606,0.3714,0.1261,-0.1296,-0.4191,-0.7261,-0.8941,-1.0881,-1.2789,-1.1894,-1.0316,-0.7612,0.1084,0.8731,1.605,2.5815,3.2448,3.6674,3.7558,0.0,0.0,0.0,0.0,0.0,0.0,0.0,0.0,0.0,0.0,0.0,0.0,0.0,0.0,0.0,0.0,0.0,0.0,0.0,0.0,0.0,0.0,0.0,0.0,2.8574,2.9247,2.9193,2.861,2.8113,2.7974,2.4948,2.2839,2.255,2.0397,1.9008,1.9008,1.9836,2.0006,1.9434,2.0801,2.0749,1.9003,2.0272,2.0268,1.8707,1.9346,1.9342,1.8411,1.8411,1.8041,1.739,1.739,1.739,1.7296,1.6842,1.6183,1.5481,1.481,1.4111,0.0,0.0,0.0,0.0,0.0,1.0213,0.9883,0.0,0.0,0.0,0.0,0.0,0.0,0.0,3.0266,3.0964,3.0261,3.0657,3.0264,2.8351,2.7632,2.6571,2.4794,2.4821,2.5114,2.558,2.6231,2.6185,2.5227,2.3528,2.2038,2.0758,1.948,1.7707,1.533,1.4336,1.2464,0.9873,0.7409,0.5311,0.3502,-0.0068,-0.3063,-0.5748,-0.8328,-1.0553,-1.2398,-1.2621,-1.1491,-0.8739,-0.0489,0.7122,1.4791,2.5443,3.2511,3.7065,3.8491,0.0,0.0,0.0,0.0,0.0,0.0,0.0,0.0,0.0,0.0,0.0,0.0,0.0,0.0,0.0,0.0,0.0,0.0,0.0,0.0,0.0,0.0,0.0,0.0,2.9202,3.0156,3.0633,2.9699,2.908,2.9353,2.6558,2.4412,2.3797,2.2021,2.095,2.095,2.0751,2.0516,2.0135,2.1679,0.0,0.0,0.0,2.1316,1.9679,1.9861,1.9861,1.9679,1.9679,1.9679,1.9497,1.9497,1.9497,1.9405,1.8411,1.7747,1.7517,1.6132,1.5443,1.5101,1.2741,1.1807,1.1651,1.0012,0.9491,0.9605,0.0,0.0,0.0,0.0,0.0,0.0,0.0,3.0165,3.0867,3.0149,3.0213,2.9881,2.8561,2.7008,2.5892,2.5584,2.4954,2.4891,2.562,2.5091,2.4843,2.5189,2.3967,2.2759,2.154,2.0192,1.8248,1.5683,1.4909,1.2785,0.9467,0.7693,0.5992,0.4294,0.0131,-0.2876,-0.502,-0.7678,-1.0231,-1.247,-1.0677,-0.833,-0.5322,-0.008,0.8072,1.7567,2.5102,3.2177,3.8118,3.9406,4.064,4.1228,3.9298,3.8311,0.0,0.0,0.0,0.0,0.0,0.0,0.0,0.0,0.0,0.0,0.0,0.0,0.0,0.0,0.0,0.0,0.0,0.0,0.0,2.875,3.0055,3.111,3.1235,3.0698,3.0106,2.9612,2.6436,2.4137,2.4047,2.1935,2.0475,2.0475,2.1483,2.1861,2.1472,2.274,2.2734,2.1033,2.2213,2.2213,2.0926,2.1943,2.1943,2.0926,0.0,0.0,1.9497,1.9497,1.9497,1.9497,1.9222,1.8422,1.7251,1.701,1.5984,1.4595,1.4141,1.3964,1.3736,1.2238,1.2784,1.428,0.0,0.0,0.0,0.0,0.0,0.0,0.0,2.979,3.0376,2.9958,2.9989,2.9497,2.8106,2.7101,2.629,2.5625,2.5103,2.5106,2.5782,2.4989,2.4814,2.5566,2.3906,2.2875,2.2579,2.105,1.9331,1.7352,1.6417,1.4373,1.1393,0.9715,0.8128,0.6453,0.2458,-0.0687,-0.3347,-0.6698,-0.8942,-1.0036,-0.7136,-0.2964,0.1673,0.4091,1.0949,2.0202,2.6861,3.3354,3.8899,3.9563,4.0957,4.2011,3.9845,3.912,3.8756,0.0,0.0,0.0,0.0,0.0,0.0,0.0,0.0,0.0,0.0,0.0,0.0,0.0,0.0,3.0147,2.9464,0.0,2.8943,2.9212,2.9919,3.044,3.0171,3.0437,3.0381,2.969,2.7734,2.608,2.5209,2.3736,2.2723,2.211,2.2502,2.2662,2.2475,2.3102,2.3075,2.2227,2.2775,2.2775,2.2208,2.2775,2.2775,2.2208,2.2208,2.1854,2.132,2.132,2.132,2.1302,2.0464,1.9652,1.8902,1.7858,1.6556,1.512,1.5712,1.5219,1.4282,1.4082,1.4685,1.5749,0.0,0.0,0.0,0.0,0.0,0.0,0.0,2.9452,2.9832,2.9695,2.949,2.8845,2.7587,2.7128,2.6544,2.5571,2.5236,2.5361,2.6098,2.5207,2.4978,2.5711,2.379,2.293,2.3516,2.2019,2.0598,1.9158,1.8266,1.6527,1.4007,1.2476,1.1082,0.9599,0.6352,0.2965,-0.0461,-0.3991,-0.5791,-0.602,-0.2371,0.3171,0.9369,1.0807,1.5908,2.3162,2.9515,3.4823,3.8863,3.917,4.0473,4.1567,3.9413,3.9081,3.9061,3.6933,3.7094,0.0,0.0,0.0,0.0,0.0,0.0,0.0,0.0,3.39,3.3855,3.3118,3.2523,3.2181,3.2292,3.0733,2.9487,2.9748,2.9989,2.9798,2.9024,2.991,3.0388,2.976,2.907,2.8041,2.6671,2.5934,2.5288,2.4432,2.4022,2.3714,2.3714,2.3714,2.3714,2.3714,2.3714,2.3714,2.3714,2.3714,2.3714,2.3714,2.356,2.3474,2.3387,2.3212,2.3086,2.2901,2.1225,2.049,2.035,1.8465,1.702,1.6108,1.6927,1.6206,1.4824,1.5711,1.6191,1.6553,0.0,0.0,0.0,0.0,0.0,0.0,0.0,0.0,2.9383,2.9352,2.8191,2.7382,2.7553,2.624,2.5559,2.613,2.5427,2.5399,2.6544,2.5086,2.4384,2.4829,2.3819,2.3401,2.3569,2.3103,2.1983,2.0229,2.0103,1.8741,1.6237,1.5373,1.4565,1.3752,1.1735,0.8509,0.4514,0.2795,0.0971,-0.0426,0.3845,0.9145,1.5125,2.0458,2.4273,2.7411,3.2344,3.5294,3.7015,3.8151,3.8929,3.9231,3.7582,3.78,3.8116,3.5367,3.5677,3.6654,3.5609,3.6,3.687,3.7747,3.6791,3.6108,0.0,3.714,3.6137,3.5682,3.4792,3.3841,3.3037,3.2316,3.1512,3.0429,3.1247,3.1304,2.9738,3.0131,3.0378,2.9849,2.8809,2.8122,2.7928,2.6985,2.6302,2.6218,2.6174,2.6152,2.6152,2.6152,2.6152,2.6152,2.6152,2.6152,2.6152,2.6152,2.6152,2.6152,2.5126,2.4617,2.4532,2.3541,2.293,2.2454,2.0504,1.9761,1.9642,1.7975,1.7286,1.709,1.7253,1.7172,1.6927,1.709,1.7738,1.8621,0.0,0.0,0.0,0.0,0.0,0.0,0.0,0.0,0.0,2.8745,2.8351,2.7977,2.7453,2.6784,2.6498,2.6792,2.6451,2.6628,2.7518,2.6172,2.5586,2.6197,2.4743,2.4081,2.4391,2.3701,2.2765,2.1559,2.1729,2.07,1.8656,1.8305,1.7669,1.6651,1.4404,1.1247,0.7394,0.4119,0.3067,0.4092,0.8941,1.4135,1.9649,2.6178,2.9511,3.1075,3.3901,3.6075,0.0,3.7774,3.7966,3.7873,3.6313,3.5975,3.5873,3.4321,3.5169,3.7017,3.854,3.7985,3.7435,3.9235,3.8928,3.8369,3.8776,3.8707,3.8511,3.8233,3.7275,3.6388,3.5871,3.4043,3.2372,3.1835,3.1736,3.1148,2.9772,3.0425,3.0758,2.9905,2.9365,2.8846,2.8164,2.7683,2.7197,2.6565,2.6483,2.6483,2.6483,2.6483,2.6483,2.6483,2.6483,2.6483,2.6483,2.6483,2.6483,2.6483,2.6047,2.5797,2.5797,2.4933,2.3846,2.2514,2.1105,2.0074,1.9254,1.8934,1.844,1.7952,1.8285,1.8787,1.9108,1.8522,1.8921,1.9925,0.0,0.0,0.0,0.0,0.0,0.0,0.0,0.0,0.0,0.0,2.8514,2.8247,2.722,2.7344,2.7556,2.7621,2.7565,2.7673,2.8057,2.7086,2.6517,2.6619,2.5134,2.4591,2.5121,2.4287,2.3559,2.3023,2.3143,2.239,2.0804,2.0813,2.0178,1.8994,1.7216,1.4556,1.1243,0.7276,0.7023,0.9646,1.3922,1.8379,2.3088,2.9025,3.1823,3.2755,3.4715,3.63,3.7423,3.7115,3.6927,3.6591,3.495,3.4376,3.4164,3.3278,3.4458,3.6693,3.9446,3.8958,3.8073,3.9953,4.0539,4.0493,3.9921,4.0358,4.0885,4.0642,3.9425,3.8329,3.8193,3.5922,3.3759,3.2902,3.2438,3.1625,2.9796,3.0499,3.0834,2.9905,2.9804,2.9599,2.9032,2.8743,2.8267,2.7464,2.7383,2.7383,2.7383,2.7383,2.7383,2.7383,2.7383,2.7383,2.7383,2.7383,2.7383,2.7383,2.7139,2.6885,2.6644,2.5689,2.4469,2.3041,2.2237,2.1133,2.0062,2.0452,2.0103,1.9351,1.9793,2.0389,2.0899,2.0266,2.0367,2.0927,0.0,0.0,0.0,0.0,0.0,0.0,0.0,0.0,0.0,0.0,0.0,0.0,0.0,2.7589,2.8261,2.8723,2.8521,2.8184,2.7736,2.7385,2.6527,2.5024,2.4591,2.4753,2.5466,2.4957,2.4617,2.4542,2.4346,2.3708,2.2617,2.262,2.1951,2.0724,2.1058,1.9703,1.7078,1.4809,1.5081,1.7213,1.8988,2.1794,2.5186,2.873,3.054,3.1634,3.4754,3.5607,3.5296,3.5781,3.5619,3.4986,3.3317,3.3318,3.3717,3.2201,3.3057,3.4785,3.6345,3.7433,3.8456,3.9485,4.0955,4.2092,4.1936,4.2489,4.2959,4.2822,4.0786,3.908,3.9038,3.7959,3.6143,3.3233,3.3824,3.3488,3.0049,3.018,3.0432,2.9854,2.9804,3.0139,3.1018,3.0266,2.9702,2.9702,2.9702,2.9702,2.9702,2.9702,2.9702,2.9702,2.9702,2.9702,2.9702,2.9702,2.9702,2.9702,2.8609,2.7743,2.7221,2.5196,2.4212,2.4167,2.3601,2.3112,2.2595,2.2573,2.2284,2.1793,2.1771,2.184,2.1907,2.2417,2.2284,2.1885,0.0,0.0,0.0,0.0,0.0,0.0,0.0,0.0,0.0,0.0,0.0,0.0,0.0,0.0,0.0,0.0,2.9243,2.9193,2.9039,2.8533,2.7773,2.6673,2.6008,2.5341,2.4707,2.4531,2.4356,2.414,2.4205,2.414,2.3941,2.3007,2.2165,2.1383,1.9736,1.7838,1.5853,1.4676,1.4842,1.6094,1.9105,2.1477,2.358,2.711,2.9065,3.0213,0.0,3.4182,3.477,3.5281,3.511,3.4615,3.382,3.3384,3.3184,3.331,3.417,3.562,3.8118,3.8905,3.9434,4.1238,4.2157,4.2798,4.3266,4.3568,4.3672,4.3663,4.181,4.0043,3.9439,3.8052,3.655,3.517,3.5107,3.4464,3.2226,3.2708,3.2852,3.1422,3.1898,3.226,3.2146,3.1267,3.0771,3.0771,3.1341,3.1119,2.9856,3.0419,3.0419,2.9779,2.9804,2.9804,2.9804,2.9804,2.9804,2.9779,2.8994,2.8149,2.7262,2.5514,2.4562,2.4141,2.2976,2.231,2.2132,2.1798,2.1575,2.1397,2.1129,2.1615,2.2465,2.2628,2.3148,2.3761,0.0,0.0,0.0,0.0,0.0,0.0,0.0,0.0,0.0,0.0,0.0,0.0,0.0,0.0,0.0,0.0,0.0,2.9093,2.8888,2.8487,2.7913,2.7063,2.636,2.5572,2.4725,2.4183,2.3849,2.3657,2.3479,2.3307,2.3093,2.2445,2.1523,2.0401,1.8892,1.6962,1.4751,1.3739,1.3731,1.4558,1.6677,1.9169,2.197,2.5294,2.7887,0.0,3.2085,3.3724,3.4932,3.5117,3.5056,3.4801,3.4128,3.3402,3.3004,3.3949,3.4706,3.5919,3.8769,3.9409,3.9789,4.2003,4.3008,4.3611,4.4245,4.457,4.4689,4.4556,4.2823,4.1087,4.0418,3.9094,3.7713,3.6596,3.6397,3.5656,3.3822,3.3939,3.3829,3.2675,3.2946,3.3334,3.3452,3.2731,3.2019,3.1756,3.2526,3.2336,3.0872,3.1389,3.1389,3.0846,3.0771,3.0771,3.0771,3.0771,3.0543,2.9985,2.8848,2.7971,2.7268,2.584,2.5026,2.4594,2.3458,2.2838,2.2651,2.2325,2.2069,2.1859,2.1886,2.248,2.3319,2.3803,2.4694,2.551,0.0,0.0,0.0,0.0,0.0,0.0,0.0,0.0,0.0,0.0,0.0,0.0,0.0,0.0,0.0,0.0,0.0,0.0,2.7553,2.7457,2.7059,2.6318,2.5748,2.5425,2.5353,2.3996,2.3261,2.3191,2.2426,2.1522,2.0556,2.1177,2.0316,1.8239,1.8624,1.7179,1.4264,1.2543,1.2384,1.3279,1.2673,1.5581,2.0546,2.3517,2.7104,3.0778,3.2571,3.4308,3.5688,3.525,3.5354,3.5458,3.4256,3.3538,3.3297,3.4017,3.4681,3.5718,3.8285,3.9048,3.9626,4.1794,4.3324,4.4441,4.4829,4.545,4.5844,4.555,4.37,4.2086,4.1955,4.0983,3.9565,3.7459,3.7535,3.7139,3.4899,3.4029,3.3615,3.3706,3.3151,3.3438,3.4917,3.4524,3.3837,3.2876,3.3334,3.3345,3.2621,3.2664,3.2664,3.2593,3.2593,3.2593,3.2566,3.251,3.1809,3.0342,2.8389,2.7384,2.7284,2.6198,2.5668,2.5618,2.5088,2.4558,2.4078,2.4078,2.375,2.3356,2.4073,2.4416,2.4664,2.5813,2.6679,2.7051,0.0,0.0,0.0,0.0,0.0,0.0,0.0,0.0,0.0,0.0,0.0,0.0,0.0,0.0,0.0,0.0,0.0,0.0,2.9397,2.9134,2.8578,2.7772,2.6675,2.5675,2.4813,2.3765,2.3172,2.3127,2.2922,2.2758,2.2623,2.173,2.0705,1.9499,1.8021,1.6239,1.4396,1.3369,1.3301,1.405,1.4991,1.706,2.014,2.4608,2.7692,3.0104,3.3756,3.5816,3.6678,3.5599,3.5265,3.525,3.4697,3.468,3.4883,3.5107,3.6074,3.7305,3.8474,3.9491,4.0617,4.2258,4.3141,4.3933,4.5332,4.5331,4.5155,4.5696,4.4093,4.2474,4.2047,4.1462,4.0613,3.9221,3.917,3.8876,3.739,3.6838,3.6305,3.5438,3.5444,3.5666,3.6125,3.6496,3.6368,3.5631,3.5192,3.4283,3.2692,3.3227,3.3325,3.2593,3.2593,3.2372,3.186,3.1351,3.0692,2.9983,2.9389,2.8663,2.7776,2.7112,2.6519,2.6028,2.5495,2.5145,2.501,2.501,2.5229,2.5503,2.524,2.5983,2.7193,2.701,2.7621,2.8415,0.0,0.0,0.0,0.0,0.0,0.0,0.0,0.0,0.0,0.0,0.0,0.0,0.0,0.0,0.0,0.0,0.0,0.0,0.0,2.8619,2.8138,2.7308,2.6387,2.5403,2.4456,2.3664,2.3105,2.2779,2.2744,2.2512,2.2107,2.1614,2.0929,1.9957,1.8689,1.7303,1.5925,1.4692,1.4545,0.0,0.0,1.8582,2.1729,2.5964,2.9295,3.2173,3.5106,3.6863,3.7625,3.7097,3.6541,3.606,3.6137,3.6007,3.6007,3.6831,3.7414,3.8108,3.9295,4.042,4.1642,4.2988,4.3757,4.4395,4.5201,4.5015,4.4768,4.5053,4.3886,4.2791,4.2854,4.2199,4.1469,4.1016,4.0313,3.9715,3.9337,3.8354,3.7515,3.7168,3.7101,3.7188,3.7555,3.7618,3.7618,3.7555,3.6846,3.5699,3.3973,3.4409,3.4409,3.3905,3.3905,3.3522,3.2892,3.1556,3.0563,3.001,2.9287,2.8491,2.7528,2.701,2.6569,2.6153,0.0,2.5412,2.5412,2.5412,2.5827,2.6382,2.6329,2.7145,2.8304,2.8283,2.8655,2.917,0.0,0.0,0.0,0.0,0.0,0.0,0.0,0.0,0.0,0.0,0.0,0.0,0.0,0.0,0.0,0.0,0.0,0.0,0.0,0.0,2.7005,2.6228,2.5597,2.4956,2.4233,2.3635,2.3054,2.2476,2.2458,2.1857,2.0754,2.1411,2.117,2.0127,1.9941,1.9105,1.7803,1.6298,1.6086,1.6793,1.7675,2.049,2.4585,0.0,3.1656,3.5375,3.6755,3.7877,3.8756,3.9226,3.8443,3.7419,3.7991,3.7495,3.7045,3.8707,3.8674,3.8527,4.0325,4.1387,4.2351,4.3684,4.4623,4.5114,4.4781,4.4681,4.4573,4.4273,4.3569,4.3233,4.3795,4.3159,4.2576,4.2672,4.1375,4.0577,4.1166,3.9374,3.8185,3.8712,3.8207,3.8046,3.8771,3.829,3.8194,3.8771,3.8146,3.7188,3.5876,3.5782,3.5752,3.5661,3.557,3.5208,3.4514,3.2492,3.1187,3.0602,2.9223,2.8215,2.7425,2.689,2.6581,2.647,2.5938,2.5715,2.5854,2.5936,2.6412,2.7145,2.7781,2.8462,2.9189,2.9793,3.0068,3.0038,0.0,0.0,0.0,0.0,0.0,0.0,0.0,0.0,0.0,0.0,3.0468,3.0496,0.0,0.0,0.0,0.0,0.0,0.0,0.0,0.0,0.0,2.7199,2.6012,2.5053,2.4276,2.3548,2.3103,2.2968,2.2949,2.289,2.267,2.279,2.2335,2.1549,2.0773,1.9489,1.7852,1.7571,1.7899,1.8754,2.1439,2.439,2.7637,3.1544,0.0,0.0,3.8803,3.9927,4.0383,4.1019,4.0082,3.875,3.9245,3.927,3.9185,3.9496,3.9458,3.9542,4.0667,4.1284,4.2002,4.3596,4.4308,4.4655,4.4675,4.4609,4.457,4.467,4.4523,4.4298,4.4084,4.4505,4.467,4.3935,4.3729,4.356,4.3375,4.1559,4.0086,3.9715,3.8535,3.8084,3.8799,3.8756,3.8756,3.8854,3.8743,3.8319,3.7472,3.7413,3.7128,3.65,3.5932,3.5355,3.4573,3.3666,3.2804,3.2091,3.1862,3.106,2.9793,2.9235,2.8647,2.805,2.7488,0.0,2.8083,2.8616,2.9571,3.0693,3.0829,3.1615,3.2656,3.2222,3.2431,3.2812,0.0,0.0,0.0,0.0,0.0,0.0,0.0,0.0,3.0441,3.0761,3.0267,3.0055,3.0642,2.9911,0.0,0.0,0.0,0.0,0.0,0.0,0.0,0.0,2.5826,2.4744,2.3721,2.3609,2.3427,2.3065,0.0,2.3427,2.3065,2.3065,2.2884,2.2433,2.1164,2.0117,1.9291,1.8829,1.9293,2.0705,2.4107,2.7133,3.0085,0.0,0.0,0.0,3.947,4.0243,4.0719,4.1885,4.152,4.0616,4.0955,4.0804,4.0558,4.1029,4.0931,4.0915,4.1849,4.2567,4.321,4.3827,4.4608,4.4917,4.3992,4.4196,4.4493,4.4162,4.4412,4.476,4.5006,4.5272,4.5483,4.538,4.4551,4.3965,4.4236,4.2277,4.0735,4.0495,3.9575,3.9102,3.9506,3.9558,3.9558,3.9558,3.9558,3.9049,3.7879,3.747,3.7061,3.671,3.571,3.4974,3.4569,3.3515,3.2652,3.1998,3.1598,3.0863,2.9872,2.9595,2.9265,2.895,2.867,2.8745,2.9086,2.9784,3.0654,3.1552,3.1981,3.272,3.3534,3.3265,3.3104,3.304,0.0,0.0,0.0,0.0,0.0,0.0,0.0,3.0692,3.0522,3.1034,3.0164,2.9763,3.035,2.9848,2.9688,0.0,0.0,0.0,0.0,0.0,0.0,0.0,0.0,0.0,2.315,0.0,0.0,2.3326,2.3904,0.0,0.0,0.0,0.0,0.0,2.1588,2.0846,2.0846,2.0311,2.0986,0.0,0.0,2.9386,3.2097,0.0,0.0,0.0,0.0,4.0139,4.0583,4.2366,4.2421,4.1861,4.2179,4.1983,4.1734,4.2413,4.2334,4.2174,4.3046,4.3826,4.4333,4.419,4.4948,4.5187,4.3221,4.3698,4.4365,4.3461,4.4036,4.4915,4.5544,4.5629,4.5764,4.6249,4.4989,4.4169,4.4733,4.3138,4.1766,4.1488,4.1035,4.0637,4.05,4.0466,4.0466,4.0466,4.0329,3.9598,3.8163,3.7371,3.6886,3.6756,3.5655,3.4975,3.4845,3.3648,3.2689,3.1913,3.1258,3.0575,2.9761,2.9629,2.9585,2.9585,2.9451,2.9566,0.0,3.0615,3.1449,3.2208,3.2935,3.3534,3.4053,3.4053,3.3697,3.3259,0.0,0.0,0.0,0.0,0.0,0.0,0.0,3.0707,3.0412,3.0477,2.996,2.9793,3.0418,2.9961,2.9606,0.0,0.0,0.0,0.0,0.0,0.0,0.0,0.0,0.0,0.0,0.0,0.0,2.3929,2.4481,0.0,0.0,0.0,0.0,0.0,0.0,2.1753,2.1815,2.2421,0.0,0.0,0.0,0.0,0.0,0.0,0.0,0.0,0.0,4.0378,4.0401,4.2667,4.2393,4.1234,4.2028,4.2607,4.2925,4.3004,4.3007,4.3122,4.3753,4.3981,4.4142,4.4517,4.4996,4.4812,4.2757,4.3366,4.4083,4.3143,4.3889,4.4734,4.4875,4.5541,4.5905,4.549,4.584,4.61,4.5771,4.5381,4.4597,4.3172,4.2824,4.2423,4.1709,4.1639,4.1639,4.1639,4.0961,4.0095,3.8974,3.8167,3.7461,3.6787,3.67,3.6215,3.5542,3.5147,3.4362,3.322,3.2901,3.2149,3.1032,3.0477,3.0225,3.0225,2.9629,3.011,0.0,3.2047,3.3096,3.4394,3.509,3.534,3.5407,3.5407,3.5374,3.5307,0.0,0.0,0.0,0.0,0.0,0.0,0.0,3.051,3.0402,3.0459,3.0273,3.0402,3.1061,3.0911,3.0761,0.0,0.0,0.0,0.0,0.0,0.0,0.0,0.0,0.0,0.0,0.0,2.4707,2.4481,2.4707,0.0,0.0,0.0,0.0,0.0,0.0,2.2452,2.2603,2.3255,0.0,0.0,0.0,0.0,0.0,0.0,0.0,0.0,0.0,0.0,4.0108,4.1557,4.1642,4.128,4.2124,4.2757,4.311,4.2621,4.2597,4.3036,4.4669,4.4862,4.4777,4.5542,4.5495,4.4962,4.3615,4.4037,4.4537,4.3652,4.4315,4.5156,4.5406,4.5731,4.5906,4.5716,4.5533,4.5437,4.5467,4.4699,4.398,4.3373,4.2858,4.2364,4.1853,4.181,4.181,4.181,4.0642,3.9764,3.9338,3.8556,3.7999,3.7686,3.7276,3.6893,3.658,3.5521,3.4716,3.4213,3.3176,3.2442,3.1986,3.1735,3.1514,3.1244,3.0977,3.1031,0.0,3.256,3.3566,3.4483,3.5651,3.6291,3.6545,3.6545,3.6545,3.6545,0.0,0.0,0.0,0.0,0.0,3.1091,3.0648,3.043,3.0367,3.0431,3.0453,3.0628,3.1102,3.1514,3.1839,3.1839,0.0,0.0,0.0,0.0,0.0,0.0,0.0,0.0,0.0,0.0,2.5234,2.5059,2.5234,2.531,0.0,0.0,2.4833,2.4456,0.0,0.0,0.0,0.0,0.0,0.0,0.0,0.0,0.0,0.0,0.0,0.0,0.0,0.0,0.0,0.0,0.0,4.0818,4.1589,4.1994,4.2192,4.2379,4.2583,4.3123,4.4599,4.4789,4.4655,4.5217,4.5189,4.4766,4.38,4.428,4.4715,4.384,4.4518,4.5433,4.5781,4.5913,4.5936,4.5878,4.5415,4.5092,4.5278,4.4505,4.3922,4.3798,4.3359,4.2921,4.2665,4.2513,4.2472,4.2472,4.1031,4.0131,4.0239,3.9262,3.8474,3.7987,3.7456,3.7066,3.6819,3.5616,3.4834,3.4447,3.327,3.2631,3.2466,3.2466,3.2368,3.2091,3.2266,3.2329,0.0,3.3642,3.4535,3.52,3.6242,3.6865,3.7173,3.7173,3.7173,3.7173,0.0,0.0,0.0,0.0,0.0,0.0,0.0,3.0647,3.0201,3.0201,3.028,3.0329,3.0329,3.1603,3.2497,3.2497,0.0,0.0,0.0,0.0,0.0,0.0,0.0,0.0,0.0,0.0,2.6163,2.5586,2.6163,2.6508,2.6508,2.5862,2.5586,2.5602,0.0,0.0,0.0,0.0,0.0,0.0,0.0,0.0,0.0,0.0,0.0,0.0,0.0,0.0,0.0,0.0,0.0,0.0,0.0,4.007,3.9973,4.2548,4.3465,4.3608,4.3302,4.3324,4.3364,4.3038,4.3628,4.398,4.2876,4.368,4.436,4.3492,4.4357,4.5384,4.575,4.5974,4.6041,4.5831,4.5864,4.5738,4.5344,4.5563,4.5538,4.4861,4.4731,4.4646,4.4595,4.4204,4.3967,4.3967,4.2478,4.1717,4.2059,4.05,3.8869,3.7248,3.7173,3.6783,3.5895,3.5643,3.4855,3.3634,3.3311,3.2952,3.2466,3.2466,3.2502,3.2537,3.3314,3.4092,0.0,3.5615,3.6429,3.7173,3.7173,3.7173,3.7173,3.7173,3.7173,3.7173,0.0,0.0,0.0,0.0,0.0,0.0,0.0,3.0098,3.0063,2.9609,2.9985,3.0684,3.1693,3.2199,3.2614,3.2908,0.0,0.0,0.0,0.0,0.0,0.0,0.0,0.0,0.0,0.0,2.7193,2.7077,2.7827,2.7934,2.7338,2.7721,2.7429,2.6544,2.7446,2.7968,0.0,0.0,0.0,0.0,0.0,0.0,3.9757,0.0,0.0,0.0,0.0,0.0,0.0,0.0,0.0,0.0,0.0,0.0,0.0,4.2155,4.1937,4.1785,4.2781,4.2825,4.2703,4.3536,4.3745,4.364,4.3526,4.3855,4.4186,4.4195,4.4511,4.5027,4.5655,4.5911,4.5947,4.5898,4.5752,4.5675,4.5654,4.6014,4.596,4.5103,4.4766,4.4618,4.4599,4.4482,4.4401,4.4401,4.3386,4.2573,4.2146,4.1076,3.9977,3.8869,3.8248,3.7812,3.7553,3.6359,3.5566,3.5168,3.4301,3.3792,3.365,3.365,3.3704,3.384,3.4262,3.4618,3.4942,3.5687,3.6364,3.7001,3.7469,3.7895,3.8267,3.8444,3.8499,3.8523,0.0,0.0,0.0,0.0,0.0,0.0,0.0,2.9664,2.9577,2.9245,2.9785,3.0635,3.1867,3.2734,3.3203,3.3128,0.0,0.0,0.0,0.0,0.0,0.0,0.0,0.0,0.0,2.7404,2.7974,2.8583,2.8752,2.8752,2.8583,2.8752,2.8529,2.8091,2.9145,2.9848,0.0,0.0,0.0,0.0,0.0,0.0,4.0795,0.0,0.0,0.0,0.0,0.0,0.0,0.0,0.0,0.0,0.0,0.0,0.0,0.0,4.0936,4.0662,4.1885,4.1997,4.1995,4.3127,4.3314,4.3309,4.3772,4.3869,4.3974,4.4519,4.4599,4.4834,4.5571,4.5836,4.5896,4.5885,4.5835,4.5905,4.6286,4.6437,4.6225,4.546,4.5437,4.5238,4.4688,4.4726,4.48,4.48,4.3966,4.3179,4.2531,4.1715,4.084,3.9944,3.9202,3.8501,3.786,3.6842,3.6071,3.5447,3.4711,3.4398,3.4398,3.472,3.4883,3.5018,3.5784,3.6168,0.0,3.7051,3.754,3.789,3.8375,3.8744,3.9045,3.9249,3.9289,3.9314,0.0,0.0,0.0,0.0,0.0,0.0,0.0,0.0,0.0,2.9002,2.9592,3.0367,3.1281,3.3229,3.4154,3.3273,0.0,0.0,0.0,0.0,0.0,0.0,0.0,0.0,0.0,2.7855,2.8648,3.0165,2.9281,2.9281,3.0165,2.9294,2.9343,3.0187,3.0499,3.1022,0.0,0.0,0.0,0.0,0.0,0.0,0.0,0.0,0.0,0.0,0.0,0.0,0.0,0.0,0.0,0.0,0.0,0.0,0.0,0.0,0.0,0.0,0.0,4.0994,4.1308,4.1871,4.2461,4.3045,4.358,4.3615,0.0,4.4465,4.4599,4.4825,4.5457,4.5764,4.5874,4.5841,4.5976,4.6387,4.712,4.6822,4.6398,4.6038,4.6508,4.6263,4.4825,4.4973,4.5163,4.5163,4.4399,4.3733,4.3233,4.2402,4.1517,4.0631,4.0024,3.8861,3.7192,3.7079,3.6285,3.4773,3.4791,3.4809,3.4866,3.5622,3.6037,0.0,3.7737,3.8455,0.0,3.9278,3.958,3.958,3.958,3.958,3.958,3.9641,3.9664,3.9664,0.0,0.0,0.0,0.0,0.0,0.0,0.0,0.0,0.0,0.0,2.9592,3.0729,3.2727,3.3839,3.4332,0.0,0.0,0.0,0.0,0.0,0.0,0.0,0.0,0.0,0.0,2.973,3.0807,3.1654,3.2101,3.2101,3.1718,3.2136,3.2139,3.1812,3.3035,3.4197,0.0,0.0,0.0,0.0,0.0,0.0,0.0,0.0,0.0,0.0,4.2958,4.2846,0.0,0.0,0.0,0.0,0.0,0.0,0.0,0.0,4.0528,4.0138,4.0254,0.0,4.1009,4.1151,4.2008,4.2789,0.0,4.3214,4.373,4.4465,4.4599,4.4825,4.5457,4.5764,4.5888,4.5874,4.6075,4.6514,4.725,4.7181,4.7245,4.7792,4.6833,4.5991,4.5648,4.5673,4.5697,4.5697,4.5503,4.5099,4.4355,4.35,4.2607,4.1762,4.0953,3.9638,3.7792,3.7124,3.6281,3.5324,3.5734,3.593,3.5968,3.6824,3.7432,3.7851,3.8457,0.0,3.9316,3.9505,3.958,3.958,3.958,3.958,3.9603,3.9882,3.9982,4.0042,0.0,0.0,0.0,0.0,0.0,0.0,0.0,0.0,0.0,0.0,0.0,0.0,0.0,0.0,0.0,0.0,0.0,0.0,0.0,0.0,0.0,0.0,0.0,0.0,3.0301,3.1212,3.2193,3.3275,3.3275,3.3288,3.3242,3.3607,3.3644,3.3433,3.5181,3.6482,0.0,0.0,0.0,0.0,4.1685,0.0,0.0,0.0,0.0,0.0,4.3428,4.3321,0.0,4.3391,4.3321,4.3105,0.0,0.0,0.0,0.0,4.0685,4.0466,4.0466,4.072,4.1082,4.1705,4.2305,4.284,4.3504,4.3681,4.3881,4.4493,4.4726,4.5033,4.5594,4.5813,4.5935,4.5981,4.6505,4.7146,4.7893,4.793,4.7883,4.7912,4.7086,4.6346,4.5957,4.5879,4.5879,4.5879,4.5879,4.5529,4.472,4.3856,4.3,4.2113,4.1249,4.014,3.8767,3.7865,3.7013,3.62,3.647,3.6614,3.6594,3.7853,3.8575,3.8842,3.9774,0.0,4.0062,4.0443,4.0367,4.0024,4.0061,4.0098,4.0133,4.0346,4.0419,4.0447,0.0,0.0,0.0,0.0,0.0,0.0,0.0,0.0,0.0,0.0,0.0,0.0,0.0,0.0,0.0,0.0,0.0,0.0,0.0,0.0,0.0,0.0,0.0,3.1752,3.2513,3.2767,3.3561,3.4781,3.405,3.4044,3.4837,3.4668,3.4685,3.503,3.7016,3.8088,0.0,0.0,0.0,0.0,4.2433,0.0,0.0,0.0,0.0,0.0,0.0,0.0,0.0,4.3356,4.2995,4.2577,4.2577,0.0,0.0,0.0,0.0,0.0,4.1126,4.142,4.1937,4.2803,4.3012,4.3287,4.441,4.44,4.4204,4.4624,4.4905,4.5304,4.5877,4.5968,4.6013,4.6275,4.7139,4.8045,4.8837,4.8794,4.8421,4.7572,4.7213,4.6785,4.6045,4.5967,4.5967,4.5967,4.5967,4.5616,4.4805,4.3902,4.3045,4.2156,4.1292,4.0513,3.9864,3.8935,3.8065,3.7215,3.7332,3.7358,3.7365,3.9043,3.9789,3.9802,0.0,0.0,4.0805,4.1523,4.133,4.0535,4.068,4.0738,4.071,4.0779,4.0821,4.0782,0.0,0.0,0.0,0.0,0.0,0.0,0.0,0.0,0.0,0.0,0.0,0.0,0.0,0.0,0.0,0.0,0.0,0.0,0.0,0.0,0.0,0.0,3.3561,3.3391,3.4083,3.5388,3.6146,3.6292,3.6137,3.6138,3.629,3.6295,3.6335,3.6557,3.8405,3.8903,3.8564,0.0,0.0,0.0,4.302,0.0,0.0,0.0,0.0,0.0,0.0,0.0,0.0,4.2808,4.2422,4.1937,4.1937,0.0,0.0,0.0,0.0,0.0,4.2099,4.3787,4.5163,4.3571,4.3743,4.4383,4.4589,4.4568,4.4624,4.4943,4.5168,4.5582,4.6693,4.6433,4.6314,4.7064,4.8039,4.8984,4.9843,4.9335,4.8826,4.8668,4.734,4.6402,4.6246,4.6246,4.6246,4.6246,4.6246,4.5855,4.4996,4.4137,4.3238,4.2379,4.1559,4.109,4.0973,3.9925,3.896,3.8118,3.885,3.9194,3.9256,4.0921,4.1691,4.1712,0.0,4.2645,4.1868,4.1984,4.1548,4.077,4.0788,4.0796,4.0796,4.0813,4.0821,4.0828,0.0,0.0,0.0,0.0,0.0,0.0,0.0,0.0,0.0,0.0,0.0,0.0,0.0,0.0,0.0,0.0,0.0,0.0,0.0,0.0,0.0,3.7006,3.695,3.6814,3.6648,3.71,3.7463,3.7655,3.6961,3.6596,3.6636,3.6676,3.7352,3.8448,3.9638,4.0099,4.0197,4.2156,0.0,0.0,0.0,0.0,0.0,0.0,0.0,0.0,0.0,0.0,0.0,0.0,4.181,4.134,4.1725,0.0,0.0,0.0,0.0,0.0,4.3102,4.4471,4.5791,4.5795,4.6647,4.752,4.7515,4.768,4.7645,4.6831,4.6854,4.7066,4.7241,4.7021,4.7272,4.866,4.8904,4.9023,4.9453,4.875,4.8008,4.7539,4.6797,4.6289,4.6289,4.6289,4.6289,4.6289,4.6289,4.5937,4.5039,4.418,4.3281,4.2422,4.1601,4.1211,4.1211,4.0728,4.005,3.9153,3.9582,3.9958,4.0393,4.1167,4.1727,4.2113,0.0,4.2183,4.1443,4.191,4.1599,4.0821,4.0877,4.0894,4.09,4.0921,4.0892,4.0895,0.0,0.0,0.0,0.0,0.0,0.0,0.0,0.0,0.0,0.0,0.0,0.0,0.0,0.0,0.0,0.0,0.0,0.0,0.0,0.0,3.7255,3.8805,3.9531,3.9648,3.9105,3.8851,3.8743,3.8911,3.7687,3.7065,3.699,3.7155,3.8136,3.9857,4.0609,4.1149,4.1614,4.292,4.3497,0.0,0.0,0.0,0.0,0.0,0.0,0.0,0.0,0.0,0.0,0.0,0.0,0.0,0.0,0.0,0.0,4.2372,4.3122,4.3751,4.4134,4.5132,4.6369,4.7556,4.8451,4.9305,5.0333,5.0336,4.9885,4.9186,4.8914,4.8655,4.8113,4.7849,4.8138,4.9374,4.9179,4.8865,4.8906,4.8164,4.7344,4.668,4.6405,4.6247,4.6247,4.6205,4.6202,4.6202,4.6202,4.5733,4.4679,4.3976,4.3156,4.2062,4.1437,4.1125,4.1125,4.1129,4.0819,4.0195,4.0391,4.0779,4.1345,4.154,4.2065,4.276,4.2559,4.2091,4.1512,4.1974,4.1635,4.0877,4.0955,4.0969,4.0937,4.0948,4.0955,4.095,0.0,0.0,0.0,0.0,0.0,0.0,0.0,0.0,0.0,0.0,0.0,0.0,0.0,0.0,0.0,0.0,0.0,0.0,0.0,0.0,3.752,3.9632,4.0048,4.0308,4.0435,4.1146,4.0909,3.9682,3.8858,3.8186,3.7726,3.8394,3.911,3.9857,4.1129,4.1645,4.1614,4.292,4.3497,4.3497,0.0,0.0,0.0,0.0,0.0,0.0,0.0,0.0,0.0,0.0,0.0,0.0,0.0,0.0,4.3133,4.3484,4.4323,4.515,4.5168,4.6795,4.8298,4.7601,4.68,4.7271,5.1307,5.0373,4.9322,5.1589,5.081,4.9746,4.9791,4.9133,4.8447,4.789,4.8306,4.8763,4.8867,4.8164,4.7578,4.75,4.6666,4.6097,4.6097,4.5995,4.5944,4.5944,4.5944,4.5204,4.3607,4.3452,4.2634,4.096,4.0882,4.0843,4.0843,4.0955,4.1041,4.1133,4.1875,4.2266,4.2344,4.3125,4.3984,4.4765,4.3944,4.3554,4.3436,4.2694,4.1834,4.0991,4.0987,4.0916,4.0811,4.0797,4.0828,4.0828,0.0,0.0,0.0,0.0,0.0,0.0,0.0,0.0,0.0,0.0,0.0,0.0,0.0,0.0,0.0,0.0,0.0,0.0,0.0,0.0,3.9291,4.0954,4.1548,4.1971,4.24,4.2207,4.152,4.0315,3.8319,3.752,3.7822,3.8449,3.9564,4.1086,4.1996,4.2513,4.2775,4.3281,4.3497,4.3497,4.3142,0.0,0.0,0.0,0.0,0.0,0.0,0.0,0.0,0.0,4.1454,4.1895,4.2631,4.3162,4.3646,4.4384,4.4908,4.5346,4.5622,4.7151,4.8638,4.8389,4.8033,4.861,5.1854,5.2244,5.1893,5.1815,5.163,5.1018,4.9479,4.9004,4.8746,4.8437,4.858,4.8517,4.8027,4.7615,4.7162,4.6616,4.6196,4.5981,4.5981,4.5944,4.5879,4.5879,4.5879,4.5412,4.4275,4.4197,4.3653,4.2447,4.1902,4.1591,4.1591,4.113,4.1162,4.1769,4.2181,4.2695,4.3203,4.3555,4.4138,4.4826,4.4006,4.3287,4.2671,4.2354,4.168,4.087,4.087,4.1512,4.2283,4.116,4.1091,4.1468,0.0,0.0,0.0,0.0,0.0,0.0,0.0,0.0,0.0,0.0,0.0,0.0,0.0,0.0,0.0,0.0,0.0,0.0,3.7326,3.8902,4.05,4.2021,4.239,4.2774,4.325,4.2407,4.1511,4.0574,3.8163,3.735,3.8036,3.871,4.0109,4.2103,4.2537,4.3032,4.3497,4.3321,4.325,4.3214,4.2619,4.2422,0.0,0.0,0.0,0.0,0.0,0.0,0.0,0.0,4.2051,4.2705,4.3526,4.3959,4.4293,4.5039,4.5568,4.5969,4.6231,4.7306,4.8423,4.8828,4.8906,4.957,5.2066,5.2928,5.3125,5.3005,5.2273,5.1018,4.9022,4.846,4.8209,4.7988,4.8064,4.7866,4.7033,4.687,4.6589,4.5957,4.5881,4.5862,4.5862,4.582,4.5797,4.5797,4.5797,4.5437,4.4622,4.4583,4.4195,4.333,4.271,4.2399,4.2399,4.1869,4.1849,4.2471,4.291,4.3459,4.4006,4.4006,4.4302,4.4694,4.3596,4.2747,4.2097,4.2097,4.1877,4.1568,4.1528,4.2244,4.3164,4.1893,4.1735,4.2048,0.0,0.0,0.0,0.0,0.0,0.0,0.0,0.0,0.0,0.0,0.0,0.0,0.0,0.0,0.0,0.0,0.0,0.0,3.8471,3.9394,4.0689,4.2616,4.2441,4.2441,4.2655,4.167,4.0981,4.0574,3.8689,3.8092,3.8611,3.9445,4.0874,4.2693,4.2693,4.3032,4.3463,4.2957,4.2693,4.2655,4.2021,4.181,0.0,0.0,0.0,0.0,0.0,0.0,0.0,0.0,4.3204,4.3435,4.4724,4.5115,4.518,4.5514,4.6358,4.7211,4.7172,4.7416,4.7812,4.8672,4.8906,4.9568,5.1947,5.1938,5.2342,5.5669,5.287,4.9508,4.8642,4.7672,4.6758,4.6017,4.6496,4.6719,4.6017,4.5918,4.5918,4.5918,4.5836,4.5815,4.5815,4.568,4.5586,4.5586,4.5586,4.5201,4.4355,4.4316,4.3932,4.3162,4.3124,4.3124,4.3124,4.3153,4.3208,4.3208,4.421,4.4703,4.4703,4.4703,4.4712,4.4604,4.2875,4.2135,4.2105,4.2097,4.2519,4.3183,4.3127,4.3124,4.3124,4.3085,4.2851,4.2502,0.0,0.0,0.0,0.0,0.0,0.0,0.0,0.0,0.0,0.0,0.0,0.0,0.0,0.0,0.0,0.0,0.0,0.0,3.7869,3.9583,4.0781,4.1197,4.1706,4.1753,4.1218,3.9478,3.8797,3.9209,3.8098,3.8219,3.9445,4.0516,4.1633,4.2693,4.3105,4.3356,4.3463,4.2957,4.2693,4.2616,4.1595,4.1161,4.1105,0.0,0.0,0.0,0.0,0.0,0.0,0.0,0.0,0.0,4.4988,4.5663,4.6263,4.576,4.6344,4.7086,4.6463,4.7377,4.8594,4.8828,4.9719,5.0863,5.2221,5.1941,5.1636,5.2512,5.0711,4.8904,4.8448,4.7684,4.6882,4.6026,4.6042,4.6061,4.5852,4.575,4.5703,4.5703,4.5658,4.5648,4.5648,4.5637,4.5586,4.5586,4.5586,4.547,4.524,4.5201,4.5086,4.4855,4.4239,4.3932,4.3932,4.342,4.3412,4.3991,4.4283,4.4511,4.4703,4.5296,4.5522,4.5425,4.4921,4.4305,4.3617,4.3023,4.3265,4.3898,4.3333,4.3673,4.4363,4.3119,4.284,4.2986,0.0,0.0,0.0,0.0,0.0,0.0,0.0,0.0,0.0,0.0,3.51,0.0,0.0,0.0,0.0,0.0,0.0,0.0,0.0,3.9834,4.0676,4.0192,4.0717,4.0384,3.9054,3.8075,3.7907,3.8611,3.8176,3.8718,4.0158,4.1392,4.2354,4.3032,4.3356,4.3497,4.3463,4.2657,4.2342,4.2262,4.1059,4.0577,4.0577,0.0,0.0,0.0,0.0,0.0,0.0,0.0,0.0,0.0,4.5243,4.5822,4.6355,4.6163,4.69,4.7678,4.7484,4.8605,4.9912,5.0225,5.1006,5.1693,5.1895,5.1798,5.1668,5.158,4.9907,4.8444,4.8308,4.7353,4.637,4.5866,4.575,4.5703,4.5703,4.5632,4.5586,4.5586,4.5586,4.5586,4.5586,4.5586,4.5586,4.5586,4.5586,4.5586,4.5586,4.5586,4.5586,4.5586,4.5086,4.4816,4.4816,4.4355,4.4355,4.4816,4.4689,4.4701,4.4858,4.5493,4.5583,4.5201,4.4853,4.4514,4.4058,4.3598,4.381,4.436,4.3902,4.4179,4.4782,4.3719,4.3428,4.3492,0.0,0.0,0.0,0.0,0.0,0.0,0.0,0.0,0.0,0.0,3.4472,3.4502,0.0,0.0,0.0,0.0,0.0,0.0,0.0,0.0,4.0331,3.9444,3.9491,3.8635,3.6722,3.744,3.8092,3.8718,3.8772,3.9463,4.0837,4.2154,4.3032,4.3497,4.3463,4.3428,4.3356,4.2226,4.1725,4.1639,4.0563,4.0104,4.0204,4.0685,0.0,0.0,0.0,0.0,0.0,0.0,0.0,0.0,4.5591,4.5701,4.5855,4.6586,4.7583,4.8642,4.9459,5.0346,5.1297,5.235,5.252,5.2191,5.1364,5.1528,5.1862,5.1908,4.9921,4.8137,4.8174,4.6815,4.5701,4.5586,4.5586,4.5586,4.5586,4.5586,4.5586,4.5586,4.5586,4.5586,4.5568,4.5568,4.555,4.5494,4.5532,4.5532,4.5532,4.5532,4.5532,4.5532,4.5532,4.5532,4.5532,4.5532,4.5532,4.5532,4.5201,4.5033,4.5055,4.5381,4.5071,4.4285,4.3555,4.3465,4.3869,4.3869,4.4189,4.4599,4.4599,4.4599,4.4572,4.4572,4.429,4.3937,0.0,0.0,0.0,0.0,0.0,0.0,0.0,0.0,0.0,0.0,0.0,0.0,0.0,0.0,0.0,0.0,0.0,0.0,0.0,0.0,3.9193,3.8798,3.7806,3.7377,3.7531,3.7546,3.8186,3.9547,3.9944,4.0871,4.2271,4.2995,4.3391,4.3497,4.3069,4.2846,4.2808,4.1603,4.107,4.1059,4.0368,4.0368,4.0733,4.0874,4.1473,0.0,0.0,0.0,0.0,0.0,0.0,0.0,4.6376,4.6624,4.6509,4.6009,4.7055,4.8387,4.858,4.9299,5.0568,5.2787,5.3246,5.2894,5.1945,5.0815,4.9809,4.9276,4.8681,4.8052,4.7345,4.6891,4.6394,4.5701,4.5586,4.5586,4.5586,4.5586,4.5586,4.5586,4.5586,4.5514,4.5222,4.5201,4.5115,4.4849,4.4825,4.4825,4.4825,4.4825,4.4825,4.4825,4.4825,4.4825,4.4825,4.4825,4.4825,4.4825,4.4751,4.4726,4.4726,4.48,4.4711,4.4521,4.4369,4.4321,4.4436,4.4436,4.4487,4.4599,4.4599,4.4401,4.4117,4.4117,4.3912,4.3597,0.0,0.0,0.0,0.0,0.0,0.0,0.0,0.0,0.0,0.0,0.0,0.0,0.0,0.0,0.0,0.0,0.0,0.0,0.0,0.0,3.8515,3.7676,3.6951,3.6783,3.7203,3.814,3.912,4.0206,4.085,4.1576,4.2302,4.2846,4.2958,4.2696,4.2382,4.2262,4.2221,4.1296,4.092,4.0874,4.0625,4.0672,4.0932,4.1516,4.2271,4.2996,4.3638,0.0,0.0,0.0,0.0,0.0,0.0,0.0,4.6278,4.624,4.6947,4.7907,4.872,4.986,5.1257,5.2995,5.3365,5.2915,5.1387,4.9872,4.8625,4.8048,4.7752,4.7455,4.6989,4.6547,4.6124,4.5663,4.5586,4.555,4.54,4.5381,4.5283,4.512,4.5099,4.5055,4.4872,4.4872,4.48,4.4624,4.4599,4.4599,4.4599,4.4599,4.4599,4.4599,4.4599,4.4599,4.4599,4.4599,4.4599,4.4599,4.4401,4.4204,4.4095,4.4465,4.4599,4.4599,4.4599,4.4482,4.4318,4.4318,4.4242,4.4065,4.4065,4.3943,4.3758,4.3758,4.3664,4.3463,0.0,0.0,0.0,0.0,0.0,0.0,0.0,0.0,0.0,0.0,0.0,0.0,0.0,0.0,0.0,0.0,0.0,0.0,0.0,0.0,0.0,3.6661,3.66,3.6751,3.714,3.8977,4.0254,4.0961,4.1619,4.1966,4.1987,4.2374,4.2302,4.181,4.1682,4.1603,4.1639,4.1013,4.0827,4.092,4.092,4.107,4.1438,4.2426,4.3032,4.3536,4.4308,4.4776,4.5071,4.5514,0.0,0.0,0.0,0.0,4.5573,4.6302,4.6716,4.7294,4.8825,5.0735,5.2442,5.307,5.3203,5.2717,5.0756,4.9269,4.8144,4.7533,4.7006,4.6701,4.6701,4.605,4.5494,4.5494,4.5457,4.5323,4.5033,4.5011,4.4919,4.465,4.4599,4.4599,4.4482,4.4519,4.4455,4.4401,4.4438,4.4438,4.4438,4.4438,4.4438,4.4438,4.4438,4.4438,4.4438,4.4438,4.4438,4.4411,4.4058,4.3791,4.3532,4.4125,4.4438,4.4438,4.4438,4.4204,4.3912,4.3912,4.3758,4.3497,4.3497,4.3426,4.3356,4.3356,4.3286,4.3142,0.0,0.0,0.0,0.0,0.0,0.0,0.0,0.0,0.0,0.0,3.3006,3.3306,0.0,0.0,0.0,0.0,0.0,0.0,3.7604,0.0,0.0,3.66,3.66,3.7462,3.9324,4.0124,4.113,4.2426,4.2501,4.2624,4.2723,4.2214,4.1895,4.1768,4.1251,4.1024,4.0978,4.0466,4.0514,4.092,4.092,4.1711,4.2922,4.3065,4.3669,4.4455,4.4572,4.465,4.4789,4.5521,4.5319,0.0,0.0,0.0,4.4751,4.4865,4.5635,4.6619,4.7597,5.041,5.3089,5.3164,5.3203,5.2833,5.1467,5.015,4.8833,4.7378,4.638,4.5778,4.5778,4.5457,4.518,4.518,4.4919,4.4726,4.4676,4.4676,4.465,4.4624,4.4599,4.4455,4.4117,4.4087,4.3974,4.3664,4.3664,4.3664,4.3664,4.3664,4.3664,4.3664,4.3664,4.3664,4.3664,4.3664,4.3664,4.3664,4.3597,4.3529,4.3497,4.3597,4.3664,4.3664,4.3664,4.3631,4.3563,4.3563,4.3529,4.3497,4.3497,4.3214,4.2808,4.2808,4.2462,4.2021,0.0,0.0,0.0,0.0,0.0,0.0,0.0,0.0,0.0,0.0,0.0,3.3396,0.0,0.0,0.0,3.4388,3.5812,3.6808,3.7132,3.6776,3.66,3.66,3.7719,3.8851,3.9767,4.1111,4.2073,4.2693,4.2342,4.2412,4.29,4.1905,4.1678,4.2058,4.1351,4.1081,4.1047,4.0734,4.0685,4.0932,4.1639,4.2311,4.296,4.3246,4.3749,4.4261,4.4261,4.4401,4.4662,4.504,4.4889,4.4636,4.504,0.0,0.0,0.0,4.4953,4.5759,4.7505,4.9569,5.1383,5.231,5.2322,5.1935,5.1163,4.9973,4.8808,4.7878,4.6645,4.5582,4.5109,4.4919,4.4825,4.4825,4.4701,4.4508,4.429,4.4261,4.4175,4.4004,4.3974,4.3912,4.3726,4.3726,4.3627,4.3532,4.3497,4.3497,4.3497,4.3497,4.3497,4.3497,4.3497,4.3497,4.3497,4.3497,4.3497,4.3497,4.3497,4.3497,4.3497,4.3497,4.3497,4.3497,4.3497,4.3497,4.3497,4.3497,4.3321,4.3069,4.3069,4.2732,4.2221,4.2221,4.2021,4.1768,0.0,0.0,0.0,0.0,0.0,0.0,0.0,0.0,0.0,0.0,0.0,0.0,0.0,0.0,0.0,0.0,3.4974,3.619,3.6319,3.6507,3.6812,3.7404,3.8957,4.0065,4.0548,4.1985,4.277,4.2884,4.2342,4.2519,4.3401,4.2423,4.2432,4.3254,4.2006,4.1427,4.1443,4.122,4.1346,4.171,4.2414,4.2846,4.3069,4.3458,4.3855,4.4146,4.4028,4.4175,4.4428,4.4355,4.4327,4.4327,4.4327,4.4327,0.0,0.0,0.0,4.4907,4.7089,4.8466,4.9599,5.1043,5.1282,5.1087,5.0651,4.9731,4.8768,4.8093,4.7049,4.5989,4.5077,4.4674,4.4428,4.4428,4.4383,4.4242,4.3912,4.3881,4.3791,4.3532,4.3497,4.3497,4.3497,4.3497,4.3497,4.3497,4.3497,4.3497,4.3497,4.3497,4.3497,4.3497,4.3497,4.3497,4.3497,4.3497,4.3497,4.3497,4.3356,4.3356,4.3497,4.3178,4.3142,4.3286,4.3463,4.3391,4.3286,4.3286,4.2958,4.2462,4.2462,4.2103,4.1595,4.1595,4.1508,4.1286,0.0,0.0,0.0,0.0,0.0,0.0,0.0,0.0,0.0,0.0,0.0,0.0,3.4318,3.4465,3.4498,3.4494,3.4603,3.4922,3.5608,3.6259,3.752,3.953,3.9767,0.0,4.2501,4.2655,4.2957,4.3463,4.2921,4.3448,4.4885,4.4218,4.4763,4.6058,4.3262,4.2085,4.2111,4.1903,4.2531,4.37,4.2982,4.3176,4.3937,4.3937,4.4204,4.4546,4.4146,4.3998,4.3967,4.366,4.3529,4.3529,4.3529,4.3529,4.3529,0.0,0.0,0.0,4.5574,4.7116,4.8589,4.9485,5.0279,5.0689,5.0314,4.9828,4.8995,4.7462,4.7379,4.7215,4.6063,4.486,4.4028,4.4028,4.3758,4.3529,4.3532,4.3532,4.3532,4.3497,4.3497,4.3497,4.3497,4.3497,4.3497,4.3497,4.3497,4.3497,4.3497,4.3497,4.3497,4.3497,4.3497,4.3497,4.3497,4.3497,4.3497,4.3497,4.2958,4.3032,4.3463,4.2386,4.2185,4.277,4.3286,4.3214,4.2732,4.2732,4.2382,4.1853,4.1853,4.1473,4.0967,4.0967,4.0625,4.0154,0.0,0.0,0.0,0.0,0.0,0.0,0.0,0.0,0.0,0.0,0.0,0.0,0.0,3.518,3.5061,3.4729,3.5007,3.5515,3.6197,3.7762,3.901,3.9767,4.1011,4.1985,4.2693,4.3032,4.3286,4.3497,4.2995,4.3195,4.4241,4.3629,4.4041,4.5244,4.3961,4.3687,4.4096,4.2888,4.2969,4.3851,4.3397,4.3426,4.366,4.366,4.3758,4.3886,4.3726,4.3992,4.4438,4.4303,4.4599,4.5039,4.5039,4.4672,4.4158,4.3644,4.3597,4.3878,4.4819,4.5551,4.6442,4.8298,4.8795,4.907,4.9918,4.9608,4.8936,4.8373,4.7753,4.7168,4.6765,4.5475,4.4472,4.4472,4.3931,4.3497,4.3497,4.3497,4.3497,4.3497,4.3497,4.3497,4.3497,4.3497,4.3356,4.3032,4.3286,4.3321,4.3032,4.3321,4.3497,4.3497,4.3497,4.3497,4.3497,4.3497,4.3321,4.2958,4.277,4.2616,4.2386,4.1979,4.1937,4.2103,4.2306,4.2306,4.2103,4.2103,4.1768,4.1206,4.1206,4.0874,4.0368,4.0368,4.0254,4.0087,0.0,0.0,0.0,0.0,0.0,0.0,0.0,0.0,0.0,0.0,0.0,0.0,0.0,0.0,3.6126,3.5477,3.5797,3.6379,3.7278,3.8877,4.0114,4.0735,4.2026,4.2693,4.2693,4.3214,4.3391,4.3214,4.3069,4.3356,4.4118,4.3779,4.4261,4.5221,4.4849,4.5019,4.5518,4.4273,4.4193,4.4891,4.4294,4.4251,4.4472,4.4338,4.4305,4.4305,4.4305,4.4635,4.5112,4.5112,4.5334,0.0,4.5586,4.5108,4.4297,4.3538,4.3465,4.3756,4.401,4.4481,4.5243,4.6839,4.7046,4.7316,4.8827,4.8606,4.8161,4.8637,4.8053,4.7498,4.7498,4.6434,4.5443,4.5149,4.4635,4.4305,4.4305,4.4305,4.4305,4.4305,4.4305,4.4195,4.3938,4.3901,4.3614,4.2995,4.3286,4.3321,4.2995,4.3286,4.3497,4.3497,4.3321,4.3214,4.3214,4.3032,4.2734,4.2382,4.2221,4.1979,4.181,4.142,4.1331,4.1508,4.1331,4.1331,4.1473,4.1473,4.115,4.0625,4.0625,4.0417,4.0087,4.0087,4.0087,4.0087,0.0,0.0,0.0,0.0,0.0,0.0,0.0,0.0,0.0,3.4887,0.0,0.0,0.0,0.0,0.0,3.6886,3.6878,3.7437,3.8749,3.951,4.0735,4.2616,4.2693,4.2693,4.2693,4.3214,4.3214,4.2693,4.325,4.3901,4.4672,4.5004,4.5568,4.6382,4.5989,4.5989,4.6246,4.5923,4.6259,4.691,4.5746,4.578,4.6456,4.6061,4.5883,4.5883,4.5883,4.592,4.592,4.592,0.0,0.0,4.5034,4.4543,4.388,4.3147,4.3421,4.3845,0.0,0.0,0.0,4.5163,4.5209,4.5605,4.7039,4.6771,4.6649,4.8043,4.8267,4.8267,4.8304,4.7644,4.6911,4.6104,4.592,4.5883,4.5883,4.5883,4.5883,4.5883,4.5883,4.559,4.4819,4.4745,4.4415,4.3571,4.3534,4.3497,4.3463,4.3463,4.3463,4.3463,4.2921,4.2655,4.2655,4.2062,4.181,4.1768,4.1161,4.1206,4.1725,4.0611,4.0368,4.0874,4.0319,4.0417,4.0874,4.0874,4.0577,4.0087,4.0087,4.0087,4.0087,4.0087,4.0087,4.0087,0.0,0.0,0.0,0.0,0.0,0.0,0.0,0.0,0.0,0.0,0.0,0.0,3.821,3.8449,3.8293,3.7591,3.801,3.8652,3.9462,4.0585,4.169,4.2655,4.2693,4.2693,4.2693,4.2846,4.2846,4.2693,4.325,4.3608,4.3828,4.4183,4.4931,4.597,4.6114,4.6672,4.751,4.6291,4.6259,4.6976,4.6704,4.654,4.6488,4.6359,4.6165,4.5883,4.5883,4.6287,4.669,0.0,4.639,4.6542,4.5499,4.5017,4.4693,4.3915,4.3845,4.3986,4.3739,0.0,0.0,0.0,0.0,0.0,4.565,4.574,4.6123,4.8091,4.8073,4.7855,4.8436,4.8214,4.797,4.7861,4.6718,4.5883,4.5883,4.5883,4.5883,4.5883,4.5883,4.581,4.559,4.5553,4.5077,0.0,4.4163,4.3761,4.2342,4.2266,4.2266,4.2266,4.2103,4.2021,4.2021,4.1895,4.1595,4.1115,4.0978,4.078,4.0563,4.0254,4.0154,4.0319,4.0154,4.0154,4.0319,4.0319,4.0254,4.0087,4.0087,4.0087,4.0087,4.0087,4.0087,4.0155,0.0,0.0,0.0,0.0,0.0,0.0,3.857,3.8809,0.0,0.0,0.0,0.0,3.9301,3.9668,3.9541,3.881,3.9354,3.9985,4.0595,4.1349,4.2062,4.2655,4.2693,4.2721,4.2808,4.2953,4.3102,4.3198,4.3396,4.3563,4.3726,4.4058,4.4718,4.5507,4.5867,4.6608,4.7568,4.6997,4.722,4.7995,4.7678,4.7617,4.7716,4.7367,4.7093,4.6911,4.6911,4.7236,4.7579,4.6928,4.6641,0.0,0.0,4.4987,4.4763,4.3999,4.3999,4.4208,4.3811,4.395,4.4277,4.4327,0.0,0.0,4.5172,4.5115,4.5446,4.7293,4.7322,4.7143,4.7608,4.7587,4.7637,4.8119,4.7291,4.6912,4.7789,4.7939,4.7939,4.7939,4.7645,4.7203,4.657,4.6202,4.5461,4.4062,4.4237,4.3755,4.2306,4.1987,4.181,4.181,4.1595,4.1429,4.1429,4.1196,4.092,4.0577,4.0577,4.0417,4.0087,4.0087,4.0087,4.0087,4.0087,4.0087,4.0087,4.0426,4.0358,4.0087,4.0087,4.0087,4.0121,4.0426,4.0561,4.0663,0.0,0.0,0.0,3.8644,3.9528,4.0134,4.008,4.1302,0.0,0.0,4.0956,4.1068,4.0392,4.0865,4.1018,4.051,4.0796,4.1335,4.2101,4.2072,4.2287,4.2915,4.2876,4.2893,4.2974,4.3356,4.3652,4.3924,4.3652,4.3701,4.4085,4.4448,4.4776,4.5033,4.5438,4.6124,4.7086,4.7817,4.8644,4.9431,4.8707,4.8853,4.9416,4.8676,4.8344,4.8306,4.8306,4.8352,4.8271,4.7535,4.6542,0.0,0.0,0.0,0.0,4.391,4.4147,4.4553,4.3775,4.4045,4.4553,4.4485,4.3944,0.0,4.4992,4.4699,4.4555,4.5998,4.6177,4.6141,4.6318,4.6295,4.6542,4.7378,4.7625,4.8389,5.041,5.0602,5.0602,5.0643,4.9944,4.8935,4.7558,4.6751,4.5745,4.4243,4.3966,4.3578,4.2847,4.2132,4.1666,4.1639,4.1105,4.0827,4.0827,4.0319,4.0087,4.0087,4.0087,4.0087,4.0087,4.0087,4.0087,4.0087,4.0155,4.0189,4.0257,4.1035,4.0832,4.0087,4.0257,4.0257,4.029,4.1035,4.1339,4.1441,0.0,3.8679,3.9461,3.953,4.1133,4.2391,4.2345,4.2622,4.28,4.2684,4.233,4.2016,4.188,4.1474,4.1631,4.2561,4.2237,4.2693,4.4335,4.3836,4.3749,4.4273,4.3901,4.3376,4.2753,4.3457,4.3857,4.3924,4.3652,4.3862,4.4554,4.4599,4.465,4.4726,4.5323,4.6432,4.7894,4.8048,4.8795,4.9954,4.9796,4.9641,4.9445,4.8945,4.8568,4.8306,4.8306,4.7988,4.7543,4.6949,4.627,4.5739,0.0,0.0,0.0,4.5466,0.0,4.5331,4.4553,4.4451,0.0,0.0,4.3538,0.0,4.3736,4.3246,4.3253,4.537,4.4774,4.4286,4.5506,4.5633,4.5811,4.6758,4.7849,4.89,4.9775,4.9457,4.9317,4.9856,4.9267,4.8544,4.7619,4.7406,4.6684,4.5092,4.399,4.304,4.2276,4.1656,4.1066,4.0451,4.0353,4.0254,4.0254,4.0154,4.0087,4.0087,4.0087,4.0087,4.0087,4.0087,4.0087,4.0121,4.073,4.1001,4.1035,4.1779,4.1305,4.0189,4.1407,4.1508,4.1068,4.1813,4.2083,4.2185,3.9268,3.9901,4.0638,4.167,4.2711,4.359,4.3948,4.402,4.395,4.3711,4.3192,4.2689,4.2311,4.2277,4.2492,4.3092,4.3173,0.0,0.0,4.4181,4.4083,4.4307,4.4041,4.3924,4.3924,4.3757,4.427,4.5472,4.4162,4.4103,4.5233,4.4814,4.48,4.5099,4.5438,4.6224,4.7238,4.7622,4.8327,4.9238,4.9629,4.9561,4.9171,4.8744,4.8495,4.8306,4.8306,4.797,4.7464,4.7291,4.6771,0.0,4.6684,4.6786,4.6718,0.0,4.6244,4.6177,0.0,0.0,0.0,4.4654,0.0,0.0,0.0,4.3707,4.3749,4.4898,4.4197,4.3562,4.4369,4.4423,4.4768,4.6,4.7079,4.8154,4.918,4.9619,5.0019,5.0365,4.9749,4.9007,4.8312,4.7875,4.7021,4.5546,4.4474,4.3544,4.2792,4.2106,4.1407,4.0663,4.0629,4.046,4.0087,4.0087,4.0087,4.0087,4.046,4.0629,4.0663,4.1001,4.117,4.1204,4.1576,4.1745,4.1813,4.2557,4.2185,4.1238,4.2016,4.2049,4.1847,4.2591,4.2861,4.2963,4.0827,4.1105,4.1771,4.3404,4.3935,4.434,4.4956,4.5106,4.4953,4.4313,4.389,4.3419,4.273,4.3034,4.3406,4.3614,4.3775,4.4092,4.4534,4.4264,4.4078,4.4101,4.4075,4.4297,4.4769,4.409,4.4745,4.6874,4.4704,4.4475,4.6158,4.5304,4.5217,4.5763,4.5799,4.611,4.6565,4.7228,4.7846,4.8474,4.9122,4.9202,4.8881,4.8458,4.8306,4.8267,4.8035,4.7715,4.7467,4.766,4.7394,4.7022,4.7192,4.7225,0.0,0.0,0.0,0.0,0.0,0.0,0.0,0.0,0.0,4.4959,0.0,0.0,0.0,4.4384,4.3741,4.3234,4.3403,4.3403,4.3876,4.5263,4.6109,4.702,4.8333,4.9637,5.0559,5.0665,5.0084,4.9447,4.8756,4.801,4.7009,4.5794,4.5128,4.4384,4.347,4.2828,4.2151,4.1441,4.1407,4.1136,4.0493,4.0358,4.0358,4.0493,4.0967,4.1271,4.1441,4.2016,4.2286,4.2286,4.2455,4.2489,4.2557,4.3335,4.3267,4.2726,4.2726,4.2726,4.2794,4.3403,4.3809,4.4147,4.092,4.1768,4.2573,4.2799,4.4085,4.5069,4.518,4.5492,4.5477,4.4819,4.4821,4.4732,4.436,4.3786,4.4043,4.5672,4.4178,4.4242,4.6843,4.507,4.4205,4.4859,4.4709,4.4344,4.3684,4.427,4.5039,4.603,4.4638,4.5158,4.7447,4.6556,4.6145,4.6249,4.6609,4.6972,4.7381,4.7457,4.8029,4.8833,4.8907,4.8911,4.8881,4.8458,4.8306,4.8153,4.7044,4.6653,4.6776,0.0,4.7293,4.7902,0.0,4.8748,4.8612,4.797,0.0,0.0,0.0,0.0,0.0,0.0,4.6616,0.0,4.5737,0.0,4.4384,4.3673,0.0,4.2625,4.3301,0.0,0.0,4.4553,4.5331,4.6133,4.6903,4.7767,4.847,4.9049,4.9124,4.8821,4.8056,4.7344,4.6598,4.5771,4.5635,4.4959,4.3504,4.3335,4.2963,4.2185,4.2185,4.2117,4.2049,4.1407,4.1407,4.2016,4.1474,4.1542,4.2185,4.2252,4.2286,4.232,4.2997,4.3301,4.3335,4.4113,4.4384,4.4316,4.4316,4.4316,4.4316,4.4418,4.5263,4.6312,4.1473,4.2103,4.3029,4.3975,4.4341,4.4744,4.5504,4.6235,4.6329,4.5243,4.6005,4.6794,4.7062,4.6165,4.6138,4.7684,4.611,4.5481,4.6621,4.5817,4.5416,4.5683,4.595,4.5736,4.4892,4.4782,4.5333,4.6617,4.4856,4.5387,4.7988,4.6809,4.6674,4.7356,4.7294,4.7213,4.7238,4.7514,4.7735,4.7904,4.8347,4.8532,4.8532,4.8345,4.8075,4.7669,4.6848,4.6813,4.7237,0.0,4.7936,0.0,0.0,0.0,0.0,4.8646,0.0,0.0,0.0,0.0,0.0,0.0,0.0,0.0,4.5771,0.0,4.4621,0.0,0.0,0.0,0.0,0.0,0.0,0.0,4.4764,4.5496,4.5424,4.6455,4.7683,4.8821,4.8965,4.8883,4.8578,4.8274,4.7597,4.6413,4.6346,4.5669,4.4181,4.4079,4.3741,4.2963,4.2963,4.2726,4.2286,4.1982,4.1982,4.2286,4.2422,4.2658,4.2963,4.3403,4.3606,4.3639,4.3944,4.435,4.4756,4.5094,4.5466,4.5872,4.5872,4.5602,4.5229,4.5229,4.5906,4.6752,4.2235,4.2662,4.3429,4.4655,4.4599,4.4802,4.6071,4.6887,4.7069,4.6296,4.724,4.8183,4.8609,4.8034,4.8031,4.8952,4.7484,4.6657,4.6837,4.6346,4.5971,4.5864,4.6424,4.6397,4.559,4.5223,4.5736,4.7131,4.5486,4.6022,4.8687,4.7416,4.7419,4.8439,4.8134,4.7704,4.7229,4.7783,4.7789,4.7498,4.8086,4.8306,4.8267,4.8114,4.7699,4.7119,4.6758,4.6961,4.7477,4.781,4.8409,0.0,4.9018,0.0,4.9018,0.0,0.0,0.0,4.9018,0.0,0.0,0.0,0.0,0.0,0.0,0.0,0.0,0.0,0.0,0.0,0.0,0.0,4.3695,4.348,0.0,4.5102,4.497,4.6039,4.7192,4.8274,4.8748,4.8923,4.8639,4.8861,4.8376,4.6921,4.6786,4.6143,4.4654,4.4587,4.4316,4.3741,4.3741,4.347,4.2929,4.2692,4.2692,4.2929,4.3267,4.3639,4.4079,4.4621,4.4993,4.5196,4.5196,4.55,4.6007,4.6007,4.6312,4.6786,4.6786,4.6583,4.6278,4.6075,4.6583,4.7361,4.3101,4.3578,4.4004,4.4035,4.4706,4.5665,4.696,4.7202,4.7475,4.8292,4.8448,4.836,4.805,4.8629,4.9056,4.9079,4.7735,4.7346,4.8439,4.6416,4.5111,4.5075,4.5623,4.5553,4.4782,4.548,4.6287,4.7131,4.6564,4.7616,4.9996,4.8732,4.8598,4.9361,4.9361,4.8708,4.7727,4.8546,4.8603,4.8269,4.8306,4.8306,4.8229,4.7674,4.7097,4.6621,4.6603,0.0,0.0,4.7665,4.8409,0.0,0.0,0.0,0.0,0.0,0.0,0.0,0.0,0.0,0.0,4.8951,0.0,0.0,0.0,0.0,4.7597,0.0,0.0,0.0,4.5458,4.5365,4.5014,4.4096,4.4172,0.0,0.0,4.6614,4.6819,4.6853,4.8139,4.8639,4.7737,4.845,4.8376,4.6921,4.6786,4.6143,4.4654,4.4587,4.4553,4.4553,4.4553,4.4519,4.4519,4.3741,4.3775,4.4485,4.3775,4.4181,4.5635,4.5669,4.6041,4.6718,4.6718,4.6718,4.6752,4.6752,4.6786,4.6786,4.6786,4.7225,4.7767,4.7022,4.7665,4.8849,4.3712,4.4282,4.4789,4.4827,4.5112,4.5742,4.7118,4.84,4.9472,5.0295,5.092,5.1625,5.2463,5.2056,5.1857,5.2246,5.0691,4.9599,4.9418,4.9196,4.8458,4.7049,4.8126,4.7975,4.6324,4.6544,4.6838,4.7131,4.7194,4.8248,5.0073,4.934,4.9445,5.0237,4.9427,4.8861,4.8509,4.9122,4.9268,4.9148,4.9222,4.8937,4.8575,0.0,4.7558,4.642,4.6124,4.6034,0.0,4.638,4.6921,4.753,4.753,4.753,4.7631,4.8139,4.8274,0.0,0.0,0.0,4.8883,4.8409,0.0,0.0,0.0,0.0,0.0,0.0,0.0,0.0,0.0,4.4628,4.4224,4.4122,4.4519,4.5048,0.0,4.591,4.5659,4.4802,4.618,4.7239,4.7572,4.7438,4.7187,4.6794,4.6346,0.0,4.4621,4.506,4.5094,4.4587,4.506,4.5094,4.4587,4.4316,4.4316,4.4587,4.4316,4.4722,4.5703,4.5703,4.6109,4.6786,4.6786,4.709,4.753,4.753,4.7834,4.8274,4.8274,4.8409,4.8545,4.78,4.8173,4.8951,4.4395,4.5082,4.568,4.5719,4.6182,4.6823,4.778,4.9441,5.0852,5.1672,5.2521,5.3376,5.4334,5.3948,5.3683,5.392,5.2826,5.1801,5.1045,5.127,5.0684,4.9076,5.0035,4.9743,4.783,4.8198,4.8306,4.8012,4.8532,4.9491,5.075,4.9884,4.9907,5.0688,4.9631,4.897,4.875,4.9673,4.9691,4.9227,4.9595,4.9376,4.872,0.0,4.7891,4.6482,0.0,4.5703,4.5737,4.6007,4.6413,4.6786,4.6786,4.6786,4.6887,4.7361,4.7699,4.8037,4.8477,4.8815,0.0,4.8409,4.8308,0.0,4.7872,0.0,0.0,0.0,0.0,0.0,0.0,0.0,4.4402,4.4362,4.4744,4.5262,0.0,4.5505,4.4952,4.4142,4.5128,4.6196,4.7004,4.6979,4.6839,4.6794,4.6346,4.5635,4.4621,4.5297,4.5466,4.4993,4.5703,4.5737,4.4993,4.5229,4.5229,4.4993,4.5229,4.5771,4.6481,4.6152,4.6555,4.7564,4.7228,4.7558,4.8308,4.8308,4.8578,4.9018,4.9018,4.9154,4.9289,4.8578,4.8781,4.939,4.5189,4.6061,4.6673,4.6651,4.7806,4.8805,4.8944,5.0253,5.1581,5.2434,5.3221,5.3691,5.3708,5.4347,5.4568,5.4105,5.4011,5.3807,5.3293,5.2575,5.1811,5.0912,5.127,5.0735,4.9135,0.0,0.0,4.9627,5.0472,5.1242,5.1977,5.0398,5.0105,5.0839,4.9958,4.9114,4.8489,5.0141,4.9997,4.8695,4.9536,4.9427,4.869,4.8762,4.7992,4.6684,4.5974,4.5703,4.5737,4.6447,4.6684,4.6684,4.6684,4.6684,4.6684,4.6718,4.7259,4.7834,4.7902,4.8409,4.8951,4.8923,0.0,0.0,0.0,0.0,4.7239,0.0,0.0,0.0,0.0,0.0,0.0,4.498,4.5096,4.5488,4.6323,4.5476,4.4781,4.4737,4.493,4.5373,4.6109,4.6971,4.727,4.6828,4.6752,4.6109,4.4632,4.5307,4.5713,4.5621,4.633,4.6364,4.5621,4.6389,4.6389,4.5713,4.6447,4.7192,4.7841,4.6935,4.7398,4.8861,4.7933,4.8032,4.8861,4.8861,4.8861,4.8861,4.8894,4.9367,5.0004,4.9357,4.956,5.0135,4.6167,4.7833,4.8918,4.8387,4.9126,4.9799,4.9742,5.1199,5.2557,5.3221,5.4142,5.4849,5.5278,5.5475,5.5513,5.5301,5.5253,5.4917,5.4211,5.4518,5.3824,5.179,5.2354,5.1956,5.0376,5.0662,5.0692,5.0472,5.1279,5.1793,5.1977,5.1573,5.1463,5.1646,5.0839,5.0031,4.937,5.0986,5.1128,5.0243,5.0066,4.9493,4.8653,0.0,4.7097,4.6684,4.5974,4.5365,4.4891,4.5094,4.5128,4.5128,4.5128,4.5128,4.5263,4.5805,4.6109,4.6515,4.7631,4.8071,4.8124,4.8028,4.7933,4.7737,0.0,0.0,0.0,0.0,0.0,0.0,0.0,0.0,0.0,4.5634,4.6463,4.6572,4.5381,4.4591,4.3925,4.3711,4.3464,4.4095,4.5975,4.5452,4.544,4.6701,4.6278,4.548,4.445,0.0,4.5728,4.4464,4.5113,4.5145,4.4432,4.5332,4.5678,4.5512,4.6354,4.7192,4.7841,4.6935,4.7043,4.7933,4.6968,4.6662,4.6936,4.6936,4.6936,4.6932,4.7485,4.8551,4.9892,5.0419,5.0777,5.0784,4.6844,4.8956,5.0461,5.0078,5.0973,5.1506,5.0655,5.1674,5.2766,5.3441,5.433,5.5034,5.5264,5.5614,5.5789,5.5724,5.5703,5.5429,5.4795,5.5193,5.474,5.3157,5.3311,5.2858,5.1599,5.1768,0.0,5.1316,5.2123,5.2527,5.2527,5.216,5.1977,5.194,5.1169,5.0545,5.0138,5.0802,5.0856,5.0449,4.9803,4.9135,0.0,4.7233,4.6583,4.621,4.5466,4.4925,4.4587,4.4587,4.4587,4.4587,4.4587,4.4587,4.4654,4.5094,4.5669,4.6287,4.6703,4.7283,4.7661,4.7141,4.7036,4.673,4.5778,4.5561,4.5363,0.0,0.0,0.0,0.0,0.0,0.0,4.6024,4.6314,4.5992,4.4962,4.4096,4.3701,4.3944,4.3758,4.4548,4.705,4.5662,4.5146,4.6586,4.6252,4.5317,4.3813,0.0,4.5594,4.4058,4.5336,4.5736,4.5111,4.5794,4.6291,4.6462,4.692,4.735,4.7751,4.6783,4.6578,4.6968,4.6279,4.6222,4.6685,4.6901,4.6997,4.7093,4.7828,4.8707,4.9603,5.05,5.0921,5.0961,4.7645,4.9838,5.1523,5.1406,5.2635,5.313,5.172,5.2161,5.2858,5.3468,5.4304,5.4817,5.4647,5.528,5.5703,5.5703,5.5643,5.547,5.5134,5.5053,5.4819,5.442,5.4013,5.3461,5.2679,5.2913,5.2694,0.0,5.2694,5.306,5.3023,5.2449,5.216,5.2123,5.1316,5.0835,5.0639,4.9924,4.9713,4.978,4.912,4.8477,4.7834,4.6955,4.6244,4.5602,4.4857,4.4587,4.4587,4.4587,4.4587,4.4587,4.4587,4.4497,4.444,4.444,4.5235,4.6006,4.5398,4.6159,4.6943,4.6212,4.6032,4.5778,4.4781,4.4586,4.4358,4.3488,4.3778,4.4018,0.0,0.0,0.0,4.5769,0.0,0.0,0.0,4.4004,4.3849,4.4662,4.5005,0.0,4.8327,4.6815,4.596,4.6684,4.6618,4.5603,4.3317,0.0,4.5246,4.4002,4.5889,4.666,4.6188,0.0,4.7257,4.7584,4.7603,4.7506,4.7373,4.662,4.623,4.6152,4.5815,4.6126,4.7014,4.751,4.7795,4.7953,4.8783,4.9178,4.9337,5.0096,5.0467,5.0504,4.9371,5.1211,5.2266,5.1523,5.2055,5.2709,5.3137,5.3896,5.4401,5.4342,5.5109,5.5647,5.5514,5.5626,5.5703,5.5703,5.5399,5.5186,5.5107,5.479,5.4387,5.3941,5.3832,5.3607,5.3134,5.2571,5.2216,0.0,0.0,5.2289,5.2335,5.2791,5.3004,5.2968,5.216,5.1104,4.9856,4.8624,4.8514,4.9041,4.8337,4.8037,4.7767,4.6413,4.5805,4.5602,4.4857,4.4587,4.4587,4.4587,4.4587,4.4587,4.4587,4.4121,4.3502,4.3502,4.3211,4.3072,4.4071,4.4487,4.4765,4.5018,4.5005,4.4781,4.3771,4.3536,4.3488,4.3329,4.3419,4.3479,4.3359,0.0,0.0,0.0,0.0,0.0,0.0,0.0,4.4586,4.4812,4.6205,4.7304,4.777,4.7441,4.7507,4.8164,4.7671,4.6507,4.4413,0.0,4.4538,0.0,4.4586,0.0,0.0,0.0,4.6239,4.6118,4.7095,4.7172,4.6486,4.6885,4.656,4.577,4.5494,4.5505,4.5667,4.5758,4.6152,4.6667,4.7707,4.8369,4.8979,5.0055,4.9836,4.9188,5.1211,5.25,5.3242,5.2812,5.3253,5.3807,5.4196,5.4865,5.5127,5.459,5.4957,5.5243,5.5091,5.5263,5.5399,5.5399,5.5026,5.4701,5.4446,5.4217,5.3905,5.3524,5.3484,5.3203,5.2644,5.2289,5.1934,5.1593,0.0,0.0,5.2112,5.2028,5.2243,5.2563,5.1457,5.0581,4.9816,4.8746,0.0,4.888,4.8158,4.7665,4.7225,4.6109,4.5466,4.506,4.4722,4.4823,4.5094,4.4722,4.4587,4.4564,4.444,4.4185,4.3793,4.3716,4.3621,4.3639,4.3857,4.4157,4.4382,4.4129,4.4004,4.3927,4.3409,4.3329,4.3329,4.3329,4.3329,4.3488,4.4004,4.4082,0.0,0.0,0.0,0.0,0.0,0.0,4.5939,4.6013,4.7313,4.8297,4.8693,4.8726,4.8396,4.7539,4.6915,4.5665,4.3685,0.0,4.4497,0.0,0.0,0.0,0.0,0.0,0.0,4.6957,4.7056,4.6897,4.6485,4.6831,4.6377,4.5525,4.5763,4.5843,4.5873,4.6202,4.6531,4.6916,4.7364,4.7714,4.8072,4.8625,4.846,4.8072,5.2851,5.3672,5.4219,5.4023,5.4501,5.4897,5.4897,5.5371,5.5472,5.4857,5.4824,5.488,5.4762,5.4968,5.5107,5.5107,5.464,5.4187,5.3795,5.372,5.3526,5.3188,5.3225,5.2813,5.2112,5.197,5.1472,0.0,0.0,0.0,0.0,5.1344,5.1318,5.1524,5.0332,4.9573,0.0,0.0,4.8734,4.8714,4.8139,4.7462,4.6718,4.5974,4.5331,4.479,4.4654,4.506,4.5544,4.4822,4.4562,4.4514,4.4335,4.4066,4.3719,4.3767,4.4028,4.4189,4.358,4.382,4.4129,4.3457,4.3329,4.3329,4.3329,4.3329,4.3329,4.3329,4.3329,4.3566,4.4358,4.3849,0.0,0.0,0.0,0.0,0.0,0.0,4.724,4.7212,4.8031,4.8682,4.8711,4.8833,4.8111,4.6356,4.5886,4.4894,4.3144,0.0,0.0,0.0,0.0,4.5961,4.6616,0.0,4.6804,4.7757,4.6983,4.6638,4.6401,4.6793,4.6406,4.5544,4.6232,4.6531,4.6561,4.71,4.7309,4.7309,4.7309,4.7309,4.7309,4.7309,4.7309,4.7396,5.3867,5.457,5.4922,5.4141,5.4501,5.4897,5.4897,5.5371,5.5665,5.5588,5.5609,5.5609,5.5588,5.5312,5.5107,5.5107,5.435,5.3832,5.3795,5.3444,5.323,5.3225,5.3225,5.2813,5.2112,5.1494,5.0524,0.0,0.0,5.015,0.0,0.0,0.0,0.0,0.0,0.0,0.0,4.7704,4.7996,4.8003,4.7936,4.7462,4.6718,4.5974,4.5669,4.55,4.4823,4.506,4.5554,4.4649,4.4339,4.4401,4.4315,4.3201,4.2077,4.2621,4.2322,4.1867,4.2346,4.2556,4.2737,4.318,4.3329,4.3329,4.3329,4.3329,4.3329,4.3329,4.3329,4.3329,4.3409,4.3329,4.3539,0.0,0.0,0.0,0.0,0.0,4.7956,4.7325,4.7878,4.7598,4.5805,4.6013,4.595,4.5277,4.5594,4.5356,0.0,0.0,0.0,4.3329,0.0,4.6498,4.6371,4.6559,4.6559,4.6455,4.6628,4.6272,4.547,4.6966,4.7109,4.6262,4.692,4.7219,4.7219,4.7279,4.7309,4.7309,4.7309,4.7309,4.7309,4.7309,4.7309,4.7399,5.4101,5.4687,5.5311,5.5414,5.5131,5.503,0.0,5.5632,5.5895,5.6395,5.6011,5.5703,5.5703,5.535,5.5107,5.5107,5.4284,5.3795,5.3795,5.3404,5.3225,5.3225,5.3225,5.2813,5.2112,5.1838,5.1215,0.0,0.0,0.0,0.0,0.0,0.0,0.0,0.0,4.8206,4.8012,4.7954,4.8173,4.8545,4.8105,4.7733,4.7394,4.665,4.6346,4.6254,4.541,4.5596,4.5943,4.4561,4.4202,4.4259,4.4061,4.3451,4.289,4.3001,4.2831,4.2611,4.288,4.294,4.3,4.3269,4.303,4.2761,4.2761,4.2761,4.2761,4.2761,4.306,4.3329,4.3329,4.3329,4.3539,0.0,0.0,0.0,0.0,0.0,0.0,4.7038,4.6993,4.6574,4.5101,4.5098,4.5232,4.5202,4.5044,4.4978,0.0,0.0,0.0,4.5095,0.0,4.6199,4.689,4.7015,4.7015,4.692,4.7015,4.6894,4.6501,4.7166,4.7286,4.692,4.7189,4.7309,4.7309,4.7309,4.7309,4.7309,4.7309,4.7309,4.7369,4.7758,4.7908,4.7997,5.4453,5.5078,5.5858,5.6383,5.5825,5.5447,5.5913,5.5807,5.6011,5.6896,5.6472,5.6165,5.6434,5.5657,5.5298,5.5794,5.4905,5.439,5.4503,5.4266,5.4054,5.3922,5.3922,0.0,5.2834,5.2834,5.24,5.1492,5.144,0.0,0.0,0.0,0.0,0.0,4.8371,4.8409,4.868,4.8376,4.8545,4.8951,4.8443,4.8105,4.7868,4.7327,4.6911,4.6602,4.5719,4.57,4.583,4.4437,4.4026,4.4069,4.3809,4.3494,4.3349,4.3277,4.3329,4.3329,4.3329,4.3329,4.3329,4.3329,4.3,4.2641,4.2641,4.2641,4.2641,4.2641,4.3,4.3329,4.3329,4.3479,4.3838,4.4496,0.0,0.0,0.0,4.7487,0.0,4.6857,4.6122,4.5278,4.4188,4.4538,4.5003,4.5455,4.5011,0.0,0.0,0.0,0.0,0.0,0.0,0.0,0.0,4.7309,4.7309,4.7309,4.7309,4.7309,4.7309,4.7309,4.7309,4.7309,4.7309,4.7309,4.7309,4.7309,4.7309,4.7309,4.7309,4.7309,4.7369,4.8027,4.8297,4.8416,5.5117,5.5976,5.6601,5.6601,5.638,5.6191,5.6191,5.5913,5.6011,5.6896,5.6973,5.7319,5.8165,5.6346,5.5756,5.7434,5.6398,5.5864,5.6257,5.6256,5.6057,0.0,0.0,5.5268,5.458,5.458,5.385,5.236,0.0,0.0,5.1189,0.0,4.9617,4.8924,4.8976,4.8612,4.797,4.868,4.8984,4.9018,4.8984,4.8545,4.7936,4.7902,4.7283,4.6419,4.5695,4.5309,4.4941,4.405,4.3685,4.3685,4.3716,4.3152,4.2569,4.315,4.3329,4.3329,4.3329,4.3329,4.3329,4.3329,4.3329,4.3329,4.3329,4.3329,4.3329,4.3329,4.3329,4.3329,4.3329,4.3868,4.4526,4.5185,0.0,0.0,0.0,4.8252,0.0,4.6967,4.5373,4.3778,4.2569,4.3838,4.5091,4.5818,0.0,0.0,0.0,0.0,0.0,4.4317,4.5633,0.0,4.7309,4.7309,4.7309,4.7309,4.7309,4.7309,4.7309,4.7309,4.7309,4.7309,4.7309,4.7309,4.7309,4.7309,4.7309,4.7309,4.7309,4.7309,4.7369,4.8027,4.8297,4.8476,5.4232,5.4903,5.5584,5.6046,5.6058,5.5971,5.5861,5.5788,5.6011,5.6896,5.6472,5.656,5.7724,5.7493,5.7258,0.0,5.6776,5.6568,0.0,5.6174,5.5754,5.5574,5.5574,5.5485,5.5268,5.5268,5.503,5.4553,0.0,0.0,0.0,5.0454,4.9657,4.8976,4.9006,4.8883,4.868,4.8917,4.9018,4.9018,4.9018,4.8849,4.8585,4.7955,4.7537,4.7078,4.5559,4.4912,4.4767,4.3747,4.3469,4.3469,4.3469,4.3235,4.306,4.3269,4.3329,4.3329,4.3329,4.3329,4.3329,4.3329,4.3,4.2671,4.2671,4.2671,4.2791,4.324,4.3329,4.3329,4.3329,4.3868,4.4526,4.5185,4.6177,0.0,0.0,0.0,4.6123,4.6098,4.4818,4.4075,4.4266,4.5223,0.0,0.0,0.0,0.0,0.0,0.0,0.0,0.0,4.6112,0.0,4.7967,4.7967,4.7967,4.7967,4.8446,4.8416,4.7967,4.7519,4.7549,4.7967,4.7967,4.7967,4.7967,4.7967,4.7698,4.7309,4.7309,4.7578,4.8057,4.8716,4.9224,4.9733,5.365,5.4381,5.5158,5.5863,5.5932,5.5874,5.5808,5.5605,5.5777,5.6659,5.6179,5.6,5.6806,5.77,0.0,5.7493,5.7377,5.7401,5.7563,5.7066,5.6719,5.6492,5.6492,5.6492,5.6492,5.6492,0.0,5.6088,5.4804,5.3133,5.1153,5.0441,4.9695,4.9018,4.9018,4.9018,4.9018,4.9018,4.9018,4.8984,4.8639,4.8513,4.8353,4.744,4.69,4.6416,4.5227,4.4586,4.4159,4.3488,4.3329,4.3329,4.3329,4.3329,4.3329,4.3329,4.3329,4.3329,4.3329,4.3329,4.3329,4.3329,4.303,4.2731,4.2731,4.2731,4.2851,4.324,4.3329,4.3419,4.3658,4.4227,4.4915,4.5574,4.6262,4.6621,4.6352,0.0,4.5788,0.0,0.0,0.0,0.0,4.698,4.7804,0.0,0.0,0.0,0.0,0.0,0.0,4.6292,4.6561,0.0,4.8267,4.8536,4.8656,4.8656,4.9075,4.9045,4.8626,4.8237,4.8267,4.8656,4.8656,4.8656,4.8656,4.8656,4.8416,4.8027,4.8027,4.8297,4.8745,4.9404,4.9883,5.0331,5.334,5.4186,5.5041,0.0,5.5991,0.0,5.5835,5.5423,5.5374,5.6148,5.5898,5.5611,5.5578,5.7054,5.8072,5.8038,0.0,0.0,0.0,5.8673,5.8461,5.8042,5.7997,5.7997,5.7997,5.795,5.7546,5.6721,5.4582,5.2735,5.1198,5.0441,4.9695,4.9018,4.9018,4.9018,4.9018,4.9018,4.9018,4.8923,4.7998,4.7572,4.7506,4.6454,4.5561,4.4812,4.4737,4.4082,4.3329,4.3329,4.3329,4.3329,4.3329,4.3329,4.3329,4.3329,4.3329,4.3329,4.3329,4.3329,4.3329,4.3329,4.3329,4.3329,4.3329,4.3329,4.3329,4.3329,4.3359,4.3599,4.4197,4.4885,4.5574,4.6232,4.683,4.701,4.6406,0.0,4.6454,0.0,0.0,0.0,0.0,4.9006,4.9951,0.0,0.0,0.0,0.0,0.0,4.5723,4.6381,4.704,4.7698,4.8416,4.9015,4.9344,4.9404,4.9314,4.9284,4.9344,4.9284,4.9284,4.9344,4.9344,4.9344,4.9344,4.9344,4.9314,4.9254,4.9254,4.9284,4.9404,5.0002,5.0272,5.0391,0.0,0.0,5.3896,5.4746,5.5384,5.5647,5.5346,5.5174,5.5037,5.4936,5.485,5.4656,5.4275,5.5697,5.6552,5.6265,5.7667,5.8609,5.8676,5.8332,5.8097,5.7997,5.7997,5.7997,5.7997,5.7449,5.651,5.5179,5.4027,5.2708,5.1167,5.0464,4.9695,4.9018,4.9018,4.9018,4.9018,4.9018,4.9018,4.8923,4.7998,4.7572,4.744,4.5778,4.5005,4.4737,4.3927,4.3488,4.3329,4.3329,4.3329,4.3329,4.3329,4.3329,4.3329,4.3329,4.3329,4.3329,4.3329,4.3329,4.3329,4.3329,4.3329,4.3329,4.3329,4.3329,4.3329,4.3329,4.3748,4.4137,4.4287,4.5274,4.6142,4.6292,4.6441,4.6545,4.6609,4.622,0.0,0.0,4.7854,4.866,4.9391,5.0826,5.1731,0.0,0.0,0.0,0.0,4.7999,4.689,4.707,4.7698,4.8596,4.9763,4.9942,5.0242,5.075,4.9733,4.9523,5.0002,4.9494,4.9523,5.0002,5.0002,5.0002,5.0002,5.0002,4.9733,4.9254,4.9254,4.9583,5.0032,5.0182,5.0541,5.102,5.1868,5.2338,5.301,5.428,5.4671,5.4891,5.5057,5.479,5.4414,5.4221,5.4314,5.4354,5.4081,5.5521,5.6393,5.6206,5.7537,5.8375,5.8375,5.8142,5.7997,5.7997,5.7997,5.7821,5.7498,5.7116,5.615,5.4606,5.3851,5.2686,5.1217,5.0811,5.0033,4.9018,4.9018,4.9018,4.8984,4.8576,4.8353,4.8225,4.69,4.6346,4.6134,4.4706,4.4128,4.4112,4.3818,4.3778,4.3778,4.3778,4.3778,4.3718,4.3419,4.3329,4.3389,4.3688,4.3569,4.3329,4.3329,4.3329,4.3329,4.3329,4.3329,4.3329,4.3329,4.3569,4.3778,4.3778,4.4317,4.4855,4.5185,4.5843,4.6322,4.6322,4.6682,4.6783,4.6298,4.6717,0.0,4.7998,4.9161,5.0158,5.0984,5.2164,5.2472,5.1663,0.0,0.0,4.9615,4.8462,4.7758,4.7758,4.8386,4.9224,5.0242,5.0541,5.087,5.1199,5.0511,5.0331,5.0661,5.0331,5.0361,5.069,5.069,5.069,5.069,5.069,5.0481,5.0152,5.0152,5.0391,5.072,5.102,5.1349,5.1708,5.1548,5.1933,5.2528,5.3947,5.4101,5.4177,5.4818,5.4284,5.3833,5.3869,5.4105,5.4326,5.4546,5.5794,5.6675,5.6785,5.7556,5.7997,5.7997,5.7997,5.7997,5.7997,5.7867,5.7546,5.6912,5.6668,5.5872,5.4419,5.3713,5.2604,5.1217,5.1217,5.0405,4.9018,4.912,4.9024,4.8736,4.7933,4.7506,4.7239,4.5488,4.4812,4.4662,4.3693,4.3389,4.3569,4.4107,4.4377,4.4436,4.4347,4.4317,4.4227,4.3658,4.3479,4.3599,4.4257,4.4077,4.3629,4.3629,4.3569,4.3479,4.3479,4.3389,4.3359,4.3449,4.3898,4.4347,4.4436,4.4975,4.5633,4.6232,4.6411,4.6471,4.6611,4.7201,4.7229,4.6434,0.0,4.866,4.8895,5.0357,5.1623,5.2232,5.3145,5.2941,5.1267,5.0833,5.0248,4.9068,4.8698,4.8476,4.8566,4.9134,4.9733,5.0361,5.093,5.1229,5.1229,5.1229,5.1229,5.1229,5.1229,5.1259,5.1379,5.1379,5.1379,5.1379,5.1468,5.1439,5.1379,5.1468,5.1498,5.1588,5.2127,5.2336,5.2426,5.0702,5.2049,5.2965,5.2919,5.4027,5.4696,5.4081,5.3869,5.3943,5.4239,5.3781,5.3922,5.5244,5.5647,5.6051,5.6748,5.7556,5.7997,5.7997,5.7997,5.7997,5.7997,5.7401,5.7015,5.6912,5.5645,5.4544,5.3651,5.2874,5.2063,5.1217,5.1217,5.0405,4.9018,4.9661,4.9147,4.7803,4.7671,4.7172,4.6314,4.5227,4.4812,4.4662,4.3693,4.3688,4.4167,4.4287,4.4676,4.5065,4.4496,4.4317,4.4287,4.4197,4.4167,4.4287,4.4945,4.5065,4.4975,4.4975,4.4586,4.4167,4.4167,4.3748,4.3479,4.4047,4.4257,4.4466,4.5035,4.5693,4.6202,4.6292,4.677,4.7473,4.8275,4.7534,4.7401,4.8881,0.0,4.8961,4.9813,5.122,5.2164,5.23,5.3585,5.3881,5.2679,5.232,5.1674,5.0545,4.9607,4.9374,4.9912,5.0032,5.0391,5.105,5.1169,5.1229,5.1229,5.1229,5.1229,5.1229,5.1229,5.1528,5.2037,5.2037,5.2037,5.2097,5.2636,5.2546,5.2097,5.2665,5.2875,5.2875,5.2995,5.3025,5.3054,5.0248,5.1354,5.2193,5.2275,5.3067,5.3724,5.3794,5.3643,5.3699,5.4332,5.4436,5.495,5.6124,5.6638,5.7042,5.7409,5.7776,5.7821,5.7449,5.7774,5.7821,5.7401,5.7065,5.651,5.5702,5.4544,5.3815,5.3518,5.3145,5.257,5.1792,5.1792,5.1217,5.0202,4.9957,4.9426,4.8691,4.758,4.6856,4.6366,4.5432,4.5069,4.4989,4.4539,4.4586,4.4885,4.5274,4.5603,4.5813,4.5484,4.5394,4.5334,4.4945,4.4855,4.4975,4.5663,4.5574,4.5304,4.5304,4.5065,4.4855,4.4855,4.4616,4.4466,4.4766,4.5125,4.5484,4.5783,4.6381,4.7001,4.7532,4.7943,4.8337,4.9032,4.8624,0.0,0.0,4.9559,4.9888,5.1119,5.1894,5.2404,5.2594,5.3294,5.3173,5.1885,5.1638,5.1265,5.0482,5.0366,5.0451,5.075,5.078,5.09,5.1229,5.1558,5.1558,5.1229,5.1588,5.1738,5.1738,5.1738,5.2097,5.2725,5.2725,5.2725,5.2755,5.3054,5.2995,5.2755,5.3054,5.3174,5.3234,5.3593,5.3743,5.3773,5.0197,5.0951,5.1602,5.2015,5.2479,5.2977,5.357,5.34,5.3555,5.4546,5.506,5.5757,5.6969,5.7446,5.773,5.7774,5.7726,5.7449,5.6668,5.7166,5.7216,5.6668,5.6456,5.5759,5.4391,5.3783,5.3518,5.3518,5.3518,5.3078,5.23,5.2503,5.1931,5.0858,5.022,4.9632,4.8868,4.7383,4.6559,4.6321,4.5604,4.5304,4.5304,4.5304,4.5394,4.5603,4.6142,4.6411,4.6531,4.6381,4.6322,4.6232,4.5693,4.5544,4.5663,4.6352,4.6172,4.5753,4.5753,4.5633,4.5544,4.5544,4.5424,4.5334,4.5514,4.5933,4.6436,4.681,4.7262,4.7988,4.8973,4.9135,4.9347,4.9888,0.0,0.0,0.0,5.0524,5.1082,5.2435,5.2739,5.2907,5.3107,5.3329,5.2754,5.1126,5.1172,5.1138,5.0661,5.102,5.1289,5.1439,5.1439,5.1439,5.1439,5.1947,5.2037,5.1678,5.2037,5.2276,5.2426,5.2426,5.2785,5.3414,5.3414,5.3414,5.3443,5.3593,5.3563,5.3443,5.3593,5.3653,5.3713,5.4251,5.4431,5.4521,5.0735,5.1613,5.2052,5.2412,5.3162,5.357,5.3277,5.3188,5.3775,5.5317,5.4913,5.5354,5.7666,5.7299,5.6922,5.6978,5.6964,5.6668,5.5836,5.5836,5.5836,5.578,5.5144,5.4391,5.3618,5.3518,5.3518,5.3518,5.3518,5.3078,5.2334,5.3078,5.2101,4.9882,5.0439,4.9305,4.692,4.6764,4.6192,4.5357,4.5304,4.5304,4.5304,4.5304,4.5693,4.6262,4.6292,4.6711,4.713,4.6531,4.6322,4.6322,4.6262,4.6262,4.6381,4.704,4.7189,4.716,4.716,4.6711,4.6262,4.6262,4.5753,4.5454,4.6112,4.6292,4.6725,4.8327,4.8646,4.9004,5.0087,5.0242,5.0595,5.1532,0.0,0.0,5.2,5.2099,5.2469,5.3315,5.4025,5.432,5.3973,5.4514,5.4049,5.1902,5.2317,5.2549,5.2102,5.1528,5.1498,5.2127,5.2127,5.2127,5.2127,5.2187,5.2486,5.3025,5.2456,5.2516,5.3114,5.3114,5.3473,5.4132,5.4132,5.4132,5.4192,5.479,5.467,5.4192,5.479,5.5029,5.5059,5.5089,5.5119,5.5119,5.0101,5.1078,5.1703,5.2155,5.285,5.34,5.3188,5.3225,5.3592,5.4693,5.5023,5.5514,5.6491,5.6721,5.6689,5.6223,5.615,5.5836,5.5084,5.5059,5.5059,5.5059,5.4328,5.3783,5.3518,5.3518,5.3518,5.3518,5.3518,5.3348,5.3044,5.2667,5.2014,5.1026,5.0005,4.897,4.7985,4.7311,4.684,4.6531,4.6531,4.6531,4.6531,4.6531,4.6711,4.692,4.692,4.71,4.7279,4.701,4.692,4.692,4.692,4.692,4.698,4.7249,4.7309,4.7309,4.7309,4.713,4.692,4.692,4.6741,4.6621,4.686,4.7371,4.807,4.8697,4.9721,5.0643,5.122,5.2128,5.2885,5.3465,0.0,5.3444,5.4295,5.4025,5.3752,5.3789,5.405,5.378,5.2727,5.2879,5.2739,5.2093,5.2274,5.254,5.2755,5.2576,5.2755,5.3414,5.3443,5.3234,5.2815,5.3234,5.3354,5.3174,5.3354,5.3563,5.3832,5.3832,5.4192,5.482,5.482,5.482,5.485,5.5089,5.5029,5.485,5.5089,5.5448,5.5807,5.5807,5.6047,5.6376,4.9993,5.0859,5.1378,5.2201,5.2821,5.3225,5.3225,5.3225,5.3396,5.3953,5.4756,5.5291,5.5323,5.606,5.6204,5.5437,5.5379,5.5059,5.4328,5.4264,5.4264,5.4264,5.3783,5.3518,5.3518,5.3518,5.3518,5.3518,5.3179,5.3041,5.2939,5.1921,5.1229,5.0822,4.9456,4.8594,4.8293,4.7624,4.7309,4.7309,4.7309,4.7309,4.7309,4.7309,4.7309,4.7309,4.7309,4.7309,4.7309,4.7309,4.7309,4.7309,4.7309,4.7309,4.7309,4.7309,4.7309,4.7309,4.7309,4.7309,4.7309,4.7309,4.7309,4.7366,4.7679,4.8293,4.9035,4.9947,5.1069,5.2205,5.297,5.3911,5.4662,5.4937,5.4938,5.5108,5.5649,5.4929,5.44,5.4402,5.4088,5.3407,5.2244,5.2131,5.2181,5.2192,5.2187,5.2486,5.3144,5.3593,5.3922,5.4192,5.4401,5.4281,5.3803,5.4072,5.4072,5.3803,5.4072,5.4311,5.4521,5.4521,5.476,5.5179,5.5179,5.5179,5.5179,5.5179,5.5299,5.5508,5.5508,5.5897,5.6466,5.6466,5.6735,5.7094,5.0668,5.1044,5.1316,5.2931,5.3225,5.3225,5.3225,5.3225,5.323,5.3255,5.4025,5.4481,5.4559,5.5228,5.5379,5.4634,5.4606,5.4264,5.3551,5.3518,5.3518,5.3518,5.3518,5.3518,5.3518,5.3518,5.3518,5.3518,5.2416,5.1921,5.1921,5.0855,4.9852,4.8841,4.881,4.821,4.7309,4.7309,4.7309,4.7309,4.7309,4.7309,4.7309,4.7309,4.7309,4.7309,4.7309,4.7309,4.7309,4.7309,4.7309,4.7309,4.7309,4.7309,4.7309,4.7309,4.7309,4.7309,4.7309,4.7309,4.7309,4.7309,4.7309,4.7624,4.8594,4.8841,4.9644,5.2441,5.2975,5.3606,5.5336,5.5716,5.575,5.5716,5.575,5.575,5.575,5.4755,5.4251,5.4974,5.4131,5.3355,5.2927,5.29,5.2702,5.2252,5.2217,5.2516,5.3144,5.4461,5.491,5.4251,5.485,5.5179,5.5179,5.4551,5.4551,5.5179,5.4521,5.4551,5.5179,5.5179,5.5179,5.5179,5.5179,5.5179,5.5209,5.5209,5.5598,5.6196,5.6196,5.6555,5.7094,5.7094,5.7094,5.7124,5.0302,5.0885,5.1316,5.2931,5.3225,5.3225,5.3225,5.2769,5.2408,5.2485,5.3232,5.3548,5.3009,5.4137,5.4668,5.3881,5.3815,5.3717,5.3484,5.3518,5.3518,5.3518,5.3518,5.3518,5.3518,5.3518,5.3518,5.3518,5.2416,5.1921,5.1849,5.0055,4.9135,4.8759,4.8072,4.7624,4.7309,4.7309,4.7309,4.7309,4.7309,4.7309,4.7309,4.7309,4.7309,4.7309,4.7309,4.7309,4.7309,4.7309,4.7309,4.7309,4.7309,4.7309,4.7309,4.7309,4.7309,4.7309,4.7309,4.7849,4.8377,4.8377,4.8377,4.8718,5.0374,5.1257,5.214,5.3494,5.4789,5.5631,5.568,5.6562,5.707,5.6562,5.734,5.7594,5.6245,5.6195,5.5683,5.3798,5.3255,5.2869,5.2425,5.2423,5.2718,5.3503,5.4042,5.4371,5.4581,5.497,5.5089,5.491,5.5089,5.5179,5.5179,5.4999,5.4999,5.5179,5.4999,5.4999,5.5179,5.5179,5.5179,5.5179,5.5179,5.5448,5.5867,5.5867,5.6256,5.6825,5.6825,5.7244,5.7812,5.7812,5.8112,5.8501,5.0141,5.0802,5.1316,5.2931,5.3225,5.3103,5.2813,5.2381,5.203,5.177,5.2482,5.2799,5.2344,5.3415,5.4011,5.3551,5.3518,5.3518,5.3518,5.3518,5.3518,5.3518,5.3518,5.3518,5.3518,5.311,5.287,5.287,5.1377,5.0671,5.0595,4.8973,4.821,4.8126,4.7624,4.7309,4.7309,4.7309,4.7309,4.7309,4.7309,4.7309,4.7309,4.7309,4.7309,4.7309,4.7309,4.7309,4.7309,4.7309,4.7309,4.7309,4.7309,4.7309,4.7309,4.7309,4.7309,4.7426,4.8152,4.8561,4.9097,5.0517,5.0153,4.9852,5.1726,5.2571,5.3419,5.4848,5.6068,5.6765,5.6596,5.7306,5.7566,5.6727,5.7557,5.7642,5.5829,5.6039,5.5634,5.3543,5.3131,5.2915,5.2642,5.2606,5.3025,5.4132,5.482,5.5179,5.5179,5.5179,5.5179,5.5179,5.5179,5.5179,5.5179,5.5179,5.5179,5.5179,5.5179,5.5329,5.5598,5.5598,5.5598,5.5598,5.5837,5.6047,5.6196,5.6436,5.6915,5.7513,5.7513,5.7932,5.853,5.853,5.877,5.9099,5.0068,5.0688,5.1197,5.2736,5.2987,5.2769,5.2112,5.2006,5.18,5.128,5.1879,5.2276,5.2298,5.301,5.3518,5.3518,5.3518,5.3518,5.3518,5.3518,5.3518,5.3518,5.3416,5.3348,5.3348,5.2383,5.1849,5.1776,4.9742,4.8841,4.8759,4.7764,4.7309,4.7309,4.7309,4.7309,4.7309,4.7309,4.7309,4.7309,4.7309,4.7309,4.7309,4.7309,4.7309,4.7309,4.7309,4.7309,4.7309,4.7309,4.7309,4.7309,4.7309,4.7309,4.7309,4.7309,4.7426,4.789,4.9511,4.9563,5.0088,5.3248,5.2476,5.1318,5.2935,5.332,5.4077,5.652,5.6934,5.7137,5.7848,5.791,5.7473,5.6459,5.6803,5.658,5.4877,5.4831,5.473,5.3927,5.3425,5.3204,5.3264,5.3384,5.3713,5.4341,5.4999,5.5329,5.5269,5.5329,5.5299,5.5179,5.5239,5.5269,5.5269,5.5269,5.5269,5.5269,5.5269,5.5628,5.6256,5.6256,5.6256,5.6286,5.6855,5.6795,5.6376,5.6944,5.7573,5.8201,5.8201,5.859,5.9099,5.9099,5.9099,5.9099,4.9444,4.9883,5.0271,5.1212,5.1491,5.1494,5.1343,5.1351,5.1346,5.1211,5.1816,5.2292,5.2266,5.301,5.3518,5.3518,5.3518,5.3518,5.3518,5.3518,5.3518,5.3518,5.2697,5.2241,5.2241,5.1993,5.1525,5.0703,4.9456,4.8841,4.8759,4.7764,4.7309,4.7309,4.7309,4.7309,4.7309,4.7309,4.7309,4.7309,4.7309,4.7309,4.7309,4.7309,4.7309,4.7309,4.7309,4.7309,4.7309,4.7309,4.7309,4.7309,4.7309,4.7309,4.7309,4.7309,4.8268,4.9396,4.977,5.1359,5.3106,5.3922,5.4343,5.4778,5.5732,5.6006,5.6482,5.8146,5.8051,5.7881,5.8626,5.8017,5.7252,5.6981,5.7326,5.6965,5.5059,5.5317,5.513,5.3572,5.3278,5.3384,5.3922,5.491,5.5598,5.5748,5.6316,5.6466,5.5987,5.6406,5.6226,5.5209,5.5688,5.5957,5.5957,5.5957,5.5957,5.5957,5.5957,5.6286,5.6885,5.6885,5.6885,5.6885,5.7034,5.7334,5.7723,5.7842,5.8291,5.889,5.889,5.8979,5.9099,5.9099,5.9099,5.9099,4.93,4.9655,4.9955,5.082,5.1058,5.0981,5.0608,5.092,5.1173,5.1192,5.1847,5.2469,5.2841,5.3247,5.3518,5.3518,5.3518,5.3518,5.3518,5.3518,5.328,5.28,5.2241,5.1451,5.0442,5.0442,5.0133,4.9615,4.8594,4.8072,4.8072,4.7538,4.7309,4.7309,4.7309,4.7309,4.7309,4.7309,4.7309,4.7309,4.7309,4.7309,4.7309,4.7309,4.7309,4.7309,4.7309,4.7309,4.7309,4.7309,4.7309,4.7309,4.7309,4.7309,4.7426,4.8298,4.9166,5.0289,5.198,5.3233,5.4477,5.6021,5.6606,5.6867,5.7239,5.7306,5.7746,5.9235,5.8791,5.8207,5.8608,5.7657,5.6718,5.6242,5.6525,5.6184,5.4354,5.4927,5.5129,5.3841,5.4221,5.488,5.5508,5.6196,5.6615,5.6615,5.6915,5.6944,5.6645,5.6645,5.6496,5.6107,5.6137,5.6316,5.6615,5.6615,5.6765,5.7094,5.6765,5.6944,5.7573,5.7573,5.7573,5.7603,5.7932,5.8082,5.8141,5.8471,5.88,5.9099,5.9099,5.9099,5.9099,5.9099,5.9099,5.9099,4.8848,4.9277,4.9615,5.0346,5.0647,5.05,4.9919,5.0597,5.1184,5.118,5.1961,5.2773,5.345,5.3518,5.3518,5.3518,5.3518,5.3416,5.328,5.3212,5.28,5.1704,5.1451,5.0518,4.8841,4.8594,4.8512,4.8512,4.7679,4.7309,4.7309,4.7309,4.7309,4.7309,4.7309,4.7309,4.7309,4.7309,4.7309,4.7309,4.7309,4.7309,4.7309,4.7309,4.7309,4.7309,4.7309,4.7309,4.7309,4.7309,4.7309,4.7309,4.7309,4.7309,4.7658,4.9242,5.005,5.1033,5.424,5.5048,5.5613,5.8302,5.8626,5.8287,5.8167,5.8208,5.8552,5.9751,5.9073,5.8248,5.8215,5.7174,5.6068,5.5224,5.547,5.5302,5.3939,5.464,5.5209,5.476,5.5658,5.6526,5.7034,5.7184,5.7274,5.7274,5.7363,5.7393,5.7274,5.6885,5.6795,5.7094,5.6705,5.6735,5.7274,5.7274,5.7603,5.8291,5.7723,5.7723,5.8291,5.8291,5.8291,5.8321,5.886,5.88,5.8321,5.889,5.9099,5.9099,5.9099,5.9099,5.9099,5.9099,5.9099,5.9099,4.6895,4.7432,4.8031,4.8132,4.8747,4.9256,4.9168,5.0294,5.121,5.1217,5.2469,5.3382,5.3484,5.3518,5.3518,5.3518,5.3518,5.311,5.217,5.2137,5.1704,5.0627,4.9694,4.9054,4.8841,4.7904,4.7538,4.7538,4.7396,4.7309,4.7309,4.7309,4.7309,4.7309,4.7309,4.7309,4.7309,4.7309,4.7309,4.7309,4.7309,4.7309,4.7309,4.7309,4.7309,4.7309,4.7309,4.7309,4.7309,4.7309,4.7309,4.7309,4.7309,4.7309,4.7568,4.8635,5.0511,5.254,5.3934,5.6263,5.8477,5.8856,5.9404,5.9717,5.9344,5.96,5.9785,5.961,5.8921,5.8215,5.785,5.6794,5.5938,5.5782,5.5536,5.5411,5.5688,5.5927,5.6196,5.6645,5.6855,5.7004,5.7094,5.7633,5.7992,5.7992,5.8501,5.859,5.8022,5.8441,5.8201,5.7124,5.7603,5.7902,5.7992,5.7992,5.8321,5.8979,5.889,5.889,5.8979,5.8979,5.8979,5.8979,5.9069,5.9069,5.8979,5.9069,5.9099,5.9099,5.9099,5.9099,5.9099,5.9099,5.9099,5.9099,4.6575,4.7143,4.77,4.7786,4.8455,4.9018,4.9018,5.027,5.1217,5.1217,5.2536,5.3518,5.3518,5.3518,5.3518,5.3518,5.2939,5.2416,5.1921,5.1377,5.0627,4.9536,4.9054,4.8512,4.7988,4.7538,4.7309,4.7309,4.7309,4.7309,4.7309,4.7309,4.7309,4.7309,4.7309,4.7309,4.7309,4.7309,4.7309,4.7309,4.7309,4.7309,4.7309,4.7309,4.7309,4.7309,4.7309,4.7309,4.7309,4.7309,4.7309,4.7369,4.7728,4.7848,4.823,4.9989,5.1789,5.3472,5.4919,5.7105,5.895,5.8675,5.9152,5.9643,5.9251,5.9239,5.9362,5.9177,5.8253,5.7502,5.7365,5.6272,5.5614,5.5979,5.5913,5.5957,5.6585,5.6675,5.6944,5.7573,5.7663,5.7812,5.8171,5.8501,5.868,5.868,5.8949,5.8979,5.868,5.859,5.8441,5.8231,5.8171,5.8291,5.865,5.868,5.883,5.9099,5.9099,5.9099,5.9099,5.9099,5.9099,5.9099,5.9099,5.9308,5.9608,5.9249,5.9308,5.9608,5.9249,5.9099,5.9099,5.9099,5.9099,5.9099]}]]